<?xml version='1.0' encoding='UTF-8'?><gpx version="1.1" creator="JPX - https://github.com/jenetics/jpx" xmlns="http://www.topografix.com/GPX/1/1"><trk><trkseg><trkpt lat="45.84574243213518" lon="9.071474208719538"><ele>304.0</ele><time>2026-04-04T08:09:29Z</time></trkpt><trkpt lat="45.84577429499403" lon="9.071385753184128"><ele>304.0</ele><time>2026-04-04T08:09:34Z</time></trkpt><trkpt lat="45.845837588891406" lon="9.071408098186856"><ele>304.0</ele><time>2026-04-04T08:09:38Z</time></trkpt><trkpt lat="45.84586690358319" lon="9.071494783233124"><ele>304.0</ele><time>2026-04-04T08:09:41Z</time></trkpt><trkpt lat="45.84593135115236" lon="9.071484135515009"><ele>304.0</ele><time>2026-04-04T08:09:51Z</time></trkpt><trkpt lat="45.845998666925226" lon="9.071435793946653"><ele>304.0</ele><time>2026-04-04T08:09:56Z</time></trkpt><trkpt lat="45.84605600657517" lon="9.071390814204987"><ele>304.0</ele><time>2026-04-04T08:09:59Z</time></trkpt><trkpt lat="45.84611585769219" lon="9.071345492749966"><ele>307.0</ele><time>2026-04-04T08:10:02Z</time></trkpt><trkpt lat="45.84618181996404" lon="9.0713052604778"><ele>310.0</ele><time>2026-04-04T08:10:06Z</time></trkpt><trkpt lat="45.846144170598954" lon="9.07120782532229"><ele>313.0</ele><time>2026-04-04T08:10:21Z</time></trkpt><trkpt lat="45.846080324251574" lon="9.0711257387449"><ele>316.0</ele><time>2026-04-04T08:10:24Z</time></trkpt><trkpt lat="45.8460277807515" lon="9.071028319997556"><ele>319.0</ele><time>2026-04-04T08:10:28Z</time></trkpt><trkpt lat="45.846072741180805" lon="9.0709457786459"><ele>322.0</ele><time>2026-04-04T08:10:32Z</time></trkpt><trkpt lat="45.84612266380929" lon="9.070870045746869"><ele>325.3333333333333</ele><time>2026-04-04T08:10:35Z</time></trkpt><trkpt lat="45.84608682179909" lon="9.070768679899318"><ele>328.66666666666663</ele><time>2026-04-04T08:10:37Z</time></trkpt><trkpt lat="45.846042078632976" lon="9.070677722444088"><ele>332.0</ele><time>2026-04-04T08:10:39Z</time></trkpt><trkpt lat="45.8460279630624" lon="9.070547133417179"><ele>335.3333333333333</ele><time>2026-04-04T08:10:42Z</time></trkpt><trkpt lat="45.84609123989988" lon="9.070488730899788"><ele>338.6666666666667</ele><time>2026-04-04T08:10:44Z</time></trkpt><trkpt lat="45.8461814402781" lon="9.070475489318259"><ele>342.0</ele><time>2026-04-04T08:10:46Z</time></trkpt><trkpt lat="45.84625232994298" lon="9.07046799931342"><ele>342.0</ele><time>2026-04-04T08:10:48Z</time></trkpt><trkpt lat="45.8463372601835" lon="9.070419135221211"><ele>342.0</ele><time>2026-04-04T08:10:50Z</time></trkpt><trkpt lat="45.84642028048993" lon="9.070320607725678"><ele>342.0</ele><time>2026-04-04T08:10:52Z</time></trkpt><trkpt lat="45.846536237767864" lon="9.07028457897614"><ele>342.0</ele><time>2026-04-04T08:10:54Z</time></trkpt><trkpt lat="45.846611401000345" lon="9.070286138526868"><ele>342.0</ele><time>2026-04-04T08:10:55Z</time></trkpt><trkpt lat="45.84669494782794" lon="9.070233280286262"><ele>342.0</ele><time>2026-04-04T08:10:57Z</time></trkpt><trkpt lat="45.84674951994353" lon="9.070167934490993"><ele>342.0</ele><time>2026-04-04T08:10:59Z</time></trkpt><trkpt lat="45.84676149348797" lon="9.070040779695606"><ele>342.0</ele><time>2026-04-04T08:11:01Z</time></trkpt><trkpt lat="45.84680754036375" lon="9.069936515766056"><ele>342.0</ele><time>2026-04-04T08:11:03Z</time></trkpt><trkpt lat="45.846816434697736" lon="9.069825859871365"><ele>342.0</ele><time>2026-04-04T08:11:05Z</time></trkpt><trkpt lat="45.846840182250276" lon="9.069720408821192"><ele>342.0</ele><time>2026-04-04T08:11:07Z</time></trkpt><trkpt lat="45.84683212851695" lon="9.069620959172786"><ele>350.5</ele><time>2026-04-04T08:11:09Z</time></trkpt><trkpt lat="45.84691706948591" lon="9.069593684958202"><ele>359.0</ele><time>2026-04-04T08:11:12Z</time></trkpt><trkpt lat="45.84701700589763" lon="9.069616296822176"><ele>367.5</ele><time>2026-04-04T08:11:14Z</time></trkpt><trkpt lat="45.84707963515158" lon="9.069576664456928"><ele>376.0</ele><time>2026-04-04T08:11:16Z</time></trkpt><trkpt lat="45.8470983309621" lon="9.069477954708262"><ele>384.5</ele><time>2026-04-04T08:11:18Z</time></trkpt><trkpt lat="45.847107511035645" lon="9.06937120455654"><ele>393.0</ele><time>2026-04-04T08:11:38Z</time></trkpt><trkpt lat="45.84717959972624" lon="9.069319621691482"><ele>393.0</ele><time>2026-04-04T08:11:41Z</time></trkpt><trkpt lat="45.84722127444799" lon="9.069402097900861"><ele>393.0</ele><time>2026-04-04T08:11:43Z</time></trkpt><trkpt lat="45.847309667725376" lon="9.069438547102038"><ele>393.0</ele><time>2026-04-04T08:11:45Z</time></trkpt><trkpt lat="45.84736487307196" lon="9.069376121006554"><ele>393.0</ele><time>2026-04-04T08:11:48Z</time></trkpt><trkpt lat="45.847458556936026" lon="9.069312218443285"><ele>393.0</ele><time>2026-04-04T08:11:51Z</time></trkpt><trkpt lat="45.84754180903575" lon="9.069244948326238"><ele>393.0</ele><time>2026-04-04T08:11:54Z</time></trkpt><trkpt lat="45.84763793033245" lon="9.069195973576385"><ele>399.0</ele><time>2026-04-04T08:11:56Z</time></trkpt><trkpt lat="45.84774395518974" lon="9.069102410095358"><ele>405.0</ele><time>2026-04-04T08:11:58Z</time></trkpt><trkpt lat="45.84783116919327" lon="9.069016504292962"><ele>411.0</ele><time>2026-04-04T08:12:00Z</time></trkpt><trkpt lat="45.84789198397426" lon="9.06892127496851"><ele>417.0</ele><time>2026-04-04T08:12:02Z</time></trkpt><trkpt lat="45.8479701857225" lon="9.068856143829942"><ele>423.0</ele><time>2026-04-04T08:12:04Z</time></trkpt><trkpt lat="45.848037112736115" lon="9.068850380193226"><ele>423.0</ele><time>2026-04-04T08:12:07Z</time></trkpt><trkpt lat="45.84810265990476" lon="9.068881599950048"><ele>423.0</ele><time>2026-04-04T08:12:09Z</time></trkpt><trkpt lat="45.848194719219165" lon="9.06891993124365"><ele>423.0</ele><time>2026-04-04T08:12:11Z</time></trkpt><trkpt lat="45.84826528344966" lon="9.068909966120634"><ele>423.0</ele><time>2026-04-04T08:12:14Z</time></trkpt><trkpt lat="45.84834038491215" lon="9.068927558239254"><ele>423.0</ele><time>2026-04-04T08:12:15Z</time></trkpt><trkpt lat="45.84840436100073" lon="9.068958284677437"><ele>423.0</ele><time>2026-04-04T08:12:16Z</time></trkpt><trkpt lat="45.848478136064905" lon="9.068996241098203"><ele>428.0</ele><time>2026-04-04T08:12:18Z</time></trkpt><trkpt lat="45.848557494286396" lon="9.069007629222945"><ele>433.0</ele><time>2026-04-04T08:12:20Z</time></trkpt><trkpt lat="45.84865201396694" lon="9.069000761062753"><ele>438.0</ele><time>2026-04-04T08:12:22Z</time></trkpt><trkpt lat="45.84872516648175" lon="9.068942837631202"><ele>443.0</ele><time>2026-04-04T08:12:24Z</time></trkpt><trkpt lat="45.84880546173117" lon="9.068934123607601"><ele>448.0</ele><time>2026-04-04T08:12:27Z</time></trkpt><trkpt lat="45.84886135130332" lon="9.068892145664089"><ele>453.0</ele><time>2026-04-04T08:12:29Z</time></trkpt><trkpt lat="45.84893186354317" lon="9.068813618395817"><ele>453.0</ele><time>2026-04-04T08:12:32Z</time></trkpt><trkpt lat="45.849012309353995" lon="9.068762403774523"><ele>453.0</ele><time>2026-04-04T08:12:34Z</time></trkpt><trkpt lat="45.84909703985432" lon="9.068715324652073"><ele>453.0</ele><time>2026-04-04T08:12:37Z</time></trkpt><trkpt lat="45.84913449431833" lon="9.068642061892765"><ele>453.0</ele><time>2026-04-04T08:12:39Z</time></trkpt><trkpt lat="45.849198548144976" lon="9.068606101987367"><ele>453.0</ele><time>2026-04-04T08:12:41Z</time></trkpt><trkpt lat="45.849259904675726" lon="9.068552115576074"><ele>453.0</ele><time>2026-04-04T08:12:43Z</time></trkpt><trkpt lat="45.84932270402813" lon="9.06851057335582"><ele>455.8333333333333</ele><time>2026-04-04T08:12:45Z</time></trkpt><trkpt lat="45.84937425773024" lon="9.06845571920128"><ele>458.66666666666663</ele><time>2026-04-04T08:12:47Z</time></trkpt><trkpt lat="45.849452430800284" lon="9.068424845028181"><ele>461.5</ele><time>2026-04-04T08:12:49Z</time></trkpt><trkpt lat="45.84951712063047" lon="9.068411300591618"><ele>464.3333333333333</ele><time>2026-04-04T08:12:50Z</time></trkpt><trkpt lat="45.84961721896309" lon="9.06836601913065"><ele>467.16666666666663</ele><time>2026-04-04T08:12:52Z</time></trkpt><trkpt lat="45.84971502116845" lon="9.068312156804001"><ele>470.0</ele><time>2026-04-04T08:12:54Z</time></trkpt><trkpt lat="45.84979518868249" lon="9.06825443807742"><ele>471.3333333333333</ele><time>2026-04-04T08:12:56Z</time></trkpt><trkpt lat="45.84989861972382" lon="9.068158389019061"><ele>472.66666666666663</ele><time>2026-04-04T08:12:58Z</time></trkpt><trkpt lat="45.84996737722305" lon="9.068090598925162"><ele>474.0</ele><time>2026-04-04T08:13:01Z</time></trkpt><trkpt lat="45.85000388001392" lon="9.068012139564269"><ele>475.33333333333337</ele><time>2026-04-04T08:13:03Z</time></trkpt><trkpt lat="45.85005939396197" lon="9.067924034791046"><ele>476.6666666666667</ele><time>2026-04-04T08:13:06Z</time></trkpt><trkpt lat="45.85009199655347" lon="9.067835345409573"><ele>478.0</ele><time>2026-04-04T08:13:07Z</time></trkpt><trkpt lat="45.85018150912103" lon="9.067766341757016"><ele>482.2</ele><time>2026-04-04T08:13:09Z</time></trkpt><trkpt lat="45.85026887156817" lon="9.067670114128067"><ele>486.4</ele><time>2026-04-04T08:13:11Z</time></trkpt><trkpt lat="45.85035806470166" lon="9.067598683986807"><ele>490.59999999999997</ele><time>2026-04-04T08:13:13Z</time></trkpt><trkpt lat="45.85044255687576" lon="9.067556884114179"><ele>494.79999999999995</ele><time>2026-04-04T08:13:16Z</time></trkpt><trkpt lat="45.850494420341434" lon="9.06749119812759"><ele>499.0</ele><time>2026-04-04T08:13:18Z</time></trkpt><trkpt lat="45.85059036509072" lon="9.067426854670355"><ele>500.79999999999995</ele><time>2026-04-04T08:13:21Z</time></trkpt><trkpt lat="45.85067116747855" lon="9.067389337584983"><ele>502.59999999999997</ele><time>2026-04-04T08:13:24Z</time></trkpt><trkpt lat="45.850769982438734" lon="9.06734256848139"><ele>504.4</ele><time>2026-04-04T08:13:37Z</time></trkpt><trkpt lat="45.85087290867807" lon="9.067372526119108"><ele>506.2</ele><time>2026-04-04T08:13:40Z</time></trkpt><trkpt lat="45.85097753999561" lon="9.067393375710143"><ele>508.0</ele><time>2026-04-04T08:13:42Z</time></trkpt><trkpt lat="45.85107350817101" lon="9.067355320465465"><ele>514.4</ele><time>2026-04-04T08:13:44Z</time></trkpt><trkpt lat="45.85116892289634" lon="9.067297418230595"><ele>520.8</ele><time>2026-04-04T08:13:47Z</time></trkpt><trkpt lat="45.85123247741418" lon="9.067269246976789"><ele>527.2</ele><time>2026-04-04T08:13:49Z</time></trkpt><trkpt lat="45.85129265608962" lon="9.06720074876245"><ele>533.6</ele><time>2026-04-04T08:13:51Z</time></trkpt><trkpt lat="45.851360732616136" lon="9.067053757995946"><ele>540.0</ele><time>2026-04-04T08:13:53Z</time></trkpt><trkpt lat="45.85141133163409" lon="9.066943480073707"><ele>540.0</ele><time>2026-04-04T08:13:57Z</time></trkpt><trkpt lat="45.85145604171175" lon="9.066855872234715"><ele>540.0</ele><time>2026-04-04T08:14:00Z</time></trkpt><trkpt lat="45.851494792787804" lon="9.066774150846177"><ele>540.0</ele><time>2026-04-04T08:14:04Z</time></trkpt><trkpt lat="45.851542094160074" lon="9.066694944015245"><ele>540.0</ele><time>2026-04-04T08:14:48Z</time></trkpt><trkpt lat="45.851487753048175" lon="9.066626056287513"><ele>540.0</ele><time>2026-04-04T08:14:53Z</time></trkpt><trkpt lat="45.85153695310985" lon="9.066689753414499"><ele>540.0</ele><time>2026-04-04T08:15:34Z</time></trkpt><trkpt lat="45.851484502524" lon="9.066628466725433"><ele>540.0</ele><time>2026-04-04T08:16:24.001Z</time></trkpt><trkpt lat="45.8515393508332" lon="9.066530554745151"><ele>543.8333333333334</ele><time>2026-04-04T08:17:08Z</time></trkpt><trkpt lat="45.851527858005625" lon="9.066405246881176"><ele>547.6666666666666</ele><time>2026-04-04T08:17:19.001Z</time></trkpt><trkpt lat="45.85149792334088" lon="9.066289478240304"><ele>551.5</ele><time>2026-04-04T08:17:21.001Z</time></trkpt><trkpt lat="45.8515816435757" lon="9.066283333145998"><ele>555.3333333333333</ele><time>2026-04-04T08:17:33.001Z</time></trkpt><trkpt lat="45.851642820805274" lon="9.066241588190785"><ele>559.1666666666666</ele><time>2026-04-04T08:17:35.001Z</time></trkpt><trkpt lat="45.85170667455768" lon="9.066220487444737"><ele>563.0</ele><time>2026-04-04T08:17:37.001Z</time></trkpt><trkpt lat="45.851764203639995" lon="9.066175121279612"><ele>563.0</ele><time>2026-04-04T08:17:39.001Z</time></trkpt><trkpt lat="45.85173672323118" lon="9.066092784780627"><ele>563.0</ele><time>2026-04-04T08:17:41.001Z</time></trkpt><trkpt lat="45.85167059185868" lon="9.066020196089632"><ele>563.0</ele><time>2026-04-04T08:17:43.001Z</time></trkpt><trkpt lat="45.851741702215136" lon="9.065945509176926"><ele>563.0</ele><time>2026-04-04T08:17:49.001Z</time></trkpt><trkpt lat="45.85180174409958" lon="9.065907404459184"><ele>563.0</ele><time>2026-04-04T08:17:51.001Z</time></trkpt><trkpt lat="45.851820004709005" lon="9.065812056613597"><ele>563.0</ele><time>2026-04-04T08:17:54.001Z</time></trkpt><trkpt lat="45.85181416408846" lon="9.065697566623259"><ele>563.0</ele><time>2026-04-04T08:17:57.001Z</time></trkpt><trkpt lat="45.8518772709663" lon="9.065652976724241"><ele>571.8571428571429</ele><time>2026-04-04T08:18:01.001Z</time></trkpt><trkpt lat="45.851943102039684" lon="9.065580917633435"><ele>580.7142857142858</ele><time>2026-04-04T08:18:06.001Z</time></trkpt><trkpt lat="45.85201477831099" lon="9.065556913918806"><ele>589.5714285714287</ele><time>2026-04-04T08:18:09.001Z</time></trkpt><trkpt lat="45.852018482074364" lon="9.065459347251695"><ele>598.4285714285714</ele><time>2026-04-04T08:18:13.001Z</time></trkpt><trkpt lat="45.85200947006651" lon="9.065340343030504"><ele>607.2857142857143</ele><time>2026-04-04T08:18:40Z</time></trkpt><trkpt lat="45.85197839212671" lon="9.065243342251874"><ele>616.1428571428572</ele><time>2026-04-04T08:18:44Z</time></trkpt><trkpt lat="45.85202559869202" lon="9.06517572394882"><ele>625.0</ele><time>2026-04-04T08:18:53Z</time></trkpt><trkpt lat="45.85203625567651" lon="9.06508239797521"><ele>625.0000000000001</ele><time>2026-04-04T08:18:57Z</time></trkpt><trkpt lat="45.85211214733525" lon="9.065076037314087"><ele>625.0</ele><time>2026-04-04T08:19:00Z</time></trkpt><trkpt lat="45.85217339022285" lon="9.06512430387846"><ele>625.0</ele><time>2026-04-04T08:20:18Z</time></trkpt><trkpt lat="45.85211188677684" lon="9.065168699657038"><ele>625.0</ele><time>2026-04-04T08:20:34.001Z</time></trkpt><trkpt lat="45.852117072634414" lon="9.065075450474838"><ele>625.0</ele><time>2026-04-04T08:21:26Z</time></trkpt><trkpt lat="45.85218034564138" lon="9.065106255246384"><ele>625.0000000000001</ele><time>2026-04-04T08:21:29Z</time></trkpt><trkpt lat="45.85223390961198" lon="9.06504746114931"><ele>625.0</ele><time>2026-04-04T08:21:33Z</time></trkpt><trkpt lat="45.852299692376526" lon="9.064997156452216"><ele>625.0000000000001</ele><time>2026-04-04T08:21:37Z</time></trkpt><trkpt lat="45.852367224765715" lon="9.06500841513339"><ele>625.0</ele><time>2026-04-04T08:21:47Z</time></trkpt><trkpt lat="45.85243182586692" lon="9.06502180748659"><ele>625.0</ele><time>2026-04-04T08:21:51Z</time></trkpt><trkpt lat="45.8524605905282" lon="9.06493403868692"><ele>625.0</ele><time>2026-04-04T08:21:54Z</time></trkpt><trkpt lat="45.85253574499586" lon="9.064905547046811"><ele>625.0</ele><time>2026-04-04T08:21:56Z</time></trkpt><trkpt lat="45.852540520423915" lon="9.064792965988111"><ele>625.0000000000001</ele><time>2026-04-04T08:21:59Z</time></trkpt><trkpt lat="45.85257855990403" lon="9.064692780890352"><ele>625.0</ele><time>2026-04-04T08:22:03Z</time></trkpt><trkpt lat="45.85262764173854" lon="9.064628661256906"><ele>631.1428571428572</ele><time>2026-04-04T08:22:13Z</time></trkpt><trkpt lat="45.852682608838826" lon="9.064579042855573"><ele>637.2857142857143</ele><time>2026-04-04T08:22:22Z</time></trkpt><trkpt lat="45.85268861698551" lon="9.06448047333259"><ele>643.4285714285714</ele><time>2026-04-04T08:22:28Z</time></trkpt><trkpt lat="45.852726346464024" lon="9.064406205465897"><ele>649.5714285714287</ele><time>2026-04-04T08:24:52Z</time></trkpt><trkpt lat="45.85271371371763" lon="9.064293274596146"><ele>655.7142857142858</ele><time>2026-04-04T08:24:55Z</time></trkpt><trkpt lat="45.85270240360332" lon="9.064157712405454"><ele>661.8571428571429</ele><time>2026-04-04T08:24:59Z</time></trkpt><trkpt lat="45.852695308280595" lon="9.064052193245335"><ele>668.0</ele><time>2026-04-04T08:25:01Z</time></trkpt><trkpt lat="45.852710246186696" lon="9.063963750466696"><ele>668.0</ele><time>2026-04-04T08:25:03Z</time></trkpt><trkpt lat="45.85272527819587" lon="9.063832418160318"><ele>668.0</ele><time>2026-04-04T08:25:06Z</time></trkpt><trkpt lat="45.852752943726905" lon="9.063735751863549"><ele>668.0</ele><time>2026-04-04T08:25:08Z</time></trkpt><trkpt lat="45.85282280069183" lon="9.063666508016592"><ele>668.0</ele><time>2026-04-04T08:25:11Z</time></trkpt><trkpt lat="45.852886190726466" lon="9.0635939626715"><ele>668.0</ele><time>2026-04-04T08:25:14Z</time></trkpt><trkpt lat="45.85294687486403" lon="9.063543628923995"><ele>668.0</ele><time>2026-04-04T08:25:16Z</time></trkpt><trkpt lat="45.85299718697008" lon="9.063465353021085"><ele>668.0</ele><time>2026-04-04T08:25:19Z</time></trkpt><trkpt lat="45.85305737838937" lon="9.063394921652458"><ele>668.0</ele><time>2026-04-04T08:25:24Z</time></trkpt><trkpt lat="45.8531258581255" lon="9.063322759699803"><ele>668.0</ele><time>2026-04-04T08:25:27Z</time></trkpt><trkpt lat="45.853190312924895" lon="9.063260941766062"><ele>668.0</ele><time>2026-04-04T08:25:29Z</time></trkpt><trkpt lat="45.8532548953586" lon="9.063254340612716"><ele>668.0</ele><time>2026-04-04T08:25:31Z</time></trkpt><trkpt lat="45.85332873627444" lon="9.06323300987213"><ele>668.0</ele><time>2026-04-04T08:25:33Z</time></trkpt><trkpt lat="45.85339178646809" lon="9.06315418298153"><ele>663.1666666666666</ele><time>2026-04-04T08:25:35Z</time></trkpt><trkpt lat="45.85343946688125" lon="9.063063372376797"><ele>658.3333333333333</ele><time>2026-04-04T08:25:37Z</time></trkpt><trkpt lat="45.853490993285504" lon="9.062980757049912"><ele>653.5</ele><time>2026-04-04T08:25:39Z</time></trkpt><trkpt lat="45.85355498222075" lon="9.062964308183567"><ele>648.6666666666666</ele><time>2026-04-04T08:25:41Z</time></trkpt><trkpt lat="45.85367651785025" lon="9.062861494758842"><ele>643.8333333333334</ele><time>2026-04-04T08:25:46Z</time></trkpt><trkpt lat="45.85374065277836" lon="9.062825733744766"><ele>639.0</ele><time>2026-04-04T08:25:48Z</time></trkpt><trkpt lat="45.85381442042971" lon="9.062805186139885"><ele>644.6666666666666</ele><time>2026-04-04T08:25:49Z</time></trkpt><trkpt lat="45.85387654134522" lon="9.062739822141083"><ele>650.3333333333334</ele><time>2026-04-04T08:25:51Z</time></trkpt><trkpt lat="45.85394209010811" lon="9.062644512558037"><ele>656.0</ele><time>2026-04-04T08:25:53Z</time></trkpt><trkpt lat="45.85400216377438" lon="9.062548433254475"><ele>661.6666666666667</ele><time>2026-04-04T08:25:55Z</time></trkpt><trkpt lat="45.854063817475534" lon="9.062462100097989"><ele>667.3333333333334</ele><time>2026-04-04T08:25:57Z</time></trkpt><trkpt lat="45.854130658315626" lon="9.062396571824983"><ele>673.0</ele><time>2026-04-04T08:25:59Z</time></trkpt><trkpt lat="45.85420560492565" lon="9.062314859564108"><ele>673.0</ele><time>2026-04-04T08:26:02Z</time></trkpt><trkpt lat="45.85427940132383" lon="9.06224462886485"><ele>673.0</ele><time>2026-04-04T08:26:04Z</time></trkpt><trkpt lat="45.85434324431225" lon="9.062209475963561"><ele>673.0</ele><time>2026-04-04T08:26:06Z</time></trkpt><trkpt lat="45.854420692883224" lon="9.062190642883149"><ele>673.0</ele><time>2026-04-04T08:26:08Z</time></trkpt><trkpt lat="45.85449828450488" lon="9.062130441284477"><ele>673.0</ele><time>2026-04-04T08:26:11Z</time></trkpt><trkpt lat="45.85455680044052" lon="9.06208292475874"><ele>673.0</ele><time>2026-04-04T08:26:13Z</time></trkpt><trkpt lat="45.85463010501284" lon="9.062053429702676"><ele>681.2</ele><time>2026-04-04T08:26:15Z</time></trkpt><trkpt lat="45.85472334193623" lon="9.06202831138928"><ele>689.4</ele><time>2026-04-04T08:26:17Z</time></trkpt><trkpt lat="45.854803883125136" lon="9.061984498786186"><ele>697.6</ele><time>2026-04-04T08:26:19Z</time></trkpt><trkpt lat="45.854884421447636" lon="9.061929730979838"><ele>705.8000000000001</ele><time>2026-04-04T08:26:21Z</time></trkpt><trkpt lat="45.85496239399203" lon="9.061866549693745"><ele>714.0</ele><time>2026-04-04T08:26:23Z</time></trkpt><trkpt lat="45.85505106294512" lon="9.061811618443661"><ele>718.1666666666666</ele><time>2026-04-04T08:26:25Z</time></trkpt><trkpt lat="45.855137000543934" lon="9.061758702875347"><ele>722.3333333333334</ele><time>2026-04-04T08:26:27Z</time></trkpt><trkpt lat="45.855223197403625" lon="9.061696730877934"><ele>726.5</ele><time>2026-04-04T08:26:29Z</time></trkpt><trkpt lat="45.85531312786697" lon="9.061617431548836"><ele>730.6666666666667</ele><time>2026-04-04T08:26:31Z</time></trkpt><trkpt lat="45.85537500494451" lon="9.061583807936366"><ele>734.8333333333334</ele><time>2026-04-04T08:26:33Z</time></trkpt><trkpt lat="45.85543695469761" lon="9.06149886664757"><ele>739.0</ele><time>2026-04-04T08:26:35Z</time></trkpt><trkpt lat="45.85550584084838" lon="9.061391946395927"><ele>739.0</ele><time>2026-04-04T08:26:37Z</time></trkpt><trkpt lat="45.85556317756913" lon="9.061311968724159"><ele>739.0</ele><time>2026-04-04T08:26:39Z</time></trkpt><trkpt lat="45.855612008275116" lon="9.061213479249936"><ele>739.0</ele><time>2026-04-04T08:26:41Z</time></trkpt><trkpt lat="45.855676084816245" lon="9.061121034113821"><ele>739.0</ele><time>2026-04-04T08:26:43Z</time></trkpt><trkpt lat="45.85572495102134" lon="9.061031714663743"><ele>739.0</ele><time>2026-04-04T08:26:45Z</time></trkpt><trkpt lat="45.8557894943495" lon="9.060949795046835"><ele>739.0</ele><time>2026-04-04T08:26:47Z</time></trkpt><trkpt lat="45.85583458366294" lon="9.060862211822009"><ele>741.8333333333334</ele><time>2026-04-04T08:26:49Z</time></trkpt><trkpt lat="45.855866136215944" lon="9.060740541274805"><ele>744.6666666666667</ele><time>2026-04-04T08:26:51Z</time></trkpt><trkpt lat="45.85590620981134" lon="9.06063498516939"><ele>747.5</ele><time>2026-04-04T08:27:06Z</time></trkpt><trkpt lat="45.85596167063753" lon="9.060539266297575"><ele>750.3333333333334</ele><time>2026-04-04T08:27:09Z</time></trkpt><trkpt lat="45.856018514660285" lon="9.060425075219829"><ele>753.1666666666666</ele><time>2026-04-04T08:27:12Z</time></trkpt><trkpt lat="45.856071541952126" lon="9.060333752471465"><ele>756.0</ele><time>2026-04-04T08:27:15Z</time></trkpt><trkpt lat="45.856116476008346" lon="9.060262197973575"><ele>756.0</ele><time>2026-04-04T08:27:21Z</time></trkpt><trkpt lat="45.856174907962384" lon="9.060221438263023"><ele>756.0</ele><time>2026-04-04T08:27:23Z</time></trkpt><trkpt lat="45.856252797307604" lon="9.060132334902388"><ele>756.0</ele><time>2026-04-04T08:27:26Z</time></trkpt><trkpt lat="45.85631176953469" lon="9.060093216517458"><ele>756.0</ele><time>2026-04-04T08:27:28Z</time></trkpt><trkpt lat="45.85635216365454" lon="9.060022882202523"><ele>756.0</ele><time>2026-04-04T08:27:30Z</time></trkpt><trkpt lat="45.85640294208134" lon="9.059962361580228"><ele>756.0</ele><time>2026-04-04T08:27:33Z</time></trkpt><trkpt lat="45.85646937721876" lon="9.059926295195474"><ele>756.0</ele><time>2026-04-04T08:27:35Z</time></trkpt><trkpt lat="45.85654121800433" lon="9.059874826069628"><ele>756.4</ele><time>2026-04-04T08:27:37Z</time></trkpt><trkpt lat="45.85662555459102" lon="9.059823188768855"><ele>756.8</ele><time>2026-04-04T08:27:39Z</time></trkpt><trkpt lat="45.85671085223076" lon="9.059782306296157"><ele>757.1999999999999</ele><time>2026-04-04T08:27:41Z</time></trkpt><trkpt lat="45.856814772810445" lon="9.059764543349948"><ele>757.5999999999999</ele><time>2026-04-04T08:27:43Z</time></trkpt><trkpt lat="45.85689884857545" lon="9.059775338400913"><ele>758.0</ele><time>2026-04-04T08:27:45Z</time></trkpt><trkpt lat="45.85698287004446" lon="9.059767883972844"><ele>758.0</ele><time>2026-04-04T08:27:47Z</time></trkpt><trkpt lat="45.85706271910136" lon="9.059758132470016"><ele>758.0</ele><time>2026-04-04T08:27:49Z</time></trkpt><trkpt lat="45.85715886533765" lon="9.059787034800312"><ele>758.0</ele><time>2026-04-04T08:27:51Z</time></trkpt><trkpt lat="45.85723982914369" lon="9.059807214233256"><ele>758.0</ele><time>2026-04-04T08:27:53Z</time></trkpt><trkpt lat="45.85730367447311" lon="9.059779894934836"><ele>758.0</ele><time>2026-04-04T08:27:54Z</time></trkpt><trkpt lat="45.857412584088706" lon="9.059725979251105"><ele>758.0</ele><time>2026-04-04T08:27:56Z</time></trkpt><trkpt lat="45.857517699808525" lon="9.059674607865396"><ele>758.0</ele><time>2026-04-04T08:27:58Z</time></trkpt><trkpt lat="45.857612888168255" lon="9.059618494768682"><ele>758.0</ele><time>2026-04-04T08:28:00Z</time></trkpt><trkpt lat="45.85769198683692" lon="9.059548644794472"><ele>758.0</ele><time>2026-04-04T08:28:02Z</time></trkpt><trkpt lat="45.85778351004754" lon="9.059451604264098"><ele>758.0</ele><time>2026-04-04T08:28:04Z</time></trkpt><trkpt lat="45.85787446222445" lon="9.059380141497964"><ele>758.0</ele><time>2026-04-04T08:28:06Z</time></trkpt><trkpt lat="45.857918916372896" lon="9.059312954372533"><ele>761.0</ele><time>2026-04-04T08:28:08Z</time></trkpt><trkpt lat="45.85795135196172" lon="9.059190778248606"><ele>764.0</ele><time>2026-04-04T08:28:10Z</time></trkpt><trkpt lat="45.858009587038744" lon="9.059073562607631"><ele>767.0</ele><time>2026-04-04T08:28:12Z</time></trkpt><trkpt lat="45.85807138823715" lon="9.058961012848986"><ele>770.0</ele><time>2026-04-04T08:28:14Z</time></trkpt><trkpt lat="45.858095436783444" lon="9.058802328718935"><ele>773.0</ele><time>2026-04-04T08:28:16Z</time></trkpt><trkpt lat="45.85812297186224" lon="9.05865275959082"><ele>773.0000000000001</ele><time>2026-04-04T08:28:18Z</time></trkpt><trkpt lat="45.85816170988343" lon="9.058538583660532"><ele>773.0</ele><time>2026-04-04T08:28:20Z</time></trkpt><trkpt lat="45.85818104449509" lon="9.05840965902284"><ele>773.0</ele><time>2026-04-04T08:28:22Z</time></trkpt><trkpt lat="45.858231569006264" lon="9.058306738077263"><ele>773.0</ele><time>2026-04-04T08:28:24Z</time></trkpt><trkpt lat="45.858294514756125" lon="9.058223785090856"><ele>773.0000000000001</ele><time>2026-04-04T08:28:26Z</time></trkpt><trkpt lat="45.858362512480966" lon="9.058137177825731"><ele>773.0</ele><time>2026-04-04T08:28:28Z</time></trkpt><trkpt lat="45.85843607105174" lon="9.058082287988949"><ele>776.0</ele><time>2026-04-04T08:28:30Z</time></trkpt><trkpt lat="45.858528754136195" lon="9.058052820178318"><ele>779.0</ele><time>2026-04-04T08:28:33Z</time></trkpt><trkpt lat="45.85859940926356" lon="9.058017495500742"><ele>782.0</ele><time>2026-04-04T08:28:35Z</time></trkpt><trkpt lat="45.85869972665415" lon="9.057983371536778"><ele>785.0</ele><time>2026-04-04T08:28:37Z</time></trkpt><trkpt lat="45.85881582486966" lon="9.057933714278864"><ele>788.0</ele><time>2026-04-04T08:28:39Z</time></trkpt><trkpt lat="45.85892078615256" lon="9.057852811408173"><ele>788.0</ele><time>2026-04-04T08:28:41Z</time></trkpt><trkpt lat="45.85901545612465" lon="9.057766741620586"><ele>788.0</ele><time>2026-04-04T08:28:43Z</time></trkpt><trkpt lat="45.85910859943545" lon="9.057677915635113"><ele>788.0</ele><time>2026-04-04T08:28:45Z</time></trkpt><trkpt lat="45.85920436785979" lon="9.057605839717858"><ele>788.0</ele><time>2026-04-04T08:28:47Z</time></trkpt><trkpt lat="45.85929565631877" lon="9.057570890296795"><ele>788.0</ele><time>2026-04-04T08:28:49Z</time></trkpt><trkpt lat="45.85939481972584" lon="9.057523141134414"><ele>792.4</ele><time>2026-04-04T08:28:51Z</time></trkpt><trkpt lat="45.859492690522465" lon="9.057521292987115"><ele>796.8</ele><time>2026-04-04T08:28:53Z</time></trkpt><trkpt lat="45.85953144678723" lon="9.057397243338558"><ele>801.2</ele><time>2026-04-04T08:28:56Z</time></trkpt><trkpt lat="45.85949127698793" lon="9.057250873642873"><ele>805.6</ele><time>2026-04-04T08:28:58Z</time></trkpt><trkpt lat="45.85949742043736" lon="9.057122459803214"><ele>810.0</ele><time>2026-04-04T08:29:00Z</time></trkpt><trkpt lat="45.85952278308815" lon="9.057039220418869"><ele>810.0</ele><time>2026-04-04T08:29:01Z</time></trkpt><trkpt lat="45.85953430255895" lon="9.056904673417765"><ele>810.0</ele><time>2026-04-04T08:29:03Z</time></trkpt><trkpt lat="45.85957683999145" lon="9.056752484233414"><ele>810.0</ele><time>2026-04-04T08:29:05Z</time></trkpt><trkpt lat="45.859595283942475" lon="9.056632312861401"><ele>810.0</ele><time>2026-04-04T08:29:07Z</time></trkpt><trkpt lat="45.85965554984275" lon="9.056594483277458"><ele>810.0</ele><time>2026-04-04T08:29:09Z</time></trkpt><trkpt lat="45.859717292321484" lon="9.05647133944465"><ele>810.8333333333334</ele><time>2026-04-04T08:29:11Z</time></trkpt><trkpt lat="45.859781324589065" lon="9.056395499907211"><ele>811.6666666666667</ele><time>2026-04-04T08:29:13Z</time></trkpt><trkpt lat="45.8598607092562" lon="9.056328110172505"><ele>812.5</ele><time>2026-04-04T08:29:15Z</time></trkpt><trkpt lat="45.85994130702237" lon="9.05631456962037"><ele>813.3333333333334</ele><time>2026-04-04T08:29:18Z</time></trkpt><trkpt lat="45.86000655149487" lon="9.056308771807286"><ele>814.1666666666667</ele><time>2026-04-04T08:29:20Z</time></trkpt><trkpt lat="45.860070739013416" lon="9.056278087286662"><ele>815.0</ele><time>2026-04-04T08:29:21Z</time></trkpt><trkpt lat="45.860168719121624" lon="9.056225161703889"><ele>815.0</ele><time>2026-04-04T08:29:23Z</time></trkpt><trkpt lat="45.86026420471961" lon="9.056198347360032"><ele>815.0</ele><time>2026-04-04T08:29:25Z</time></trkpt><trkpt lat="45.86035779587227" lon="9.056138019255759"><ele>815.0</ele><time>2026-04-04T08:29:27Z</time></trkpt><trkpt lat="45.86046078496298" lon="9.05610275458057"><ele>815.0</ele><time>2026-04-04T08:29:29Z</time></trkpt><trkpt lat="45.86054767671856" lon="9.056082174970275"><ele>815.0</ele><time>2026-04-04T08:29:31Z</time></trkpt><trkpt lat="45.86064514241119" lon="9.056095681339661"><ele>815.0</ele><time>2026-04-04T08:29:34Z</time></trkpt><trkpt lat="45.860734589137095" lon="9.05603101376285"><ele>815.0</ele><time>2026-04-04T08:29:36Z</time></trkpt><trkpt lat="45.86079008281636" lon="9.05595393788642"><ele>815.0</ele><time>2026-04-04T08:29:38Z</time></trkpt><trkpt lat="45.86089460626926" lon="9.05590240066638"><ele>815.0</ele><time>2026-04-04T08:29:40Z</time></trkpt><trkpt lat="45.8609724945396" lon="9.055835022291163"><ele>815.0</ele><time>2026-04-04T08:29:42Z</time></trkpt><trkpt lat="45.86106048897489" lon="9.055766104937055"><ele>814.4</ele><time>2026-04-04T08:29:45Z</time></trkpt><trkpt lat="45.86114255801733" lon="9.055745481140999"><ele>813.8</ele><time>2026-04-04T08:29:47Z</time></trkpt><trkpt lat="45.86123099379687" lon="9.055674307648939"><ele>813.2</ele><time>2026-04-04T08:29:49Z</time></trkpt><trkpt lat="45.861311466106905" lon="9.055602165897112"><ele>812.6</ele><time>2026-04-04T08:29:51Z</time></trkpt><trkpt lat="45.861420173311956" lon="9.05553595217632"><ele>812.0</ele><time>2026-04-04T08:29:53Z</time></trkpt><trkpt lat="45.8614808168754" lon="9.055508383458397"><ele>812.0</ele><time>2026-04-04T08:29:54Z</time></trkpt><trkpt lat="45.86156226978023" lon="9.055455525175002"><ele>812.0</ele><time>2026-04-04T08:29:56Z</time></trkpt><trkpt lat="45.86164518809973" lon="9.055400292223572"><ele>812.0</ele><time>2026-04-04T08:29:58Z</time></trkpt><trkpt lat="45.86171071270174" lon="9.055347685209803"><ele>812.0</ele><time>2026-04-04T08:30:00Z</time></trkpt><trkpt lat="45.861798875382895" lon="9.055339592491089"><ele>812.0</ele><time>2026-04-04T08:30:02Z</time></trkpt><trkpt lat="45.86197952403789" lon="9.055257165153867"><ele>815.8</ele><time>2026-04-04T08:30:05Z</time></trkpt><trkpt lat="45.8620463114579" lon="9.055223131624324"><ele>819.6</ele><time>2026-04-04T08:30:06Z</time></trkpt><trkpt lat="45.86213070883788" lon="9.05520493546332"><ele>823.4</ele><time>2026-04-04T08:30:08Z</time></trkpt><trkpt lat="45.86221798941814" lon="9.055183162111138"><ele>827.1999999999999</ele><time>2026-04-04T08:30:10Z</time></trkpt><trkpt lat="45.862318995938764" lon="9.055133249697858"><ele>831.0</ele><time>2026-04-04T08:30:12Z</time></trkpt><trkpt lat="45.86241274059402" lon="9.055085773804125"><ele>831.0</ele><time>2026-04-04T08:30:14Z</time></trkpt><trkpt lat="45.86253755803871" lon="9.055006657584654"><ele>831.0</ele><time>2026-04-04T08:30:16Z</time></trkpt><trkpt lat="45.86264497932204" lon="9.054967354494833"><ele>831.0</ele><time>2026-04-04T08:30:18Z</time></trkpt><trkpt lat="45.862742252434096" lon="9.054942071436907"><ele>831.0</ele><time>2026-04-04T08:30:20Z</time></trkpt><trkpt lat="45.86283282269103" lon="9.05490593114517"><ele>831.0</ele><time>2026-04-04T08:30:22Z</time></trkpt><trkpt lat="45.86291393781064" lon="9.054874839195929"><ele>827.5999999999999</ele><time>2026-04-04T08:30:24Z</time></trkpt><trkpt lat="45.862992970170325" lon="9.054846326111265"><ele>824.2</ele><time>2026-04-04T08:30:26Z</time></trkpt><trkpt lat="45.863091140606144" lon="9.054807477549305"><ele>820.8</ele><time>2026-04-04T08:30:28Z</time></trkpt><trkpt lat="45.863160165164686" lon="9.054786396193691"><ele>817.4000000000001</ele><time>2026-04-04T08:30:29Z</time></trkpt><trkpt lat="45.863264399779844" lon="9.054787367361143"><ele>814.0</ele><time>2026-04-04T08:30:31Z</time></trkpt><trkpt lat="45.86337721051465" lon="9.054778504059275"><ele>816.0</ele><time>2026-04-04T08:30:33Z</time></trkpt><trkpt lat="45.86348640525965" lon="9.054793984542789"><ele>818.0</ele><time>2026-04-04T08:30:35Z</time></trkpt><trkpt lat="45.863608855299695" lon="9.054774073338379"><ele>820.0</ele><time>2026-04-04T08:30:37Z</time></trkpt><trkpt lat="45.86367593697653" lon="9.054768247176503"><ele>822.0</ele><time>2026-04-04T08:30:38Z</time></trkpt><trkpt lat="45.8637443810142" lon="9.054773685617768"><ele>824.0</ele><time>2026-04-04T08:30:39Z</time></trkpt><trkpt lat="45.863856703036596" lon="9.054766816537414"><ele>824.0</ele><time>2026-04-04T08:30:41Z</time></trkpt><trkpt lat="45.86391956104681" lon="9.054777931630348"><ele>824.0</ele><time>2026-04-04T08:30:42Z</time></trkpt><trkpt lat="45.8640418175085" lon="9.054789606496104"><ele>824.0</ele><time>2026-04-04T08:30:44Z</time></trkpt><trkpt lat="45.864165438941946" lon="9.054770940221209"><ele>824.0</ele><time>2026-04-04T08:30:46Z</time></trkpt><trkpt lat="45.8642752448804" lon="9.054762026370184"><ele>824.0</ele><time>2026-04-04T08:30:48Z</time></trkpt><trkpt lat="45.86436193490293" lon="9.05477804830882"><ele>825.8000000000001</ele><time>2026-04-04T08:30:50Z</time></trkpt><trkpt lat="45.864465156102554" lon="9.054797737377486"><ele>827.6</ele><time>2026-04-04T08:30:52Z</time></trkpt><trkpt lat="45.8645326099932" lon="9.054798821963049"><ele>829.4</ele><time>2026-04-04T08:30:53Z</time></trkpt><trkpt lat="45.86464705490064" lon="9.054813333145006"><ele>831.2</ele><time>2026-04-04T08:30:55Z</time></trkpt><trkpt lat="45.86474110365662" lon="9.054808139799604"><ele>833.0</ele><time>2026-04-04T08:30:57Z</time></trkpt><trkpt lat="45.86486519945116" lon="9.054804535646591"><ele>833.0000000000001</ele><time>2026-04-04T08:30:59Z</time></trkpt><trkpt lat="45.86493232074029" lon="9.054783995052002"><ele>833.0</ele><time>2026-04-04T08:31:00Z</time></trkpt><trkpt lat="45.86504611367228" lon="9.054796151980325"><ele>833.0</ele><time>2026-04-04T08:31:02Z</time></trkpt><trkpt lat="45.86511326981793" lon="9.054796957182601"><ele>833.0</ele><time>2026-04-04T08:31:04Z</time></trkpt><trkpt lat="45.865192885770945" lon="9.054749356131685"><ele>833.0000000000001</ele><time>2026-04-04T08:31:56Z</time></trkpt><trkpt lat="45.865261091284" lon="9.054766276680727"><ele>833.0</ele><time>2026-04-04T08:32:00Z</time></trkpt><trkpt lat="45.86535735084136" lon="9.054778175764831"><ele>836.5000000000001</ele><time>2026-04-04T08:32:03Z</time></trkpt><trkpt lat="45.86542686216134" lon="9.054778392173095"><ele>840.0</ele><time>2026-04-04T08:32:05Z</time></trkpt><trkpt lat="45.86549343763998" lon="9.05479943840108"><ele>843.5</ele><time>2026-04-04T08:32:07Z</time></trkpt><trkpt lat="45.86556216860417" lon="9.054871339383798"><ele>847.0</ele><time>2026-04-04T08:32:10Z</time></trkpt><trkpt lat="45.86566012308498" lon="9.054941525584272"><ele>850.5000000000001</ele><time>2026-04-04T08:32:12Z</time></trkpt><trkpt lat="45.865738565456354" lon="9.055024097797578"><ele>854.0</ele><time>2026-04-04T08:32:14Z</time></trkpt><trkpt lat="45.86583801448802" lon="9.05511880288084"><ele>854.0000000000001</ele><time>2026-04-04T08:32:16Z</time></trkpt><trkpt lat="45.86590780813389" lon="9.05512825509127"><ele>854.0</ele><time>2026-04-04T08:32:19Z</time></trkpt><trkpt lat="45.865887585048796" lon="9.055028728795975"><ele>854.0</ele><time>2026-04-04T08:32:26Z</time></trkpt><trkpt lat="45.86582913995056" lon="9.054962355792256"><ele>854.0</ele><time>2026-04-04T08:32:29Z</time></trkpt><trkpt lat="45.86577376508829" lon="9.05489643274594"><ele>854.0000000000001</ele><time>2026-04-04T08:32:31Z</time></trkpt><trkpt lat="45.86569270734204" lon="9.054828897866383"><ele>854.0</ele><time>2026-04-04T08:32:33Z</time></trkpt><trkpt lat="45.865631958291345" lon="9.054782368142753"><ele>854.1666666666667</ele><time>2026-04-04T08:32:34Z</time></trkpt><trkpt lat="45.86553580327806" lon="9.05472752883975"><ele>854.3333333333334</ele><time>2026-04-04T08:32:36Z</time></trkpt><trkpt lat="45.86545575538633" lon="9.054691285405713"><ele>854.5</ele><time>2026-04-04T08:32:38Z</time></trkpt><trkpt lat="45.865367187597194" lon="9.054672111620674"><ele>854.6666666666667</ele><time>2026-04-04T08:32:40Z</time></trkpt><trkpt lat="45.86527820080204" lon="9.054629295650857"><ele>854.8333333333334</ele><time>2026-04-04T08:32:42Z</time></trkpt><trkpt lat="45.865209131041546" lon="9.054581700682247"><ele>855.0</ele><time>2026-04-04T08:32:45Z</time></trkpt><trkpt lat="45.8651559172384" lon="9.054527730303292"><ele>851.3333333333334</ele><time>2026-04-04T08:32:47Z</time></trkpt><trkpt lat="45.86509237348938" lon="9.054497110465112"><ele>847.6666666666667</ele><time>2026-04-04T08:32:49Z</time></trkpt><trkpt lat="45.86503189474616" lon="9.054449640317477"><ele>844.0</ele><time>2026-04-04T08:32:52Z</time></trkpt><trkpt lat="45.86495872991347" lon="9.054386158990681"><ele>840.3333333333334</ele><time>2026-04-04T08:32:55Z</time></trkpt><trkpt lat="45.864855898745404" lon="9.054326098875766"><ele>836.6666666666667</ele><time>2026-04-04T08:32:57Z</time></trkpt><trkpt lat="45.86478990906182" lon="9.054315200202375"><ele>833.0</ele><time>2026-04-04T08:32:59Z</time></trkpt><trkpt lat="45.86465953004999" lon="9.054281728782867"><ele>833.0</ele><time>2026-04-04T08:33:01Z</time></trkpt><trkpt lat="45.86458552972891" lon="9.054307600979909"><ele>833.0</ele><time>2026-04-04T08:33:02Z</time></trkpt><trkpt lat="45.86447519968044" lon="9.05429057198813"><ele>833.0</ele><time>2026-04-04T08:33:05Z</time></trkpt><trkpt lat="45.86439792887587" lon="9.054284212680052"><ele>833.0</ele><time>2026-04-04T08:33:06Z</time></trkpt><trkpt lat="45.86432952747408" lon="9.05430684102271"><ele>833.0</ele><time>2026-04-04T08:33:07Z</time></trkpt><trkpt lat="45.86419238960665" lon="9.054294584614281"><ele>831.2</ele><time>2026-04-04T08:33:09Z</time></trkpt><trkpt lat="45.864056131706654" lon="9.05425600130597"><ele>829.4</ele><time>2026-04-04T08:33:11Z</time></trkpt><trkpt lat="45.86395225861649" lon="9.054263898472769"><ele>827.6</ele><time>2026-04-04T08:33:13Z</time></trkpt><trkpt lat="45.86386536221037" lon="9.054236998059404"><ele>825.8000000000001</ele><time>2026-04-04T08:33:15Z</time></trkpt><trkpt lat="45.86379970365549" lon="9.054228002174034"><ele>824.0</ele><time>2026-04-04T08:33:19Z</time></trkpt><trkpt lat="45.86373394983153" lon="9.054167521657039"><ele>825.6</ele><time>2026-04-04T08:33:21Z</time></trkpt><trkpt lat="45.863663485812594" lon="9.054065107855632"><ele>827.2</ele><time>2026-04-04T08:33:23Z</time></trkpt><trkpt lat="45.863579803552355" lon="9.053982625615046"><ele>828.8000000000001</ele><time>2026-04-04T08:33:25Z</time></trkpt><trkpt lat="45.8634937782763" lon="9.053932534529654"><ele>830.4000000000001</ele><time>2026-04-04T08:33:27Z</time></trkpt><trkpt lat="45.863415003557094" lon="9.05394773557728"><ele>832.0</ele><time>2026-04-04T08:33:29Z</time></trkpt><trkpt lat="45.8633415811061" lon="9.05389420307219"><ele>827.4999999999999</ele><time>2026-04-04T08:33:31Z</time></trkpt><trkpt lat="45.863294566366335" lon="9.053773264300625"><ele>823.0</ele><time>2026-04-04T08:33:33Z</time></trkpt><trkpt lat="45.86324469570129" lon="9.053698805849832"><ele>818.5</ele><time>2026-04-04T08:33:35Z</time></trkpt><trkpt lat="45.86318968746044" lon="9.053601614486041"><ele>814.0</ele><time>2026-04-04T08:33:38Z</time></trkpt><trkpt lat="45.86314693133783" lon="9.053511683387786"><ele>809.4999999999999</ele><time>2026-04-04T08:33:40Z</time></trkpt><trkpt lat="45.863100301164174" lon="9.053427040128698"><ele>805.0</ele><time>2026-04-04T08:33:42Z</time></trkpt><trkpt lat="45.86301703045486" lon="9.05339920246329"><ele>804.9999999999999</ele><time>2026-04-04T08:33:44Z</time></trkpt><trkpt lat="45.86292212016039" lon="9.053392097796893"><ele>805.0</ele><time>2026-04-04T08:33:46Z</time></trkpt><trkpt lat="45.86286524001529" lon="9.053431928779395"><ele>805.0</ele><time>2026-04-04T08:33:48Z</time></trkpt><trkpt lat="45.86279442502391" lon="9.053441425545993"><ele>805.0</ele><time>2026-04-04T08:33:50Z</time></trkpt><trkpt lat="45.86269615253983" lon="9.053458106228154"><ele>804.9999999999999</ele><time>2026-04-04T08:33:53Z</time></trkpt><trkpt lat="45.86263362268012" lon="9.053439648783693"><ele>805.0</ele><time>2026-04-04T08:33:54Z</time></trkpt><trkpt lat="45.86256678752783" lon="9.0533861325337"><ele>805.8333333333333</ele><time>2026-04-04T08:33:56Z</time></trkpt><trkpt lat="45.86250915267108" lon="9.053276741292112"><ele>806.6666666666666</ele><time>2026-04-04T08:33:58Z</time></trkpt><trkpt lat="45.86245737524832" lon="9.053212911802715"><ele>807.5</ele><time>2026-04-04T08:34:00Z</time></trkpt><trkpt lat="45.862359551120285" lon="9.053185723718203"><ele>808.3333333333333</ele><time>2026-04-04T08:34:02Z</time></trkpt><trkpt lat="45.86226698452799" lon="9.053163760946259"><ele>809.1666666666666</ele><time>2026-04-04T08:34:04Z</time></trkpt><trkpt lat="45.862189324381276" lon="9.053162241715349"><ele>810.0</ele><time>2026-04-04T08:34:07Z</time></trkpt><trkpt lat="45.86211914295758" lon="9.053115503639903"><ele>810.0</ele><time>2026-04-04T08:34:10Z</time></trkpt><trkpt lat="45.8620546182204" lon="9.053084755012454"><ele>810.0</ele><time>2026-04-04T08:34:13Z</time></trkpt><trkpt lat="45.86199568001466" lon="9.053048538571822"><ele>810.0</ele><time>2026-04-04T08:34:16Z</time></trkpt><trkpt lat="45.86191556649129" lon="9.053147117664722"><ele>810.0</ele><time>2026-04-04T08:34:46Z</time></trkpt><trkpt lat="45.8618587220098" lon="9.05319345220394"><ele>810.0</ele><time>2026-04-04T08:34:50Z</time></trkpt><trkpt lat="45.86181655989058" lon="9.053262126233223"><ele>810.0</ele><time>2026-04-04T08:34:55Z</time></trkpt><trkpt lat="45.86172496540942" lon="9.053272231171569"><ele>805.2857142857142</ele><time>2026-04-04T08:34:58Z</time></trkpt><trkpt lat="45.861659127404245" lon="9.053337272206809"><ele>800.5714285714286</ele><time>2026-04-04T08:35:01Z</time></trkpt><trkpt lat="45.86158172174549" lon="9.053379169699499"><ele>795.8571428571429</ele><time>2026-04-04T08:35:04Z</time></trkpt><trkpt lat="45.86152919141687" lon="9.053434337742928"><ele>791.1428571428571</ele><time>2026-04-04T08:35:08Z</time></trkpt><trkpt lat="45.861473927874094" lon="9.053480519064802"><ele>786.4285714285714</ele><time>2026-04-04T08:35:16Z</time></trkpt><trkpt lat="45.86139758202576" lon="9.053500180017366"><ele>781.7142857142857</ele><time>2026-04-04T08:35:20Z</time></trkpt><trkpt lat="45.86132984475453" lon="9.053508641219155"><ele>777.0</ele><time>2026-04-04T08:35:23Z</time></trkpt><trkpt lat="45.86123077432191" lon="9.053527683767182"><ele>777.0</ele><time>2026-04-04T08:35:38Z</time></trkpt><trkpt lat="45.86114958464625" lon="9.053494656905148"><ele>777.0</ele><time>2026-04-04T08:35:41Z</time></trkpt><trkpt lat="45.861100820525536" lon="9.053390804209952"><ele>777.0</ele><time>2026-04-04T08:35:43Z</time></trkpt><trkpt lat="45.8611086711796" lon="9.053298757972282"><ele>777.0</ele><time>2026-04-04T08:35:46Z</time></trkpt><trkpt lat="45.861006906821245" lon="9.05325592457516"><ele>777.0</ele><time>2026-04-04T08:36:07Z</time></trkpt><trkpt lat="45.86106464999264" lon="9.053175170736628"><ele>777.0</ele><time>2026-04-04T08:36:11Z</time></trkpt><trkpt lat="45.86110122527628" lon="9.05310104234806"><ele>780.8333333333334</ele><time>2026-04-04T08:36:14Z</time></trkpt><trkpt lat="45.861148308793716" lon="9.05299517044101"><ele>784.6666666666667</ele><time>2026-04-04T08:36:16Z</time></trkpt><trkpt lat="45.86108230851396" lon="9.052955852507424"><ele>788.5</ele><time>2026-04-04T08:36:19Z</time></trkpt><trkpt lat="45.86100661891007" lon="9.052896448167392"><ele>792.3333333333334</ele><time>2026-04-04T08:36:21Z</time></trkpt><trkpt lat="45.86092397054529" lon="9.052850893471406"><ele>796.1666666666667</ele><time>2026-04-04T08:36:23Z</time></trkpt><trkpt lat="45.86083727407467" lon="9.052805287068427"><ele>800.0</ele><time>2026-04-04T08:36:26Z</time></trkpt><trkpt lat="45.86075439434859" lon="9.052761878097154"><ele>800.2</ele><time>2026-04-04T08:36:29Z</time></trkpt><trkpt lat="45.86068569375236" lon="9.052684810786511"><ele>800.4</ele><time>2026-04-04T08:36:31Z</time></trkpt><trkpt lat="45.86063597950548" lon="9.05259395864711"><ele>800.5999999999999</ele><time>2026-04-04T08:36:34Z</time></trkpt><trkpt lat="45.860555113184994" lon="9.052493732413035"><ele>800.8</ele><time>2026-04-04T08:36:36Z</time></trkpt><trkpt lat="45.86048050108702" lon="9.05242895444068"><ele>801.0</ele><time>2026-04-04T08:36:38Z</time></trkpt><trkpt lat="45.86039206575524" lon="9.052404576271103"><ele>807.8</ele><time>2026-04-04T08:36:40Z</time></trkpt><trkpt lat="45.86034346910027" lon="9.052306715962604"><ele>814.5999999999999</ele><time>2026-04-04T08:36:42Z</time></trkpt><trkpt lat="45.860248274253905" lon="9.052233718930252"><ele>821.4</ele><time>2026-04-04T08:36:44Z</time></trkpt><trkpt lat="45.86018195555206" lon="9.052177137989386"><ele>828.2</ele><time>2026-04-04T08:36:46Z</time></trkpt><trkpt lat="45.860090503037135" lon="9.052091549578373"><ele>835.0</ele><time>2026-04-04T08:36:48Z</time></trkpt><trkpt lat="45.86001250997001" lon="9.05207604123708"><ele>834.9999999999999</ele><time>2026-04-04T08:36:50Z</time></trkpt><trkpt lat="45.85992648648013" lon="9.052084638308996"><ele>835.0</ele><time>2026-04-04T08:36:52Z</time></trkpt><trkpt lat="45.85984388937382" lon="9.052047030720008"><ele>835.0</ele><time>2026-04-04T08:36:54Z</time></trkpt><trkpt lat="45.85975971365841" lon="9.052018919602059"><ele>835.0</ele><time>2026-04-04T08:36:56Z</time></trkpt><trkpt lat="45.85974264244164" lon="9.051928320509129"><ele>834.9999999999999</ele><time>2026-04-04T08:37:00Z</time></trkpt><trkpt lat="45.85980454067167" lon="9.051846464141553"><ele>835.0</ele><time>2026-04-04T08:37:02Z</time></trkpt><trkpt lat="45.859848159721324" lon="9.051722501448918"><ele>834.9999999999999</ele><time>2026-04-04T08:37:04Z</time></trkpt><trkpt lat="45.85992177357249" lon="9.051663459329637"><ele>835.0</ele><time>2026-04-04T08:37:06Z</time></trkpt><trkpt lat="45.859998988324655" lon="9.051583562716155"><ele>835.0</ele><time>2026-04-04T08:37:08Z</time></trkpt><trkpt lat="45.86006345764955" lon="9.051518017550498"><ele>835.0</ele><time>2026-04-04T08:37:10Z</time></trkpt><trkpt lat="45.860127536325564" lon="9.051476341314828"><ele>834.9999999999999</ele><time>2026-04-04T08:37:12Z</time></trkpt><trkpt lat="45.86022249857645" lon="9.051446224250348"><ele>835.0</ele><time>2026-04-04T08:37:14Z</time></trkpt><trkpt lat="45.860304637403495" lon="9.051439428713001"><ele>839.8571428571429</ele><time>2026-04-04T08:37:16Z</time></trkpt><trkpt lat="45.860370270050836" lon="9.05139488528725"><ele>844.7142857142858</ele><time>2026-04-04T08:37:18Z</time></trkpt><trkpt lat="45.86043395069747" lon="9.051373813858733"><ele>849.5714285714287</ele><time>2026-04-04T08:37:21Z</time></trkpt><trkpt lat="45.860499354726365" lon="9.051332423543894"><ele>854.4285714285714</ele><time>2026-04-04T08:37:23Z</time></trkpt><trkpt lat="45.86054457699695" lon="9.05125254079536"><ele>859.2857142857142</ele><time>2026-04-04T08:37:25Z</time></trkpt><trkpt lat="45.86059578627824" lon="9.051188781832376"><ele>864.1428571428572</ele><time>2026-04-04T08:37:26Z</time></trkpt><trkpt lat="45.86066338661005" lon="9.051167447822367"><ele>869.0</ele><time>2026-04-04T08:37:28Z</time></trkpt><trkpt lat="45.86074347606073" lon="9.051125574879743"><ele>869.0</ele><time>2026-04-04T08:37:30Z</time></trkpt><trkpt lat="45.860853170250486" lon="9.051111755095087"><ele>869.0000000000001</ele><time>2026-04-04T08:37:32Z</time></trkpt><trkpt lat="45.86093815362654" lon="9.051062484835887"><ele>869.0000000000001</ele><time>2026-04-04T08:37:35Z</time></trkpt><trkpt lat="45.86100559597223" lon="9.051010214147892"><ele>869.0</ele><time>2026-04-04T08:37:37Z</time></trkpt><trkpt lat="45.86108516152233" lon="9.050944190348964"><ele>869.0</ele><time>2026-04-04T08:37:39Z</time></trkpt><trkpt lat="45.86115364748318" lon="9.050884336408261"><ele>874.6</ele><time>2026-04-04T08:37:41Z</time></trkpt><trkpt lat="45.86122437300069" lon="9.050783239917195"><ele>880.2</ele><time>2026-04-04T08:37:43Z</time></trkpt><trkpt lat="45.8613027227935" lon="9.050698847553829"><ele>885.8000000000001</ele><time>2026-04-04T08:37:45Z</time></trkpt><trkpt lat="45.86136552642136" lon="9.05065112784931"><ele>891.4000000000001</ele><time>2026-04-04T08:37:47Z</time></trkpt><trkpt lat="45.86145319248071" lon="9.050546040956753"><ele>897.0</ele><time>2026-04-04T08:37:49Z</time></trkpt><trkpt lat="45.861517330023474" lon="9.050472629657197"><ele>897.0</ele><time>2026-04-04T08:37:51Z</time></trkpt><trkpt lat="45.86158076958003" lon="9.050466816015224"><ele>897.0</ele><time>2026-04-04T08:37:53Z</time></trkpt><trkpt lat="45.86165091050558" lon="9.050525855145718"><ele>897.0</ele><time>2026-04-04T08:37:55Z</time></trkpt><trkpt lat="45.86171591282352" lon="9.050584935972257"><ele>897.0</ele><time>2026-04-04T08:37:57Z</time></trkpt><trkpt lat="45.86179843391502" lon="9.050562591383498"><ele>897.0</ele><time>2026-04-04T08:37:59Z</time></trkpt><trkpt lat="45.8618859072978" lon="9.05051363277435"><ele>897.0</ele><time>2026-04-04T08:38:01Z</time></trkpt><trkpt lat="45.86195464387955" lon="9.05042865687347"><ele>897.3333333333334</ele><time>2026-04-04T08:38:03Z</time></trkpt><trkpt lat="45.86204421327122" lon="9.05036619216212"><ele>897.6666666666667</ele><time>2026-04-04T08:38:05Z</time></trkpt><trkpt lat="45.8620999985871" lon="9.050322105187666"><ele>898.0</ele><time>2026-04-04T08:38:06Z</time></trkpt><trkpt lat="45.86215504690066" lon="9.05027528224531"><ele>898.3333333333334</ele><time>2026-04-04T08:38:07Z</time></trkpt><trkpt lat="45.862252976141065" lon="9.05022159244738"><ele>898.6666666666667</ele><time>2026-04-04T08:38:09Z</time></trkpt><trkpt lat="45.8623133564876" lon="9.050161480319288"><ele>899.0</ele><time>2026-04-04T08:38:11Z</time></trkpt><trkpt lat="45.862427588754386" lon="9.05010678917224"><ele>899.0000000000001</ele><time>2026-04-04T08:38:13Z</time></trkpt><trkpt lat="45.862499610478324" lon="9.050006576077193"><ele>899.0</ele><time>2026-04-04T08:38:15Z</time></trkpt><trkpt lat="45.862560136458214" lon="9.049950876888188"><ele>899.0</ele><time>2026-04-04T08:38:17Z</time></trkpt><trkpt lat="45.86265066221883" lon="9.049900856272354"><ele>899.0</ele><time>2026-04-04T08:38:19Z</time></trkpt><trkpt lat="45.86272556294214" lon="9.04995658202524"><ele>899.0000000000001</ele><time>2026-04-04T08:38:21Z</time></trkpt><trkpt lat="45.86277261335584" lon="9.050064647610904"><ele>899.0</ele><time>2026-04-04T08:38:23Z</time></trkpt><trkpt lat="45.8628243201015" lon="9.050172982740603"><ele>903.1666666666667</ele><time>2026-04-04T08:38:25Z</time></trkpt><trkpt lat="45.86288023323396" lon="9.050247391866947"><ele>907.3333333333334</ele><time>2026-04-04T08:38:27Z</time></trkpt><trkpt lat="45.86294558680966" lon="9.0503580264466"><ele>911.5</ele><time>2026-04-04T08:38:30Z</time></trkpt><trkpt lat="45.863007863591555" lon="9.050434958713057"><ele>915.6666666666667</ele><time>2026-04-04T08:38:32Z</time></trkpt><trkpt lat="45.86306928639612" lon="9.050480162141053"><ele>919.8333333333334</ele><time>2026-04-04T08:38:34Z</time></trkpt><trkpt lat="45.86315093381563" lon="9.050472286030876"><ele>924.0</ele><time>2026-04-04T08:38:36Z</time></trkpt><trkpt lat="45.863230311237395" lon="9.050496544773987"><ele>924.0</ele><time>2026-04-04T08:38:39Z</time></trkpt><trkpt lat="45.86329659786469" lon="9.050489193206355"><ele>924.0</ele><time>2026-04-04T08:38:41Z</time></trkpt><trkpt lat="45.863382195521886" lon="9.050493245504457"><ele>924.0</ele><time>2026-04-04T08:38:43Z</time></trkpt><trkpt lat="45.863471742555376" lon="9.050480024034107"><ele>924.0</ele><time>2026-04-04T08:38:45Z</time></trkpt><trkpt lat="45.86356201108982" lon="9.050456823858054"><ele>924.0</ele><time>2026-04-04T08:38:47Z</time></trkpt><trkpt lat="45.863621899315255" lon="9.050428352919141"><ele>924.0</ele><time>2026-04-04T08:38:49Z</time></trkpt><trkpt lat="45.86358769726105" lon="9.050326398540895"><ele>928.6666666666666</ele><time>2026-04-04T08:38:53Z</time></trkpt><trkpt lat="45.863531815569225" lon="9.050205504088604"><ele>933.3333333333333</ele><time>2026-04-04T08:38:56Z</time></trkpt><trkpt lat="45.863613748085136" lon="9.05018417096265"><ele>938.0</ele><time>2026-04-04T08:39:04Z</time></trkpt><trkpt lat="45.8636773896281" lon="9.050205687595426"><ele>942.6666666666666</ele><time>2026-04-04T08:39:06Z</time></trkpt><trkpt lat="45.863752339377974" lon="9.050216323750059"><ele>947.3333333333333</ele><time>2026-04-04T08:39:08Z</time></trkpt><trkpt lat="45.863833837156434" lon="9.050211635420084"><ele>952.0</ele><time>2026-04-04T08:39:10Z</time></trkpt><trkpt lat="45.86391940920644" lon="9.05026178314713"><ele>951.9999999999999</ele><time>2026-04-04T08:39:12Z</time></trkpt><trkpt lat="45.86398160093355" lon="9.050284609537341"><ele>952.0</ele><time>2026-04-04T08:39:13Z</time></trkpt><trkpt lat="45.864070610519946" lon="9.0503012388382"><ele>952.0</ele><time>2026-04-04T08:39:15Z</time></trkpt><trkpt lat="45.86416644804664" lon="9.050308437386382"><ele>952.0</ele><time>2026-04-04T08:39:17Z</time></trkpt><trkpt lat="45.86425356536462" lon="9.050311796704731"><ele>951.9999999999999</ele><time>2026-04-04T08:39:19Z</time></trkpt><trkpt lat="45.86434609615575" lon="9.050304599573533"><ele>952.0</ele><time>2026-04-04T08:39:21Z</time></trkpt><trkpt lat="45.864447607885836" lon="9.050322984468135"><ele>957.4000000000001</ele><time>2026-04-04T08:39:23Z</time></trkpt><trkpt lat="45.86453792173636" lon="9.050396755550857"><ele>962.8000000000001</ele><time>2026-04-04T08:39:25Z</time></trkpt><trkpt lat="45.86463121065967" lon="9.050513411406952"><ele>968.2</ele><time>2026-04-04T08:39:27Z</time></trkpt><trkpt lat="45.8646707868879" lon="9.0506087076427"><ele>973.6</ele><time>2026-04-04T08:39:29Z</time></trkpt><trkpt lat="45.86474469692254" lon="9.050716146982914"><ele>979.0</ele><time>2026-04-04T08:39:31Z</time></trkpt><trkpt lat="45.864822746293285" lon="9.05077727440762"><ele>978.8000000000001</ele><time>2026-04-04T08:39:33Z</time></trkpt><trkpt lat="45.864901478255355" lon="9.050817243280262"><ele>978.6000000000001</ele><time>2026-04-04T08:39:35Z</time></trkpt><trkpt lat="45.86499313093088" lon="9.050848593743519"><ele>978.4</ele><time>2026-04-04T08:39:37Z</time></trkpt><trkpt lat="45.865086902128866" lon="9.050885118875915"><ele>978.2</ele><time>2026-04-04T08:39:39Z</time></trkpt><trkpt lat="45.86518705761839" lon="9.05094031476825"><ele>978.0</ele><time>2026-04-04T08:39:41Z</time></trkpt><trkpt lat="45.865291517562575" lon="9.050963860311228"><ele>978.0</ele><time>2026-04-04T08:39:43Z</time></trkpt><trkpt lat="45.86539750348301" lon="9.050975745040537"><ele>978.0</ele><time>2026-04-04T08:39:45Z</time></trkpt><trkpt lat="45.86548072833729" lon="9.051001986338623"><ele>978.0</ele><time>2026-04-04T08:39:47Z</time></trkpt><trkpt lat="45.86557928188834" lon="9.05103476312237"><ele>978.0</ele><time>2026-04-04T08:39:49Z</time></trkpt><trkpt lat="45.8656771132284" lon="9.051088467579492"><ele>978.0</ele><time>2026-04-04T08:39:51Z</time></trkpt><trkpt lat="45.86578812300501" lon="9.051132594332522"><ele>978.0</ele><time>2026-04-04T08:39:53Z</time></trkpt><trkpt lat="45.865876311408364" lon="9.051197933738019"><ele>978.0</ele><time>2026-04-04T08:39:55Z</time></trkpt><trkpt lat="45.86593042651839" lon="9.051246244860238"><ele>978.0</ele><time>2026-04-04T08:39:56Z</time></trkpt><trkpt lat="45.8659901883882" lon="9.051296462388287"><ele>978.0</ele><time>2026-04-04T08:39:57Z</time></trkpt><trkpt lat="45.866080345180215" lon="9.05138874976424"><ele>978.0</ele><time>2026-04-04T08:39:59Z</time></trkpt><trkpt lat="45.86614202984209" lon="9.051506751812711"><ele>978.0</ele><time>2026-04-04T08:40:01Z</time></trkpt><trkpt lat="45.86620613542719" lon="9.051601649716568"><ele>978.8</ele><time>2026-04-04T08:40:03Z</time></trkpt><trkpt lat="45.866290576034956" lon="9.051683639891477"><ele>979.5999999999999</ele><time>2026-04-04T08:40:05Z</time></trkpt><trkpt lat="45.86633869005491" lon="9.051745209649104"><ele>980.4000000000001</ele><time>2026-04-04T08:40:06Z</time></trkpt><trkpt lat="45.86641098429313" lon="9.05183661737891"><ele>981.2</ele><time>2026-04-04T08:40:08Z</time></trkpt><trkpt lat="45.86648710168671" lon="9.051883861496885"><ele>982.0</ele><time>2026-04-04T08:40:10Z</time></trkpt><trkpt lat="45.86658847091239" lon="9.051918265906544"><ele>982.0</ele><time>2026-04-04T08:40:12Z</time></trkpt><trkpt lat="45.86669577508296" lon="9.051938532519193"><ele>982.0</ele><time>2026-04-04T08:40:14Z</time></trkpt><trkpt lat="45.86678335939899" lon="9.051902159624937"><ele>982.0</ele><time>2026-04-04T08:40:16Z</time></trkpt><trkpt lat="45.866859077103335" lon="9.051806610690578"><ele>982.0</ele><time>2026-04-04T08:40:18Z</time></trkpt><trkpt lat="45.86693060037135" lon="9.051743459077732"><ele>982.0</ele><time>2026-04-04T08:40:20Z</time></trkpt><trkpt lat="45.867003713125484" lon="9.051684136618785"><ele>986.8</ele><time>2026-04-04T08:40:22Z</time></trkpt><trkpt lat="45.86709889180657" lon="9.051654592900162"><ele>991.6</ele><time>2026-04-04T08:40:24Z</time></trkpt><trkpt lat="45.86718880825251" lon="9.051604186367083"><ele>996.3999999999999</ele><time>2026-04-04T08:40:26Z</time></trkpt><trkpt lat="45.867271994228304" lon="9.051688497733073"><ele>1001.1999999999999</ele><time>2026-04-04T08:40:28Z</time></trkpt><trkpt lat="45.86733420263829" lon="9.051783617071369"><ele>1006.0</ele><time>2026-04-04T08:40:30Z</time></trkpt><trkpt lat="45.86742711107004" lon="9.051851715848196"><ele>1006.0</ele><time>2026-04-04T08:40:32Z</time></trkpt><trkpt lat="45.867512170133566" lon="9.051909330636057"><ele>1005.9999999999999</ele><time>2026-04-04T08:40:34Z</time></trkpt><trkpt lat="45.867599631187424" lon="9.05200193576582"><ele>1005.9999999999999</ele><time>2026-04-04T08:40:36Z</time></trkpt><trkpt lat="45.86768124414541" lon="9.05207001695755"><ele>1006.0</ele><time>2026-04-04T08:40:38Z</time></trkpt><trkpt lat="45.86773616991426" lon="9.052150955276108"><ele>1006.0</ele><time>2026-04-04T08:40:40Z</time></trkpt><trkpt lat="45.8677856082796" lon="9.052239627747074"><ele>1008.5999999999999</ele><time>2026-04-04T08:40:59Z</time></trkpt><trkpt lat="45.867850720159055" lon="9.0523757832367"><ele>1011.1999999999999</ele><time>2026-04-04T08:41:02Z</time></trkpt><trkpt lat="45.86787993980517" lon="9.052464755016588"><ele>1013.8000000000001</ele><time>2026-04-04T08:41:03Z</time></trkpt><trkpt lat="45.86790415821868" lon="9.052569470167327"><ele>1016.4000000000001</ele><time>2026-04-04T08:41:04Z</time></trkpt><trkpt lat="45.86793782933275" lon="9.052661466562837"><ele>1019.0</ele><time>2026-04-04T08:41:05Z</time></trkpt><trkpt lat="45.86799883888801" lon="9.052809665540495"><ele>1019.0000000000001</ele><time>2026-04-04T08:41:07Z</time></trkpt><trkpt lat="45.868032279483344" lon="9.052961252626723"><ele>1019.0</ele><time>2026-04-04T08:41:09Z</time></trkpt><trkpt lat="45.86805152824981" lon="9.053052314486695"><ele>1019.0</ele><time>2026-04-04T08:41:10Z</time></trkpt><trkpt lat="45.868074461931926" lon="9.053161813259997"><ele>1019.0</ele><time>2026-04-04T08:41:11Z</time></trkpt><trkpt lat="45.868109346116036" lon="9.05324668343044"><ele>1019.0000000000001</ele><time>2026-04-04T08:41:12Z</time></trkpt><trkpt lat="45.86818080744784" lon="9.05336615023737"><ele>1019.0</ele><time>2026-04-04T08:41:14Z</time></trkpt><trkpt lat="45.86826504214219" lon="9.053378678593175"><ele>1019.0000000000001</ele><time>2026-04-04T08:41:16Z</time></trkpt><trkpt lat="45.868325140029" lon="9.05330664690829"><ele>1019.0</ele><time>2026-04-04T08:41:18Z</time></trkpt><trkpt lat="45.868394208362105" lon="9.053261868684134"><ele>1019.0</ele><time>2026-04-04T08:41:19Z</time></trkpt><trkpt lat="45.86842244999035" lon="9.053139860796184"><ele>1019.0</ele><time>2026-04-04T08:41:20Z</time></trkpt><trkpt lat="45.86849628758694" lon="9.053146112072854"><ele>1019.0000000000001</ele><time>2026-04-04T08:41:22Z</time></trkpt><trkpt lat="45.86857568554258" lon="9.05307561309139"><ele>1019.0</ele><time>2026-04-04T08:41:24Z</time></trkpt><trkpt lat="45.86864598453231" lon="9.052985823975131"><ele>1021.3333333333334</ele><time>2026-04-04T08:41:26Z</time></trkpt><trkpt lat="45.868749703229845" lon="9.052931556089133"><ele>1023.6666666666667</ele><time>2026-04-04T08:41:28Z</time></trkpt><trkpt lat="45.86880365673649" lon="9.052875415180113"><ele>1026.0</ele><time>2026-04-04T08:41:29Z</time></trkpt><trkpt lat="45.8688602539179" lon="9.052832886888332"><ele>1028.3333333333333</ele><time>2026-04-04T08:41:30Z</time></trkpt><trkpt lat="45.868929104823" lon="9.0527926242889"><ele>1030.6666666666665</ele><time>2026-04-04T08:41:31Z</time></trkpt><trkpt lat="45.869057258265215" lon="9.052753836116215"><ele>1033.0</ele><time>2026-04-04T08:41:33Z</time></trkpt><trkpt lat="45.869153741965384" lon="9.052732460535065"><ele>1033.0</ele><time>2026-04-04T08:41:34Z</time></trkpt><trkpt lat="45.86924620042749" lon="9.052711287736283"><ele>1033.0</ele><time>2026-04-04T08:41:35Z</time></trkpt><trkpt lat="45.86932495096035" lon="9.05271243356024"><ele>1033.0</ele><time>2026-04-04T08:41:36Z</time></trkpt><trkpt lat="45.869408828742515" lon="9.052726893869115"><ele>1033.0</ele><time>2026-04-04T08:41:37Z</time></trkpt><trkpt lat="45.86950622225682" lon="9.052726377284344"><ele>1033.0</ele><time>2026-04-04T08:41:38Z</time></trkpt><trkpt lat="45.86958427184208" lon="9.0527721661311"><ele>1033.0</ele><time>2026-04-04T08:41:39Z</time></trkpt><trkpt lat="45.86965300106485" lon="9.052798845139488"><ele>1032.0</ele><time>2026-04-04T08:41:40Z</time></trkpt><trkpt lat="45.8697205142559" lon="9.05286791737847"><ele>1031.0</ele><time>2026-04-04T08:41:41Z</time></trkpt><trkpt lat="45.86980034583334" lon="9.053026359850607"><ele>1030.0</ele><time>2026-04-04T08:41:43Z</time></trkpt><trkpt lat="45.86984756449302" lon="9.053100205844505"><ele>1029.0</ele><time>2026-04-04T08:41:44Z</time></trkpt><trkpt lat="45.869903550605194" lon="9.053170145223618"><ele>1028.0</ele><time>2026-04-04T08:41:45Z</time></trkpt><trkpt lat="45.86996325363003" lon="9.05331754270522"><ele>1028.0</ele><time>2026-04-04T08:41:47Z</time></trkpt><trkpt lat="45.870022623803166" lon="9.05338608097689"><ele>1028.0</ele><time>2026-04-04T08:41:48Z</time></trkpt><trkpt lat="45.87007909327056" lon="9.05350958126416"><ele>1028.0</ele><time>2026-04-04T08:41:50Z</time></trkpt><trkpt lat="45.87021820557235" lon="9.053590107781273"><ele>1028.0</ele><time>2026-04-04T08:41:52Z</time></trkpt><trkpt lat="45.87029275459981" lon="9.053627554041784"><ele>1028.0</ele><time>2026-04-04T08:41:53Z</time></trkpt><trkpt lat="45.87037228425935" lon="9.053672283735985"><ele>1034.1666666666667</ele><time>2026-04-04T08:41:54Z</time></trkpt><trkpt lat="45.87044353968395" lon="9.053722707355703"><ele>1040.3333333333335</ele><time>2026-04-04T08:41:55Z</time></trkpt><trkpt lat="45.87050843589185" lon="9.053781674138268"><ele>1046.5</ele><time>2026-04-04T08:41:56Z</time></trkpt><trkpt lat="45.87057739020061" lon="9.053828085144668"><ele>1052.6666666666667</ele><time>2026-04-04T08:41:57Z</time></trkpt><trkpt lat="45.87065253113843" lon="9.05389904482537"><ele>1058.8333333333333</ele><time>2026-04-04T08:41:58Z</time></trkpt><trkpt lat="45.870722203800966" lon="9.053956817347094"><ele>1065.0</ele><time>2026-04-04T08:41:59Z</time></trkpt><trkpt lat="45.870789591795386" lon="9.053995899410115"><ele>1065.0</ele><time>2026-04-04T08:42:00Z</time></trkpt><trkpt lat="45.8708381840503" lon="9.054060369892012"><ele>1065.0</ele><time>2026-04-04T08:42:01Z</time></trkpt><trkpt lat="45.87094240442123" lon="9.054126463511103"><ele>1065.0</ele><time>2026-04-04T08:42:03Z</time></trkpt><trkpt lat="45.871048653696555" lon="9.054162149585528"><ele>1065.0</ele><time>2026-04-04T08:42:05Z</time></trkpt><trkpt lat="45.871123750714034" lon="9.05419901098361"><ele>1065.0</ele><time>2026-04-04T08:42:07Z</time></trkpt><trkpt lat="45.87120823601736" lon="9.054230777306703"><ele>1056.5</ele><time>2026-04-04T08:42:09Z</time></trkpt><trkpt lat="45.87131879588572" lon="9.054269605114614"><ele>1048.0</ele><time>2026-04-04T08:42:11Z</time></trkpt><trkpt lat="45.87143617853592" lon="9.054259583032788"><ele>1039.5</ele><time>2026-04-04T08:42:13Z</time></trkpt><trkpt lat="45.87154360453016" lon="9.054204152364767"><ele>1031.0</ele><time>2026-04-04T08:42:15Z</time></trkpt><trkpt lat="45.87166311148537" lon="9.05413192539065"><ele>1036.2857142857142</ele><time>2026-04-04T08:42:17Z</time></trkpt><trkpt lat="45.871735483446635" lon="9.054101284597346"><ele>1041.5714285714284</ele><time>2026-04-04T08:42:18Z</time></trkpt><trkpt lat="45.871799909703896" lon="9.054078611226979"><ele>1046.857142857143</ele><time>2026-04-04T08:42:19Z</time></trkpt><trkpt lat="45.87187387835858" lon="9.05403956962907"><ele>1052.142857142857</ele><time>2026-04-04T08:42:20Z</time></trkpt><trkpt lat="45.87193894756431" lon="9.053980610202364"><ele>1057.4285714285716</ele><time>2026-04-04T08:42:21Z</time></trkpt><trkpt lat="45.87200597112452" lon="9.05394513553153"><ele>1062.7142857142858</ele><time>2026-04-04T08:42:22Z</time></trkpt><trkpt lat="45.87208280424419" lon="9.053920313585689"><ele>1068.0</ele><time>2026-04-04T08:42:23Z</time></trkpt><trkpt lat="45.87216435012298" lon="9.053936292468636"><ele>1068.0</ele><time>2026-04-04T08:42:24Z</time></trkpt><trkpt lat="45.87223909037887" lon="9.053946882189061"><ele>1068.0</ele><time>2026-04-04T08:42:25Z</time></trkpt><trkpt lat="45.87231212732895" lon="9.053937967840769"><ele>1068.0</ele><time>2026-04-04T08:42:26Z</time></trkpt><trkpt lat="45.87239551300598" lon="9.053917286086007"><ele>1068.0</ele><time>2026-04-04T08:42:27Z</time></trkpt><trkpt lat="45.872471493177706" lon="9.053933139664025"><ele>1068.0</ele><time>2026-04-04T08:42:28Z</time></trkpt><trkpt lat="45.87254789011233" lon="9.053930347192082"><ele>1068.0</ele><time>2026-04-04T08:42:29Z</time></trkpt><trkpt lat="45.87262939410345" lon="9.053925645057049"><ele>1069.8333333333333</ele><time>2026-04-04T08:42:30Z</time></trkpt><trkpt lat="45.87270477319966" lon="9.05394575662388"><ele>1071.6666666666667</ele><time>2026-04-04T08:42:31Z</time></trkpt><trkpt lat="45.872787013427555" lon="9.05395897125858"><ele>1073.5</ele><time>2026-04-04T08:42:32Z</time></trkpt><trkpt lat="45.872864897285694" lon="9.05394240434168"><ele>1075.3333333333335</ele><time>2026-04-04T08:42:33Z</time></trkpt><trkpt lat="45.87293673596426" lon="9.053890045480038"><ele>1077.1666666666667</ele><time>2026-04-04T08:42:34Z</time></trkpt><trkpt lat="45.873015337962286" lon="9.053918804168157"><ele>1079.0</ele><time>2026-04-04T08:42:35Z</time></trkpt><trkpt lat="45.87308537800956" lon="9.053935335199466"><ele>1079.0</ele><time>2026-04-04T08:42:36Z</time></trkpt><trkpt lat="45.873158087063295" lon="9.053923497464853"><ele>1079.0</ele><time>2026-04-04T08:42:37Z</time></trkpt><trkpt lat="45.87323609047852" lon="9.053921705264566"><ele>1079.0</ele><time>2026-04-04T08:42:38Z</time></trkpt><trkpt lat="45.87330085462388" lon="9.053953147148535"><ele>1079.0</ele><time>2026-04-04T08:42:39Z</time></trkpt><trkpt lat="45.873372786807444" lon="9.053992586425542"><ele>1079.0</ele><time>2026-04-04T08:42:40Z</time></trkpt><trkpt lat="45.87345176469153" lon="9.054016516089424"><ele>1079.0</ele><time>2026-04-04T08:42:41Z</time></trkpt><trkpt lat="45.873517223935984" lon="9.054052731058723"><ele>1079.0</ele><time>2026-04-04T08:42:42Z</time></trkpt><trkpt lat="45.873653544545625" lon="9.054147039350712"><ele>1077.1666666666667</ele><time>2026-04-04T08:42:44Z</time></trkpt><trkpt lat="45.873729461153495" lon="9.054196223176659"><ele>1075.3333333333335</ele><time>2026-04-04T08:42:45Z</time></trkpt><trkpt lat="45.87379252491481" lon="9.054247625425868"><ele>1073.5</ele><time>2026-04-04T08:42:46Z</time></trkpt><trkpt lat="45.87385023425713" lon="9.054286070627214"><ele>1071.6666666666667</ele><time>2026-04-04T08:42:47Z</time></trkpt><trkpt lat="45.87392663327042" lon="9.054337998990793"><ele>1069.8333333333333</ele><time>2026-04-04T08:42:48Z</time></trkpt><trkpt lat="45.87401052686866" lon="9.054400280937784"><ele>1068.0</ele><time>2026-04-04T08:42:49Z</time></trkpt><trkpt lat="45.874085626874965" lon="9.054465560655595"><ele>1068.0</ele><time>2026-04-04T08:42:50Z</time></trkpt><trkpt lat="45.87415188160752" lon="9.054553551937483"><ele>1068.0</ele><time>2026-04-04T08:42:51Z</time></trkpt><trkpt lat="45.87421064783945" lon="9.054594532239609"><ele>1068.0</ele><time>2026-04-04T08:42:52Z</time></trkpt><trkpt lat="45.87426231794122" lon="9.05465964893484"><ele>1068.0</ele><time>2026-04-04T08:42:53Z</time></trkpt><trkpt lat="45.874348144069316" lon="9.05473885209414"><ele>1068.0</ele><time>2026-04-04T08:42:55Z</time></trkpt><trkpt lat="45.8744039670832" lon="9.054802617937682"><ele>1068.0</ele><time>2026-04-04T08:42:56Z</time></trkpt><trkpt lat="45.874462731723234" lon="9.054862577839211"><ele>1070.3333333333333</ele><time>2026-04-04T08:42:57Z</time></trkpt><trkpt lat="45.8745206373364" lon="9.054919755479439"><ele>1072.6666666666667</ele><time>2026-04-04T08:42:58Z</time></trkpt><trkpt lat="45.87460164906206" lon="9.055019543003496"><ele>1075.0</ele><time>2026-04-04T08:43:00Z</time></trkpt><trkpt lat="45.874639627597794" lon="9.05510448370687"><ele>1077.3333333333335</ele><time>2026-04-04T08:43:01Z</time></trkpt><trkpt lat="45.87470137275967" lon="9.055198122341814"><ele>1079.6666666666667</ele><time>2026-04-04T08:43:02Z</time></trkpt><trkpt lat="45.87474618193208" lon="9.05529056948788"><ele>1082.0</ele><time>2026-04-04T08:43:03Z</time></trkpt><trkpt lat="45.874792947662485" lon="9.055361224015778"><ele>1082.0</ele><time>2026-04-04T08:43:04Z</time></trkpt><trkpt lat="45.8748361540946" lon="9.055434579375406"><ele>1082.0</ele><time>2026-04-04T08:43:05Z</time></trkpt><trkpt lat="45.87487573030106" lon="9.055512592046894"><ele>1082.0</ele><time>2026-04-04T08:43:06Z</time></trkpt><trkpt lat="45.87491904524937" lon="9.055579130497463"><ele>1082.0</ele><time>2026-04-04T08:43:07Z</time></trkpt><trkpt lat="45.87499264239674" lon="9.055692758615454"><ele>1082.0</ele><time>2026-04-04T08:43:09Z</time></trkpt><trkpt lat="45.87505834445442" lon="9.05582455929785"><ele>1082.0</ele><time>2026-04-04T08:43:11Z</time></trkpt><trkpt lat="45.875109289183406" lon="9.055922711140772"><ele>1087.2</ele><time>2026-04-04T08:43:13Z</time></trkpt><trkpt lat="45.875178706335085" lon="9.056052104708863"><ele>1092.4</ele><time>2026-04-04T08:43:15Z</time></trkpt><trkpt lat="45.875235669927285" lon="9.056148491195614"><ele>1097.6</ele><time>2026-04-04T08:43:17Z</time></trkpt><trkpt lat="45.87527805579318" lon="9.056302401873818"><ele>1102.8</ele><time>2026-04-04T08:43:19Z</time></trkpt><trkpt lat="45.87530944542051" lon="9.056440564136022"><ele>1108.0</ele><time>2026-04-04T08:43:21Z</time></trkpt><trkpt lat="45.87537087668123" lon="9.05653855747181"><ele>1106.0</ele><time>2026-04-04T08:43:23Z</time></trkpt><trkpt lat="45.87541256753412" lon="9.056672203013198"><ele>1104.0</ele><time>2026-04-04T08:43:25Z</time></trkpt><trkpt lat="45.87542544764417" lon="9.056774554645836"><ele>1102.0</ele><time>2026-04-04T08:43:26Z</time></trkpt><trkpt lat="45.87545530044183" lon="9.056929508561952"><ele>1100.0</ele><time>2026-04-04T08:43:28Z</time></trkpt><trkpt lat="45.87547175832642" lon="9.057018663850863"><ele>1098.0</ele><time>2026-04-04T08:43:29Z</time></trkpt><trkpt lat="45.87552738356197" lon="9.05712525304352"><ele>1096.0</ele><time>2026-04-04T08:43:31Z</time></trkpt><trkpt lat="45.8755757212552" lon="9.057252383680593"><ele>1096.0</ele><time>2026-04-04T08:43:33Z</time></trkpt><trkpt lat="45.875583571362924" lon="9.057345766188503"><ele>1096.0</ele><time>2026-04-04T08:43:34Z</time></trkpt><trkpt lat="45.875624519784814" lon="9.057511691454916"><ele>1096.0</ele><time>2026-04-04T08:43:36Z</time></trkpt><trkpt lat="45.87566193385662" lon="9.057665632337198"><ele>1096.0</ele><time>2026-04-04T08:43:38Z</time></trkpt><trkpt lat="45.87570089316822" lon="9.05779347865672"><ele>1096.0</ele><time>2026-04-04T08:43:40Z</time></trkpt><trkpt lat="45.875736009848936" lon="9.057917375780978"><ele>1095.2</ele><time>2026-04-04T08:43:42Z</time></trkpt><trkpt lat="45.87577038650493" lon="9.058043463044651"><ele>1094.3999999999999</ele><time>2026-04-04T08:43:44Z</time></trkpt><trkpt lat="45.87579512934074" lon="9.058193239263076"><ele>1093.6</ele><time>2026-04-04T08:43:46Z</time></trkpt><trkpt lat="45.87582174006498" lon="9.058334826086039"><ele>1092.8</ele><time>2026-04-04T08:43:48Z</time></trkpt><trkpt lat="45.87581854785672" lon="9.058507796320786"><ele>1092.0</ele><time>2026-04-04T08:43:50Z</time></trkpt><trkpt lat="45.87579124506288" lon="9.058595885553425"><ele>1091.5</ele><time>2026-04-04T08:43:51Z</time></trkpt><trkpt lat="45.87575806910156" lon="9.05874298750748"><ele>1091.0</ele><time>2026-04-04T08:43:53Z</time></trkpt><trkpt lat="45.875727017683886" lon="9.058853214992833"><ele>1090.5</ele><time>2026-04-04T08:43:55Z</time></trkpt><trkpt lat="45.875682732981154" lon="9.058931547155792"><ele>1090.0</ele><time>2026-04-04T08:43:56Z</time></trkpt><trkpt lat="45.87564390409795" lon="9.05900981947137"><ele>1089.5</ele><time>2026-04-04T08:43:57Z</time></trkpt><trkpt lat="45.87559857616473" lon="9.059132179952584"><ele>1089.0</ele><time>2026-04-04T08:43:59Z</time></trkpt><trkpt lat="45.875572997611116" lon="9.059289588223477"><ele>1090.6666666666667</ele><time>2026-04-04T08:44:01Z</time></trkpt><trkpt lat="45.87554342088236" lon="9.059377569015256"><ele>1092.3333333333333</ele><time>2026-04-04T08:44:02Z</time></trkpt><trkpt lat="45.87548393785301" lon="9.059515622726877"><ele>1094.0</ele><time>2026-04-04T08:44:04Z</time></trkpt><trkpt lat="45.87540983551074" lon="9.059607047655774"><ele>1095.6666666666665</ele><time>2026-04-04T08:44:06Z</time></trkpt><trkpt lat="45.87534079280083" lon="9.05964221462348"><ele>1097.3333333333333</ele><time>2026-04-04T08:44:08Z</time></trkpt><trkpt lat="45.87527077889938" lon="9.059731888630315"><ele>1099.0</ele><time>2026-04-04T08:44:10Z</time></trkpt><trkpt lat="45.875193331896845" lon="9.059809312481857"><ele>1099.0</ele><time>2026-04-04T08:44:12Z</time></trkpt><trkpt lat="45.875140453442874" lon="9.059862866055443"><ele>1099.0</ele><time>2026-04-04T08:44:15Z</time></trkpt><trkpt lat="45.875088648799334" lon="9.05992750850489"><ele>1099.0</ele><time>2026-04-04T08:44:17Z</time></trkpt><trkpt lat="45.87504419818837" lon="9.060006905693465"><ele>1099.0</ele><time>2026-04-04T08:44:24Z</time></trkpt><trkpt lat="45.8749853404977" lon="9.060066468379068"><ele>1099.0</ele><time>2026-04-04T08:45:01Z</time></trkpt><trkpt lat="45.874927148589315" lon="9.06002643080042"><ele>1099.0</ele><time>2026-04-04T08:45:04.001Z</time></trkpt><trkpt lat="45.87486265306005" lon="9.059990276676027"><ele>1099.0</ele><time>2026-04-04T08:45:07.001Z</time></trkpt><trkpt lat="45.87482965827513" lon="9.059892885819831"><ele>1097.1666666666665</ele><time>2026-04-04T08:45:11.001Z</time></trkpt><trkpt lat="45.874764541404176" lon="9.059800395822506"><ele>1095.3333333333333</ele><time>2026-04-04T08:45:14.001Z</time></trkpt><trkpt lat="45.87469667597845" lon="9.059723115283406"><ele>1093.5</ele><time>2026-04-04T08:45:17.001Z</time></trkpt><trkpt lat="45.8746176358728" lon="9.059649270553027"><ele>1091.6666666666667</ele><time>2026-04-04T08:45:20.001Z</time></trkpt><trkpt lat="45.8745803559473" lon="9.059566176873952"><ele>1089.8333333333335</ele><time>2026-04-04T08:45:22.001Z</time></trkpt><trkpt lat="45.87449555082047" lon="9.059487681676725"><ele>1088.0</ele><time>2026-04-04T08:45:25.001Z</time></trkpt><trkpt lat="45.874415115592306" lon="9.059401974599105"><ele>1088.0</ele><time>2026-04-04T08:45:28.001Z</time></trkpt><trkpt lat="45.87434226694273" lon="9.059341081363359"><ele>1088.0</ele><time>2026-04-04T08:45:30.001Z</time></trkpt><trkpt lat="45.87428334516323" lon="9.059278844278497"><ele>1088.0</ele><time>2026-04-04T08:45:32.001Z</time></trkpt><trkpt lat="45.874194016238235" lon="9.059207381049866"><ele>1088.0</ele><time>2026-04-04T08:45:34.001Z</time></trkpt><trkpt lat="45.87412837543703" lon="9.05913668046822"><ele>1088.0</ele><time>2026-04-04T08:45:36.001Z</time></trkpt><trkpt lat="45.8740660952027" lon="9.059082837837389"><ele>1088.0</ele><time>2026-04-04T08:45:38.001Z</time></trkpt><trkpt lat="45.873985329398565" lon="9.059015424461329"><ele>1089.3333333333335</ele><time>2026-04-04T08:45:40.001Z</time></trkpt><trkpt lat="45.87393760926862" lon="9.058934126293199"><ele>1090.6666666666667</ele><time>2026-04-04T08:45:42.001Z</time></trkpt><trkpt lat="45.873887212753615" lon="9.058859650744601"><ele>1092.0</ele><time>2026-04-04T08:45:44.001Z</time></trkpt><trkpt lat="45.87381321586873" lon="9.058792597725182"><ele>1093.3333333333333</ele><time>2026-04-04T08:45:46.001Z</time></trkpt><trkpt lat="45.873729281873274" lon="9.058792374490123"><ele>1094.6666666666665</ele><time>2026-04-04T08:45:49.001Z</time></trkpt><trkpt lat="45.873684399008106" lon="9.058883733182874"><ele>1096.0</ele><time>2026-04-04T08:45:51Z</time></trkpt><trkpt lat="45.873669442071495" lon="9.058991130330556"><ele>1096.0</ele><time>2026-04-04T08:45:53Z</time></trkpt><trkpt lat="45.87362893165154" lon="9.05908810316139"><ele>1096.0</ele><time>2026-04-04T08:45:55Z</time></trkpt><trkpt lat="45.87359129919296" lon="9.059187322893546"><ele>1096.0</ele><time>2026-04-04T08:45:57Z</time></trkpt><trkpt lat="45.8735422789677" lon="9.059290926031569"><ele>1096.0</ele><time>2026-04-04T08:45:59Z</time></trkpt><trkpt lat="45.87349030740282" lon="9.059398979362438"><ele>1096.0</ele><time>2026-04-04T08:46:01Z</time></trkpt><trkpt lat="45.87345310991233" lon="9.059513791352215"><ele>1096.0</ele><time>2026-04-04T08:46:03Z</time></trkpt><trkpt lat="45.87340817889645" lon="9.059624050299334"><ele>1100.3999999999999</ele><time>2026-04-04T08:46:05Z</time></trkpt><trkpt lat="45.873371994545515" lon="9.059744916480017"><ele>1104.8</ele><time>2026-04-04T08:46:07Z</time></trkpt><trkpt lat="45.87334328538606" lon="9.059858604758205"><ele>1109.1999999999998</ele><time>2026-04-04T08:46:09Z</time></trkpt><trkpt lat="45.873300402508505" lon="9.059974570240069"><ele>1113.6</ele><time>2026-04-04T08:46:11Z</time></trkpt><trkpt lat="45.87325785340846" lon="9.060098890695585"><ele>1118.0</ele><time>2026-04-04T08:46:13Z</time></trkpt><trkpt lat="45.87321227729455" lon="9.060215242669884"><ele>1121.2</ele><time>2026-04-04T08:46:15Z</time></trkpt><trkpt lat="45.87316261540675" lon="9.06032756155223"><ele>1124.4</ele><time>2026-04-04T08:46:17Z</time></trkpt><trkpt lat="45.87310765883587" lon="9.060449055654178"><ele>1127.6000000000001</ele><time>2026-04-04T08:46:19Z</time></trkpt><trkpt lat="45.87306038392958" lon="9.0605690830034"><ele>1130.8</ele><time>2026-04-04T08:46:21Z</time></trkpt><trkpt lat="45.87302829732778" lon="9.060671860292587"><ele>1134.0</ele><time>2026-04-04T08:46:23Z</time></trkpt><trkpt lat="45.87298708966834" lon="9.06077298855324"><ele>1136.3333333333333</ele><time>2026-04-04T08:46:25Z</time></trkpt><trkpt lat="45.8729489000938" lon="9.060897066054283"><ele>1138.6666666666667</ele><time>2026-04-04T08:46:27Z</time></trkpt><trkpt lat="45.872916401668625" lon="9.06097466022728"><ele>1141.0</ele><time>2026-04-04T08:46:28Z</time></trkpt><trkpt lat="45.87287750679722" lon="9.061116601965471"><ele>1143.3333333333335</ele><time>2026-04-04T08:46:30Z</time></trkpt><trkpt lat="45.87283364788732" lon="9.061229319221784"><ele>1145.6666666666667</ele><time>2026-04-04T08:46:32Z</time></trkpt><trkpt lat="45.87281866170767" lon="9.061353593661192"><ele>1148.0</ele><time>2026-04-04T08:46:34Z</time></trkpt><trkpt lat="45.87279428990583" lon="9.061474100880757"><ele>1148.0</ele><time>2026-04-04T08:46:36Z</time></trkpt><trkpt lat="45.87274906067911" lon="9.061593677613809"><ele>1148.0</ele><time>2026-04-04T08:46:38Z</time></trkpt><trkpt lat="45.87270280141307" lon="9.061698787528266"><ele>1148.0</ele><time>2026-04-04T08:46:40Z</time></trkpt><trkpt lat="45.87265224144976" lon="9.06179001001288"><ele>1148.0</ele><time>2026-04-04T08:46:42.001Z</time></trkpt><trkpt lat="45.87262365730843" lon="9.061892593335825"><ele>1148.0</ele><time>2026-04-04T08:46:44.001Z</time></trkpt><trkpt lat="45.87260607029251" lon="9.061984242641481"><ele>1148.0</ele><time>2026-04-04T08:46:46.001Z</time></trkpt><trkpt lat="45.87258675832498" lon="9.062089349854592"><ele>1151.3333333333335</ele><time>2026-04-04T08:46:48.001Z</time></trkpt><trkpt lat="45.87256317497622" lon="9.06219970767525"><ele>1154.6666666666667</ele><time>2026-04-04T08:46:50.001Z</time></trkpt><trkpt lat="45.87255429134808" lon="9.062315359697823"><ele>1158.0</ele><time>2026-04-04T08:46:52.001Z</time></trkpt><trkpt lat="45.87254029393001" lon="9.062427167975931"><ele>1161.3333333333333</ele><time>2026-04-04T08:46:54.001Z</time></trkpt><trkpt lat="45.87252160093453" lon="9.062546428400363"><ele>1164.6666666666665</ele><time>2026-04-04T08:46:56.001Z</time></trkpt><trkpt lat="45.87249194550777" lon="9.062647627535691"><ele>1168.0</ele><time>2026-04-04T08:46:58.001Z</time></trkpt><trkpt lat="45.87247216663496" lon="9.062757168784419"><ele>1170.5</ele><time>2026-04-04T08:47:00.001Z</time></trkpt><trkpt lat="45.87246154720315" lon="9.062854375031876"><ele>1173.0</ele><time>2026-04-04T08:47:02.001Z</time></trkpt><trkpt lat="45.872455159077" lon="9.062958903652722"><ele>1175.5</ele><time>2026-04-04T08:47:04.001Z</time></trkpt><trkpt lat="45.872422787463634" lon="9.06309166444262"><ele>1178.0</ele><time>2026-04-04T08:47:07.001Z</time></trkpt><trkpt lat="45.87240915554115" lon="9.063220106555264"><ele>1180.5</ele><time>2026-04-04T08:47:10.001Z</time></trkpt><trkpt lat="45.87239701015565" lon="9.063372742372843"><ele>1183.0</ele><time>2026-04-04T08:47:12.001Z</time></trkpt><trkpt lat="45.87235532835033" lon="9.063463444342883"><ele>1186.8333333333333</ele><time>2026-04-04T08:47:14.001Z</time></trkpt><trkpt lat="45.8723085224239" lon="9.063540522542226"><ele>1190.6666666666665</ele><time>2026-04-04T08:47:16.001Z</time></trkpt><trkpt lat="45.87227118406926" lon="9.063661803093705"><ele>1194.5</ele><time>2026-04-04T08:47:18.001Z</time></trkpt><trkpt lat="45.872235642371805" lon="9.06375541640696"><ele>1198.3333333333333</ele><time>2026-04-04T08:47:20.001Z</time></trkpt><trkpt lat="45.87218390681217" lon="9.063856971110718"><ele>1202.1666666666667</ele><time>2026-04-04T08:47:22.001Z</time></trkpt><trkpt lat="45.872136859089174" lon="9.063920698078324"><ele>1206.0</ele><time>2026-04-04T08:47:26.001Z</time></trkpt><trkpt lat="45.87210528355122" lon="9.064009668564275"><ele>1206.0</ele><time>2026-04-04T08:47:28.001Z</time></trkpt><trkpt lat="45.87205936019032" lon="9.064076466203755"><ele>1206.0</ele><time>2026-04-04T08:47:30.001Z</time></trkpt><trkpt lat="45.872017433148486" lon="9.0641660824802"><ele>1206.0</ele><time>2026-04-04T08:47:32.001Z</time></trkpt><trkpt lat="45.871954757781786" lon="9.064208747820887"><ele>1206.0</ele><time>2026-04-04T08:47:34.001Z</time></trkpt><trkpt lat="45.87191354023741" lon="9.064278996999183"><ele>1206.0</ele><time>2026-04-04T08:47:36.001Z</time></trkpt><trkpt lat="45.87188214199256" lon="9.064372133543424"><ele>1206.0</ele><time>2026-04-04T08:47:38.001Z</time></trkpt><trkpt lat="45.871823062356086" lon="9.06447198805935"><ele>1206.0</ele><time>2026-04-04T08:47:41.001Z</time></trkpt><trkpt lat="45.87176747200012" lon="9.064551325704123"><ele>1207.0</ele><time>2026-04-04T08:47:43.001Z</time></trkpt><trkpt lat="45.871711364585714" lon="9.064627911870286"><ele>1208.0</ele><time>2026-04-04T08:47:45.001Z</time></trkpt><trkpt lat="45.87170344791467" lon="9.064720631425374"><ele>1209.0</ele><time>2026-04-04T08:47:51.001Z</time></trkpt><trkpt lat="45.871647979295474" lon="9.064806099908623"><ele>1210.0</ele><time>2026-04-04T08:48:00Z</time></trkpt><trkpt lat="45.87161849482527" lon="9.06489928984678"><ele>1211.0</ele><time>2026-04-04T08:48:02Z</time></trkpt><trkpt lat="45.8715799433205" lon="9.065016587217317"><ele>1212.0</ele><time>2026-04-04T08:48:04Z</time></trkpt><trkpt lat="45.871532168256465" lon="9.065131962033577"><ele>1217.0</ele><time>2026-04-04T08:48:06Z</time></trkpt><trkpt lat="45.87148484419198" lon="9.065259584467382"><ele>1222.0</ele><time>2026-04-04T08:48:08Z</time></trkpt><trkpt lat="45.87146243317595" lon="9.065374643480366"><ele>1227.0</ele><time>2026-04-04T08:48:10Z</time></trkpt><trkpt lat="45.8713868765892" lon="9.065488244174421"><ele>1232.0</ele><time>2026-04-04T08:48:12Z</time></trkpt><trkpt lat="45.87132986107909" lon="9.065549105400518"><ele>1237.0</ele><time>2026-04-04T08:48:13Z</time></trkpt><trkpt lat="45.87128139621726" lon="9.06561236157318"><ele>1242.0</ele><time>2026-04-04T08:48:14Z</time></trkpt><trkpt lat="45.87119108628158" lon="9.065707247072284"><ele>1242.0</ele><time>2026-04-04T08:48:16Z</time></trkpt><trkpt lat="45.87113055576867" lon="9.065775972858638"><ele>1242.0</ele><time>2026-04-04T08:48:18Z</time></trkpt><trkpt lat="45.871115262541174" lon="9.065890036992029"><ele>1242.0</ele><time>2026-04-04T08:48:20Z</time></trkpt><trkpt lat="45.87116865753162" lon="9.065943684521827"><ele>1242.0</ele><time>2026-04-04T08:48:23Z</time></trkpt><trkpt lat="45.87124041823068" lon="9.065881345214224"><ele>1242.0</ele><time>2026-04-04T08:50:49Z</time></trkpt><trkpt lat="45.87133200882339" lon="9.065867957413596"><ele>1242.0</ele><time>2026-04-04T08:50:53Z</time></trkpt><trkpt lat="45.87140759749736" lon="9.065850724431732"><ele>1242.0</ele><time>2026-04-04T08:50:55Z</time></trkpt><trkpt lat="45.87147335119992" lon="9.065797262932449"><ele>1242.0</ele><time>2026-04-04T08:50:57Z</time></trkpt><trkpt lat="45.87156060160751" lon="9.065764149438822"><ele>1242.0</ele><time>2026-04-04T08:50:59Z</time></trkpt><trkpt lat="45.87166692287216" lon="9.065763186563489"><ele>1242.0</ele><time>2026-04-04T08:51:01Z</time></trkpt><trkpt lat="45.87174426722036" lon="9.065732747836769"><ele>1242.0</ele><time>2026-04-04T08:51:03Z</time></trkpt><trkpt lat="45.87181724003434" lon="9.065719202415178"><ele>1242.0</ele><time>2026-04-04T08:51:05Z</time></trkpt><trkpt lat="45.87190883567992" lon="9.065709589119106"><ele>1246.3333333333333</ele><time>2026-04-04T08:51:07Z</time></trkpt><trkpt lat="45.87198342010458" lon="9.065767865007873"><ele>1250.6666666666667</ele><time>2026-04-04T08:51:09Z</time></trkpt><trkpt lat="45.87205610804238" lon="9.065764897454063"><ele>1255.0</ele><time>2026-04-04T08:51:11Z</time></trkpt><trkpt lat="45.87214414657082" lon="9.065770620988065"><ele>1259.3333333333335</ele><time>2026-04-04T08:51:13Z</time></trkpt><trkpt lat="45.87222954286712" lon="9.065755798503734"><ele>1263.6666666666667</ele><time>2026-04-04T08:51:15Z</time></trkpt><trkpt lat="45.87234002287929" lon="9.065743952760672"><ele>1268.0</ele><time>2026-04-04T08:51:17Z</time></trkpt><trkpt lat="45.87244065343949" lon="9.065766442834656"><ele>1268.0</ele><time>2026-04-04T08:51:19Z</time></trkpt><trkpt lat="45.872496463510394" lon="9.065705859542696"><ele>1268.0</ele><time>2026-04-04T08:51:21Z</time></trkpt><trkpt lat="45.87259027687451" lon="9.065677962648827"><ele>1268.0</ele><time>2026-04-04T08:51:24Z</time></trkpt><trkpt lat="45.872654248246945" lon="9.065683809293139"><ele>1268.0</ele><time>2026-04-04T08:51:26Z</time></trkpt><trkpt lat="45.87274065586538" lon="9.065681779967722"><ele>1268.0</ele><time>2026-04-04T08:51:29Z</time></trkpt><trkpt lat="45.87283297421122" lon="9.06566769698229"><ele>1268.0</ele><time>2026-04-04T08:51:32Z</time></trkpt><trkpt lat="45.87291975969142" lon="9.065679676287111"><ele>1269.3333333333335</ele><time>2026-04-04T08:51:35Z</time></trkpt><trkpt lat="45.87298447365336" lon="9.065704708877567"><ele>1270.6666666666667</ele><time>2026-04-04T08:51:43.001Z</time></trkpt><trkpt lat="45.873060436331706" lon="9.065747394059818"><ele>1272.0</ele><time>2026-04-04T08:51:45.001Z</time></trkpt><trkpt lat="45.87311154164267" lon="9.065837777418178"><ele>1273.3333333333333</ele><time>2026-04-04T08:51:48.001Z</time></trkpt><trkpt lat="45.87321191215743" lon="9.06582217549835"><ele>1274.6666666666665</ele><time>2026-04-04T08:51:51.001Z</time></trkpt><trkpt lat="45.87328788396932" lon="9.065815568091702"><ele>1276.0</ele><time>2026-04-04T08:51:53.001Z</time></trkpt><trkpt lat="45.87338228072984" lon="9.065831753763696"><ele>1279.0</ele><time>2026-04-04T08:51:55.001Z</time></trkpt><trkpt lat="45.87346221155233" lon="9.065838470367257"><ele>1282.0</ele><time>2026-04-04T08:51:57.001Z</time></trkpt><trkpt lat="45.87353980409215" lon="9.065845185946742"><ele>1285.0</ele><time>2026-04-04T08:51:59.001Z</time></trkpt><trkpt lat="45.8736123140104" lon="9.065864609267438"><ele>1288.0</ele><time>2026-04-04T08:52:01.001Z</time></trkpt><trkpt lat="45.87369974179827" lon="9.065918729964249"><ele>1291.0</ele><time>2026-04-04T08:52:04.001Z</time></trkpt><trkpt lat="45.87375893410709" lon="9.065950995047425"><ele>1294.0</ele><time>2026-04-04T08:52:06.001Z</time></trkpt><trkpt lat="45.87381776907571" lon="9.06603492744071"><ele>1294.0</ele><time>2026-04-04T08:52:09Z</time></trkpt><trkpt lat="45.87387518108075" lon="9.066131810633005"><ele>1294.0</ele><time>2026-04-04T08:52:11Z</time></trkpt><trkpt lat="45.87392682765909" lon="9.06622441670831"><ele>1294.0</ele><time>2026-04-04T08:52:13Z</time></trkpt><trkpt lat="45.87396503902271" lon="9.066308070648768"><ele>1294.0</ele><time>2026-04-04T08:52:15Z</time></trkpt><trkpt lat="45.87398077781932" lon="9.066432600802809"><ele>1294.0</ele><time>2026-04-04T08:52:18Z</time></trkpt><trkpt lat="45.874038707209415" lon="9.066517341757288"><ele>1294.0</ele><time>2026-04-04T08:52:20Z</time></trkpt><trkpt lat="45.874027083695694" lon="9.066647686501247"><ele>1296.8000000000002</ele><time>2026-04-04T08:52:23Z</time></trkpt><trkpt lat="45.873995417012274" lon="9.066776611763217"><ele>1299.6000000000001</ele><time>2026-04-04T08:52:25Z</time></trkpt><trkpt lat="45.87395744275716" lon="9.066901222095588"><ele>1302.4</ele><time>2026-04-04T08:52:27Z</time></trkpt><trkpt lat="45.873929310134784" lon="9.067033643304883"><ele>1305.2</ele><time>2026-04-04T08:52:29Z</time></trkpt><trkpt lat="45.873898990571675" lon="9.067168602473355"><ele>1308.0</ele><time>2026-04-04T08:52:31Z</time></trkpt><trkpt lat="45.87387176632031" lon="9.06725315735582"><ele>1308.0</ele><time>2026-04-04T08:52:32Z</time></trkpt><trkpt lat="45.87384600328347" lon="9.067336821814896"><ele>1308.0</ele><time>2026-04-04T08:52:33Z</time></trkpt><trkpt lat="45.87378157142424" lon="9.067463639333026"><ele>1308.0</ele><time>2026-04-04T08:52:35Z</time></trkpt><trkpt lat="45.873728592858626" lon="9.067632417067585"><ele>1308.0</ele><time>2026-04-04T08:52:37Z</time></trkpt><trkpt lat="45.87370798658246" lon="9.067719344222526"><ele>1308.0</ele><time>2026-04-04T08:52:38Z</time></trkpt><trkpt lat="45.87371337188868" lon="9.067813686145817"><ele>1308.0</ele><time>2026-04-04T08:52:39Z</time></trkpt><trkpt lat="45.873723481080035" lon="9.067907712751946"><ele>1305.6000000000001</ele><time>2026-04-04T08:52:40Z</time></trkpt><trkpt lat="45.87374578778433" lon="9.067993710777523"><ele>1303.2</ele><time>2026-04-04T08:52:41Z</time></trkpt><trkpt lat="45.87376410278987" lon="9.068154045029512"><ele>1300.8</ele><time>2026-04-04T08:52:43Z</time></trkpt><trkpt lat="45.873801946199684" lon="9.068311831311592"><ele>1298.4</ele><time>2026-04-04T08:52:45Z</time></trkpt><trkpt lat="45.873837607130184" lon="9.068463302602781"><ele>1296.0</ele><time>2026-04-04T08:52:47Z</time></trkpt><trkpt lat="45.87388827992886" lon="9.068600916985574"><ele>1293.6666666666667</ele><time>2026-04-04T08:52:49Z</time></trkpt><trkpt lat="45.87394450483456" lon="9.068693976227621"><ele>1291.3333333333333</ele><time>2026-04-04T08:52:51Z</time></trkpt><trkpt lat="45.873956723928806" lon="9.068797331140223"><ele>1289.0</ele><time>2026-04-04T08:52:53Z</time></trkpt><trkpt lat="45.87393223477527" lon="9.068889156247165"><ele>1286.6666666666665</ele><time>2026-04-04T08:52:55Z</time></trkpt><trkpt lat="45.87387903527003" lon="9.06894121913235"><ele>1284.3333333333333</ele><time>2026-04-04T08:52:58Z</time></trkpt><trkpt lat="45.87388245849307" lon="9.069104841606752"><ele>1282.0</ele><time>2026-04-04T08:53:00Z</time></trkpt><trkpt lat="45.87388380051046" lon="9.069203757959059"><ele>1280.6</ele><time>2026-04-04T08:53:01Z</time></trkpt><trkpt lat="45.87393811820733" lon="9.069312326804098"><ele>1279.1999999999998</ele><time>2026-04-04T08:53:04Z</time></trkpt><trkpt lat="45.87397794695948" lon="9.069422792170377"><ele>1277.8</ele><time>2026-04-04T08:53:06Z</time></trkpt><trkpt lat="45.87399779859522" lon="9.069568533861851"><ele>1276.4</ele><time>2026-04-04T08:53:08Z</time></trkpt><trkpt lat="45.87404082169144" lon="9.069668017227904"><ele>1275.0</ele><time>2026-04-04T08:53:10Z</time></trkpt><trkpt lat="45.8740822173172" lon="9.069780559806786"><ele>1275.0</ele><time>2026-04-04T08:53:12Z</time></trkpt><trkpt lat="45.87411272246111" lon="9.069862786318154"><ele>1275.0</ele><time>2026-04-04T08:53:14Z</time></trkpt><trkpt lat="45.87415723224086" lon="9.069979669077277"><ele>1275.0</ele><time>2026-04-04T08:53:18Z</time></trkpt><trkpt lat="45.87422078656535" lon="9.070059025542921"><ele>1275.0</ele><time>2026-04-04T08:53:21Z</time></trkpt><trkpt lat="45.87427282754879" lon="9.070138346517293"><ele>1275.0</ele><time>2026-04-04T08:53:24Z</time></trkpt><trkpt lat="45.874298886296444" lon="9.070252629533401"><ele>1275.0</ele><time>2026-04-04T08:53:28Z</time></trkpt><trkpt lat="45.87432710631751" lon="9.070343605463638"><ele>1265.4</ele><time>2026-04-04T08:53:30Z</time></trkpt><trkpt lat="45.874349686264665" lon="9.07045873961136"><ele>1255.8</ele><time>2026-04-04T08:53:33Z</time></trkpt><trkpt lat="45.87441094873157" lon="9.070548871344082"><ele>1246.2</ele><time>2026-04-04T08:53:36Z</time></trkpt><trkpt lat="45.87445127141181" lon="9.070665305198876"><ele>1236.6</ele><time>2026-04-04T08:53:38Z</time></trkpt><trkpt lat="45.87447665203232" lon="9.070760716211835"><ele>1227.0</ele><time>2026-04-04T08:53:39Z</time></trkpt><trkpt lat="45.87453337186778" lon="9.070935596483139"><ele>1227.0</ele><time>2026-04-04T08:53:41Z</time></trkpt><trkpt lat="45.8745594304573" lon="9.071029679701748"><ele>1227.0</ele><time>2026-04-04T08:53:42Z</time></trkpt><trkpt lat="45.87459098126734" lon="9.07111220356862"><ele>1227.0</ele><time>2026-04-04T08:53:43Z</time></trkpt><trkpt lat="45.87462849499623" lon="9.07121025321274"><ele>1227.0</ele><time>2026-04-04T08:53:44Z</time></trkpt><trkpt lat="45.87463548526913" lon="9.071306766831515"><ele>1227.0</ele><time>2026-04-04T08:53:45Z</time></trkpt><trkpt lat="45.87464366999696" lon="9.0713971312656"><ele>1227.0</ele><time>2026-04-04T08:53:46Z</time></trkpt><trkpt lat="45.87465362549524" lon="9.071487001453987"><ele>1227.0</ele><time>2026-04-04T08:53:47Z</time></trkpt><trkpt lat="45.874679029685" lon="9.071628851354959"><ele>1227.4</ele><time>2026-04-04T08:53:49Z</time></trkpt><trkpt lat="45.87468296347468" lon="9.07176910952699"><ele>1227.8000000000002</ele><time>2026-04-04T08:53:51Z</time></trkpt><trkpt lat="45.87468605778158" lon="9.071886916675734"><ele>1228.2</ele><time>2026-04-04T08:53:53Z</time></trkpt><trkpt lat="45.874691853319646" lon="9.072045814079706"><ele>1228.6000000000001</ele><time>2026-04-04T08:53:55Z</time></trkpt><trkpt lat="45.87471692456953" lon="9.072192557067964"><ele>1229.0</ele><time>2026-04-04T08:53:57Z</time></trkpt><trkpt lat="45.87472229636" lon="9.072338040700176"><ele>1228.75</ele><time>2026-04-04T08:53:59Z</time></trkpt><trkpt lat="45.87472991695447" lon="9.07248669345325"><ele>1228.5</ele><time>2026-04-04T08:54:01Z</time></trkpt><trkpt lat="45.87474263299007" lon="9.072647665983263"><ele>1228.25</ele><time>2026-04-04T08:54:03Z</time></trkpt><trkpt lat="45.8747536921081" lon="9.072813966062228"><ele>1228.0</ele><time>2026-04-04T08:54:05Z</time></trkpt><trkpt lat="45.87470155183847" lon="9.07296995588921"><ele>1228.0</ele><time>2026-04-04T08:54:07Z</time></trkpt><trkpt lat="45.87467076907701" lon="9.073098962883366"><ele>1228.0</ele><time>2026-04-04T08:54:09Z</time></trkpt><trkpt lat="45.87469384608156" lon="9.073219896418816"><ele>1228.0</ele><time>2026-04-04T08:54:11Z</time></trkpt><trkpt lat="45.874669558968556" lon="9.07332860877932"><ele>1228.0</ele><time>2026-04-04T08:54:13Z</time></trkpt><trkpt lat="45.87459508899942" lon="9.07343991180734"><ele>1228.0</ele><time>2026-04-04T08:54:15Z</time></trkpt><trkpt lat="45.87450505803082" lon="9.073522840401136"><ele>1227.6666666666665</ele><time>2026-04-04T08:54:17Z</time></trkpt><trkpt lat="45.87445019782913" lon="9.073589133494256"><ele>1227.3333333333333</ele><time>2026-04-04T08:54:19Z</time></trkpt><trkpt lat="45.87437602957305" lon="9.073719244264336"><ele>1227.0</ele><time>2026-04-04T08:54:21Z</time></trkpt><trkpt lat="45.87429700044062" lon="9.073829856205627"><ele>1226.6666666666667</ele><time>2026-04-04T08:54:23Z</time></trkpt><trkpt lat="45.87425960970171" lon="9.073903304957566"><ele>1226.3333333333335</ele><time>2026-04-04T08:54:24Z</time></trkpt><trkpt lat="45.87421747844023" lon="9.07397529083858"><ele>1226.0</ele><time>2026-04-04T08:54:25Z</time></trkpt><trkpt lat="45.87416886693811" lon="9.074037129434762"><ele>1225.8333333333335</ele><time>2026-04-04T08:54:26Z</time></trkpt><trkpt lat="45.874076322343015" lon="9.074063414178479"><ele>1225.6666666666667</ele><time>2026-04-04T08:54:28Z</time></trkpt><trkpt lat="45.87403720786424" lon="9.073958764667008"><ele>1225.5</ele><time>2026-04-04T08:54:30Z</time></trkpt><trkpt lat="45.87401063025159" lon="9.073866494114604"><ele>1225.3333333333333</ele><time>2026-04-04T08:54:39Z</time></trkpt><trkpt lat="45.87398383857633" lon="9.073774601892044"><ele>1225.1666666666665</ele><time>2026-04-04T08:54:44Z</time></trkpt><trkpt lat="45.873952495000204" lon="9.073693966241468"><ele>1225.0</ele><time>2026-04-04T08:54:49Z</time></trkpt><trkpt lat="45.873921364368876" lon="9.07359165831811"><ele>1225.0</ele><time>2026-04-04T08:54:56Z</time></trkpt><trkpt lat="45.87388898125654" lon="9.073486362499226"><ele>1225.0</ele><time>2026-04-04T08:55:01Z</time></trkpt><trkpt lat="45.87385940032399" lon="9.073607131221413"><ele>1225.0</ele><time>2026-04-04T08:55:12Z</time></trkpt><trkpt lat="45.87381466132915" lon="9.073732343373361"><ele>1225.0</ele><time>2026-04-04T08:55:14Z</time></trkpt><trkpt lat="45.87379460487307" lon="9.073826944462022"><ele>1225.0</ele><time>2026-04-04T08:55:16Z</time></trkpt><trkpt lat="45.87378657344566" lon="9.073929187544852"><ele>1225.0</ele><time>2026-04-04T08:55:18Z</time></trkpt><trkpt lat="45.873779308304066" lon="9.07405072661863"><ele>1222.5</ele><time>2026-04-04T08:55:21Z</time></trkpt><trkpt lat="45.87376119594309" lon="9.07414581004889"><ele>1220.0</ele><time>2026-04-04T08:55:23Z</time></trkpt><trkpt lat="45.87374719544026" lon="9.074284138117015"><ele>1217.5</ele><time>2026-04-04T08:55:26Z</time></trkpt><trkpt lat="45.873728845791604" lon="9.074407220749325"><ele>1215.0</ele><time>2026-04-04T08:55:29Z</time></trkpt><trkpt lat="45.873699098365435" lon="9.074551005291866"><ele>1212.5</ele><time>2026-04-04T08:55:32Z</time></trkpt><trkpt lat="45.87369046655472" lon="9.074641251875228"><ele>1210.0</ele><time>2026-04-04T08:55:33Z</time></trkpt><trkpt lat="45.87368977598726" lon="9.074743972857926"><ele>1210.0</ele><time>2026-04-04T08:55:34Z</time></trkpt><trkpt lat="45.873686669521" lon="9.074849328800516"><ele>1210.0</ele><time>2026-04-04T08:55:35Z</time></trkpt><trkpt lat="45.87367263835674" lon="9.07495079963551"><ele>1210.0</ele><time>2026-04-04T08:55:36Z</time></trkpt><trkpt lat="45.873648239626014" lon="9.075038745525715"><ele>1210.0</ele><time>2026-04-04T08:55:37Z</time></trkpt><trkpt lat="45.87359701792148" lon="9.07518762975425"><ele>1210.0</ele><time>2026-04-04T08:55:39Z</time></trkpt><trkpt lat="45.87354698500163" lon="9.075291286468392"><ele>1210.0</ele><time>2026-04-04T08:55:41Z</time></trkpt><trkpt lat="45.87350309260975" lon="9.07541071117996"><ele>1205.2</ele><time>2026-04-04T08:55:43Z</time></trkpt><trkpt lat="45.8734656929802" lon="9.075534588771083"><ele>1200.4</ele><time>2026-04-04T08:55:45Z</time></trkpt><trkpt lat="45.87341569694479" lon="9.075653719478355"><ele>1195.6</ele><time>2026-04-04T08:55:47Z</time></trkpt><trkpt lat="45.87337402901476" lon="9.075760089377377"><ele>1190.8</ele><time>2026-04-04T08:55:49Z</time></trkpt><trkpt lat="45.87331891124748" lon="9.075866220797229"><ele>1186.0</ele><time>2026-04-04T08:55:51Z</time></trkpt><trkpt lat="45.87328179545259" lon="9.075978059265536"><ele>1185.5</ele><time>2026-04-04T08:55:53Z</time></trkpt><trkpt lat="45.87328162947142" lon="9.07611616926563"><ele>1185.0</ele><time>2026-04-04T08:55:55Z</time></trkpt><trkpt lat="45.873310726041446" lon="9.076224092976911"><ele>1184.5</ele><time>2026-04-04T08:55:57Z</time></trkpt><trkpt lat="45.87329292497553" lon="9.076321875417062"><ele>1184.0</ele><time>2026-04-04T08:55:59Z</time></trkpt><trkpt lat="45.873280202387896" lon="9.076466647815588"><ele>1183.5</ele><time>2026-04-04T08:56:01Z</time></trkpt><trkpt lat="45.87327961058267" lon="9.076567023169927"><ele>1183.0</ele><time>2026-04-04T08:56:02Z</time></trkpt><trkpt lat="45.87329446514131" lon="9.076741932769764"><ele>1182.6</ele><time>2026-04-04T08:56:04Z</time></trkpt><trkpt lat="45.87328905392352" lon="9.076885142331097"><ele>1182.1999999999998</ele><time>2026-04-04T08:56:06Z</time></trkpt><trkpt lat="45.87329226999589" lon="9.07706741317993"><ele>1181.8</ele><time>2026-04-04T08:56:08Z</time></trkpt><trkpt lat="45.87326900495934" lon="9.077245705500655"><ele>1181.3999999999999</ele><time>2026-04-04T08:56:10Z</time></trkpt><trkpt lat="45.87326249795801" lon="9.077358331523774"><ele>1181.0</ele><time>2026-04-04T08:56:11Z</time></trkpt><trkpt lat="45.87326171710998" lon="9.07746249566717"><ele>1180.8</ele><time>2026-04-04T08:56:12Z</time></trkpt><trkpt lat="45.873256574930814" lon="9.077573178354031"><ele>1180.6</ele><time>2026-04-04T08:56:13Z</time></trkpt><trkpt lat="45.873280176206144" lon="9.0777149386263"><ele>1180.4</ele><time>2026-04-04T08:56:14Z</time></trkpt><trkpt lat="45.873312686712836" lon="9.077863160493182"><ele>1180.2</ele><time>2026-04-04T08:56:15Z</time></trkpt><trkpt lat="45.87334156361634" lon="9.07799936711155"><ele>1180.0</ele><time>2026-04-04T08:56:16Z</time></trkpt><trkpt lat="45.873357165023364" lon="9.07814399434622"><ele>1180.0</ele><time>2026-04-04T08:56:17Z</time></trkpt><trkpt lat="45.873387432481394" lon="9.078263656225433"><ele>1180.0</ele><time>2026-04-04T08:56:18Z</time></trkpt><trkpt lat="45.873398166744124" lon="9.078383947865087"><ele>1180.0</ele><time>2026-04-04T08:56:19Z</time></trkpt><trkpt lat="45.873425016335034" lon="9.078510626640517"><ele>1180.0</ele><time>2026-04-04T08:56:20Z</time></trkpt><trkpt lat="45.87345047141024" lon="9.078628647137712"><ele>1180.0</ele><time>2026-04-04T08:56:21Z</time></trkpt><trkpt lat="45.87347991053976" lon="9.078756431595977"><ele>1180.0</ele><time>2026-04-04T08:56:22Z</time></trkpt><trkpt lat="45.873525467693035" lon="9.078883372187505"><ele>1174.3333333333333</ele><time>2026-04-04T08:56:23Z</time></trkpt><trkpt lat="45.873547652027625" lon="9.078998982859886"><ele>1168.6666666666665</ele><time>2026-04-04T08:56:24Z</time></trkpt><trkpt lat="45.873573089245404" lon="9.079110980221945"><ele>1163.0</ele><time>2026-04-04T08:56:25Z</time></trkpt><trkpt lat="45.87359905031744" lon="9.079210496550397"><ele>1157.3333333333333</ele><time>2026-04-04T08:56:26Z</time></trkpt><trkpt lat="45.873629710278365" lon="9.079292666297432"><ele>1151.6666666666667</ele><time>2026-04-04T08:56:27Z</time></trkpt><trkpt lat="45.873710024389794" lon="9.079431759180872"><ele>1146.0</ele><time>2026-04-04T08:56:29Z</time></trkpt><trkpt lat="45.87373501852914" lon="9.079536439443025"><ele>1146.0</ele><time>2026-04-04T08:56:30Z</time></trkpt><trkpt lat="45.87377146032533" lon="9.079645785176794"><ele>1146.0</ele><time>2026-04-04T08:56:31Z</time></trkpt><trkpt lat="45.87380858418137" lon="9.07974693107415"><ele>1146.0</ele><time>2026-04-04T08:56:32Z</time></trkpt><trkpt lat="45.87385346205839" lon="9.079856584272873"><ele>1146.0</ele><time>2026-04-04T08:56:33Z</time></trkpt><trkpt lat="45.87388811690923" lon="9.079974478057498"><ele>1146.0</ele><time>2026-04-04T08:56:34Z</time></trkpt><trkpt lat="45.8739331819856" lon="9.080090049357791"><ele>1146.0</ele><time>2026-04-04T08:56:35Z</time></trkpt><trkpt lat="45.8739673843387" lon="9.080186626726876"><ele>1148.1666666666667</ele><time>2026-04-04T08:56:36Z</time></trkpt><trkpt lat="45.87401011725731" lon="9.080265597952046"><ele>1150.3333333333333</ele><time>2026-04-04T08:56:37Z</time></trkpt><trkpt lat="45.87402643079991" lon="9.080376055283345"><ele>1152.5</ele><time>2026-04-04T08:56:39Z</time></trkpt><trkpt lat="45.87403642112767" lon="9.080474085529223"><ele>1154.6666666666665</ele><time>2026-04-04T08:56:41Z</time></trkpt><trkpt lat="45.87403051057726" lon="9.080590877396771"><ele>1156.8333333333333</ele><time>2026-04-04T08:56:43Z</time></trkpt><trkpt lat="45.8740369678553" lon="9.080732711571478"><ele>1159.0</ele><time>2026-04-04T08:56:45Z</time></trkpt><trkpt lat="45.87401544251114" lon="9.080841265268138"><ele>1159.0</ele><time>2026-04-04T08:56:46Z</time></trkpt><trkpt lat="45.87399478894267" lon="9.080972807417197"><ele>1159.0</ele><time>2026-04-04T08:56:47Z</time></trkpt><trkpt lat="45.87393502721823" lon="9.081084072276594"><ele>1159.0</ele><time>2026-04-04T08:56:48Z</time></trkpt><trkpt lat="45.87388551901479" lon="9.081199346868898"><ele>1159.0</ele><time>2026-04-04T08:56:49Z</time></trkpt><trkpt lat="45.87383185933092" lon="9.081278516845593"><ele>1159.0</ele><time>2026-04-04T08:56:50Z</time></trkpt><trkpt lat="45.873789427537254" lon="9.081410002551774"><ele>1159.0</ele><time>2026-04-04T08:56:52Z</time></trkpt><trkpt lat="45.87374948695371" lon="9.08153545460834"><ele>1159.0</ele><time>2026-04-04T08:56:54Z</time></trkpt><trkpt lat="45.8737266866092" lon="9.08162897327377"><ele>1159.0</ele><time>2026-04-04T08:56:56Z</time></trkpt><trkpt lat="45.87373057371832" lon="9.081777421591008"><ele>1159.0</ele><time>2026-04-04T08:56:58Z</time></trkpt><trkpt lat="45.87368826614513" lon="9.081882590601298"><ele>1159.0</ele><time>2026-04-04T08:57:01Z</time></trkpt><trkpt lat="45.87367978156176" lon="9.082033983670055"><ele>1156.0</ele><time>2026-04-04T08:57:03Z</time></trkpt><trkpt lat="45.87366872966381" lon="9.082142761333122"><ele>1153.0</ele><time>2026-04-04T08:57:06Z</time></trkpt><trkpt lat="45.873663291251255" lon="9.082235882043634"><ele>1150.0</ele><time>2026-04-04T08:57:07Z</time></trkpt><trkpt lat="45.87365940709026" lon="9.082378662098597"><ele>1147.0</ele><time>2026-04-04T08:57:09Z</time></trkpt><trkpt lat="45.87364886942872" lon="9.082495399397235"><ele>1144.0</ele><time>2026-04-04T08:57:11Z</time></trkpt><trkpt lat="45.87363872347938" lon="9.082645267378513"><ele>1141.0</ele><time>2026-04-04T08:57:14Z</time></trkpt><trkpt lat="45.87362066606605" lon="9.082741311960024"><ele>1138.2857142857142</ele><time>2026-04-04T08:57:16Z</time></trkpt><trkpt lat="45.873597218157144" lon="9.082844540061902"><ele>1135.5714285714284</ele><time>2026-04-04T08:57:20Z</time></trkpt><trkpt lat="45.873574192236816" lon="9.082952639725987"><ele>1132.857142857143</ele><time>2026-04-04T08:57:24Z</time></trkpt><trkpt lat="45.87358314848154" lon="9.083046602707428"><ele>1130.142857142857</ele><time>2026-04-04T08:57:27Z</time></trkpt><trkpt lat="45.873587487573566" lon="9.083146142591302"><ele>1127.4285714285713</ele><time>2026-04-04T08:57:31Z</time></trkpt><trkpt lat="45.87356384748639" lon="9.08323732481829"><ele>1124.7142857142858</ele><time>2026-04-04T08:57:34Z</time></trkpt><trkpt lat="45.873543159843614" lon="9.083346348519132"><ele>1122.0</ele><time>2026-04-04T08:57:38Z</time></trkpt><trkpt lat="45.87359888594125" lon="9.083405541749784"><ele>1119.4</ele><time>2026-04-04T08:57:41Z</time></trkpt><trkpt lat="45.87364086118046" lon="9.083485906182174"><ele>1116.8000000000002</ele><time>2026-04-04T08:57:44Z</time></trkpt><trkpt lat="45.87365490598069" lon="9.083593995244497"><ele>1114.2</ele><time>2026-04-04T08:57:47Z</time></trkpt><trkpt lat="45.87366793242961" lon="9.083705338995756"><ele>1111.6000000000001</ele><time>2026-04-04T08:57:48Z</time></trkpt><trkpt lat="45.87367743967037" lon="9.083843679091515"><ele>1109.0</ele><time>2026-04-04T08:57:51Z</time></trkpt><trkpt lat="45.873711565360445" lon="9.084108779531622"><ele>1108.8</ele><time>2026-04-04T08:57:53Z</time></trkpt><trkpt lat="45.87369312180551" lon="9.08427024748745"><ele>1108.6000000000001</ele><time>2026-04-04T08:57:55Z</time></trkpt><trkpt lat="45.873684818028934" lon="9.084418731230116"><ele>1108.4</ele><time>2026-04-04T08:57:57Z</time></trkpt><trkpt lat="45.873683024405324" lon="9.08458983112293"><ele>1108.2</ele><time>2026-04-04T08:57:59Z</time></trkpt><trkpt lat="45.8736786869923" lon="9.084680598180759"><ele>1108.0</ele><time>2026-04-04T08:58:00Z</time></trkpt><trkpt lat="45.87369594963837" lon="9.08485607790695"><ele>1108.0</ele><time>2026-04-04T08:58:02Z</time></trkpt><trkpt lat="45.87370281938018" lon="9.085021437877273"><ele>1108.0</ele><time>2026-04-04T08:58:04Z</time></trkpt><trkpt lat="45.87372979706237" lon="9.08519800318149"><ele>1108.0</ele><time>2026-04-04T08:58:06Z</time></trkpt><trkpt lat="45.873736506175895" lon="9.085291405715065"><ele>1108.0</ele><time>2026-04-04T08:58:07Z</time></trkpt><trkpt lat="45.873765235450094" lon="9.085376534815133"><ele>1108.0</ele><time>2026-04-04T08:58:08Z</time></trkpt><trkpt lat="45.87378744239638" lon="9.085467654866795"><ele>1108.0</ele><time>2026-04-04T08:58:09Z</time></trkpt><trkpt lat="45.87387330433963" lon="9.085582623174707"><ele>1108.0</ele><time>2026-04-04T08:58:10Z</time></trkpt><trkpt lat="45.873872982709344" lon="9.08571148993602"><ele>1108.0</ele><time>2026-04-04T08:58:12Z</time></trkpt><trkpt lat="45.87384780943645" lon="9.085797535888766"><ele>1108.0</ele><time>2026-04-04T08:58:14Z</time></trkpt><trkpt lat="45.8737812590475" lon="9.085794936629807"><ele>1108.0</ele><time>2026-04-04T09:00:01Z</time></trkpt><trkpt lat="45.87386670043018" lon="9.085781374469597"><ele>1108.0</ele><time>2026-04-04T09:03:22Z</time></trkpt><trkpt lat="45.8738988668849" lon="9.085863051018437"><ele>1108.0</ele><time>2026-04-04T09:15:19.001Z</time></trkpt><trkpt lat="45.87397448503645" lon="9.0859076002932"><ele>1109.3333333333333</ele><time>2026-04-04T09:15:22.001Z</time></trkpt><trkpt lat="45.874040600806204" lon="9.085972855212841"><ele>1110.6666666666665</ele><time>2026-04-04T09:15:25.001Z</time></trkpt><trkpt lat="45.87408986477691" lon="9.086084193951038"><ele>1112.0</ele><time>2026-04-04T09:15:27.001Z</time></trkpt><trkpt lat="45.87414235989254" lon="9.086146047245762"><ele>1113.3333333333333</ele><time>2026-04-04T09:15:29.001Z</time></trkpt><trkpt lat="45.8742053930948" lon="9.086192385716483"><ele>1114.6666666666667</ele><time>2026-04-04T09:15:31.001Z</time></trkpt><trkpt lat="45.8742932579693" lon="9.086248985322797"><ele>1116.0</ele><time>2026-04-04T09:15:33.001Z</time></trkpt><trkpt lat="45.87436933654017" lon="9.086341721942294"><ele>1115.0</ele><time>2026-04-04T09:15:35.001Z</time></trkpt><trkpt lat="45.874424507920075" lon="9.086433180540133"><ele>1114.0</ele><time>2026-04-04T09:15:37.001Z</time></trkpt><trkpt lat="45.87454390666883" lon="9.086580667714026"><ele>1113.0</ele><time>2026-04-04T09:15:41.001Z</time></trkpt><trkpt lat="45.87459784120323" lon="9.086645994002508"><ele>1112.0</ele><time>2026-04-04T09:15:43.001Z</time></trkpt><trkpt lat="45.874648346202676" lon="9.086709372878348"><ele>1111.0</ele><time>2026-04-04T09:15:45.001Z</time></trkpt><trkpt lat="45.87471902425275" lon="9.086737573642775"><ele>1111.0</ele><time>2026-04-04T09:15:48.001Z</time></trkpt><trkpt lat="45.87477852522178" lon="9.086782643017505"><ele>1111.0</ele><time>2026-04-04T09:15:50.001Z</time></trkpt><trkpt lat="45.874829904781144" lon="9.08685394395751"><ele>1111.0</ele><time>2026-04-04T09:15:53.001Z</time></trkpt><trkpt lat="45.87489327126359" lon="9.086901125956082"><ele>1111.0</ele><time>2026-04-04T09:15:57.001Z</time></trkpt><trkpt lat="45.87497060591834" lon="9.086916008371617"><ele>1111.0</ele><time>2026-04-04T09:16:00.001Z</time></trkpt><trkpt lat="45.87505740573125" lon="9.086886622164192"><ele>1111.0</ele><time>2026-04-04T09:16:04.001Z</time></trkpt><trkpt lat="45.87513280576748" lon="9.086868576746514"><ele>1109.3999999999999</ele><time>2026-04-04T09:16:07.001Z</time></trkpt><trkpt lat="45.875214722697706" lon="9.086842523546142"><ele>1107.8</ele><time>2026-04-04T09:16:10.001Z</time></trkpt><trkpt lat="45.87530394241754" lon="9.086820595484978"><ele>1106.1999999999998</ele><time>2026-04-04T09:16:12.001Z</time></trkpt><trkpt lat="45.87540478411091" lon="9.08681037090523"><ele>1104.6</ele><time>2026-04-04T09:16:14.001Z</time></trkpt><trkpt lat="45.875503559084166" lon="9.08679999491125"><ele>1103.0</ele><time>2026-04-04T09:16:16.001Z</time></trkpt><trkpt lat="45.875587269850904" lon="9.086796772135218"><ele>1103.0</ele><time>2026-04-04T09:16:19.001Z</time></trkpt><trkpt lat="45.87567084104971" lon="9.086789037831059"><ele>1103.0</ele><time>2026-04-04T09:16:22.001Z</time></trkpt><trkpt lat="45.87576127265583" lon="9.086757182653894"><ele>1103.0</ele><time>2026-04-04T09:16:25.001Z</time></trkpt><trkpt lat="45.875821202602374" lon="9.086726285250363"><ele>1103.0</ele><time>2026-04-04T09:16:28.001Z</time></trkpt><trkpt lat="45.87590311899321" lon="9.086702649137658"><ele>1103.0</ele><time>2026-04-04T09:16:31.001Z</time></trkpt><trkpt lat="45.87597521825523" lon="9.086712779788407"><ele>1103.0</ele><time>2026-04-04T09:16:33.001Z</time></trkpt><trkpt lat="45.87607151154382" lon="9.086715942972948"><ele>1103.0</ele><time>2026-04-04T09:16:35.001Z</time></trkpt><trkpt lat="45.876150960382255" lon="9.086692032170381"><ele>1103.0</ele><time>2026-04-04T09:16:37.001Z</time></trkpt><trkpt lat="45.876255221329224" lon="9.086663322367098"><ele>1103.0</ele><time>2026-04-04T09:16:39.001Z</time></trkpt><trkpt lat="45.87635281556939" lon="9.086632374083623"><ele>1103.0</ele><time>2026-04-04T09:16:41.001Z</time></trkpt><trkpt lat="45.87644719371486" lon="9.086575471477707"><ele>1103.0</ele><time>2026-04-04T09:16:43.001Z</time></trkpt><trkpt lat="45.87651039825735" lon="9.086523410284936"><ele>1099.8333333333335</ele><time>2026-04-04T09:16:46.001Z</time></trkpt><trkpt lat="45.87657891132746" lon="9.086477044298645"><ele>1096.6666666666667</ele><time>2026-04-04T09:16:48.001Z</time></trkpt><trkpt lat="45.87665872719351" lon="9.086420986930035"><ele>1093.5</ele><time>2026-04-04T09:16:50.001Z</time></trkpt><trkpt lat="45.87673225428105" lon="9.086330277703592"><ele>1090.3333333333333</ele><time>2026-04-04T09:16:52.001Z</time></trkpt><trkpt lat="45.87678866128426" lon="9.086269469218378"><ele>1087.1666666666665</ele><time>2026-04-04T09:16:54.001Z</time></trkpt><trkpt lat="45.876853306607764" lon="9.08620756841208"><ele>1084.0</ele><time>2026-04-04T09:16:58.001Z</time></trkpt><trkpt lat="45.87694201045231" lon="9.086148481498187"><ele>1084.0</ele><time>2026-04-04T09:17:01.001Z</time></trkpt><trkpt lat="45.87701133800966" lon="9.086110436863073"><ele>1084.0</ele><time>2026-04-04T09:17:03.001Z</time></trkpt><trkpt lat="45.87708039119436" lon="9.086077261689724"><ele>1084.0</ele><time>2026-04-04T09:17:05.001Z</time></trkpt><trkpt lat="45.877151391963125" lon="9.086062068300517"><ele>1084.0</ele><time>2026-04-04T09:17:07.001Z</time></trkpt><trkpt lat="45.87723088707387" lon="9.086052348063065"><ele>1084.0</ele><time>2026-04-04T09:17:10.001Z</time></trkpt><trkpt lat="45.87729806409684" lon="9.086043629667476"><ele>1084.0</ele><time>2026-04-04T09:17:13.001Z</time></trkpt><trkpt lat="45.87736236908846" lon="9.086022688247734"><ele>1084.0</ele><time>2026-04-04T09:17:15.001Z</time></trkpt><trkpt lat="45.87743279052485" lon="9.086027919343266"><ele>1084.0</ele><time>2026-04-04T09:17:17.001Z</time></trkpt><trkpt lat="45.87751009061757" lon="9.086007690187822"><ele>1084.0</ele><time>2026-04-04T09:17:19.001Z</time></trkpt><trkpt lat="45.87758506437105" lon="9.086010217306669"><ele>1084.0</ele><time>2026-04-04T09:17:21Z</time></trkpt><trkpt lat="45.877663355950716" lon="9.085992293579459"><ele>1084.0</ele><time>2026-04-04T09:17:23Z</time></trkpt><trkpt lat="45.877736378396754" lon="9.085983001712128"><ele>1084.0</ele><time>2026-04-04T09:17:25Z</time></trkpt><trkpt lat="45.8778356318574" lon="9.085988438612356"><ele>1084.0</ele><time>2026-04-04T09:17:29Z</time></trkpt><trkpt lat="45.877906752450535" lon="9.086000352933333"><ele>1084.5</ele><time>2026-04-04T09:17:31Z</time></trkpt><trkpt lat="45.877989134125784" lon="9.085992220246528"><ele>1085.0</ele><time>2026-04-04T09:17:33Z</time></trkpt><trkpt lat="45.878063177670334" lon="9.085994960847774"><ele>1085.5</ele><time>2026-04-04T09:17:35Z</time></trkpt><trkpt lat="45.87813649349525" lon="9.086009428038407"><ele>1086.0</ele><time>2026-04-04T09:17:37Z</time></trkpt><trkpt lat="45.8782189318008" lon="9.08600173427143"><ele>1086.5</ele><time>2026-04-04T09:17:39Z</time></trkpt><trkpt lat="45.87829724255782" lon="9.08598451534796"><ele>1087.0</ele><time>2026-04-04T09:17:41Z</time></trkpt><trkpt lat="45.87838247213589" lon="9.085985629605613"><ele>1086.6666666666665</ele><time>2026-04-04T09:17:43Z</time></trkpt><trkpt lat="45.87846264678378" lon="9.086003979331766"><ele>1086.3333333333333</ele><time>2026-04-04T09:17:45Z</time></trkpt><trkpt lat="45.87853924135371" lon="9.086000447136128"><ele>1086.0</ele><time>2026-04-04T09:17:47Z</time></trkpt><trkpt lat="45.87861499202586" lon="9.086000831116982"><ele>1085.6666666666667</ele><time>2026-04-04T09:17:49Z</time></trkpt><trkpt lat="45.8786938746228" lon="9.085999562934589"><ele>1085.3333333333335</ele><time>2026-04-04T09:17:51Z</time></trkpt><trkpt lat="45.878786237183995" lon="9.085979447413992"><ele>1085.0</ele><time>2026-04-04T09:17:53Z</time></trkpt><trkpt lat="45.878866679934944" lon="9.08595086849428"><ele>1085.0</ele><time>2026-04-04T09:17:55Z</time></trkpt><trkpt lat="45.878947945702336" lon="9.085943483350812"><ele>1085.0</ele><time>2026-04-04T09:17:57Z</time></trkpt><trkpt lat="45.879040372788445" lon="9.08590908267083"><ele>1085.0</ele><time>2026-04-04T09:17:59Z</time></trkpt><trkpt lat="45.879151155548016" lon="9.085881230142729"><ele>1085.0</ele><time>2026-04-04T09:18:01Z</time></trkpt><trkpt lat="45.87925409313369" lon="9.08583564555772"><ele>1085.0</ele><time>2026-04-04T09:18:03Z</time></trkpt><trkpt lat="45.87934711582582" lon="9.085787698679324"><ele>1082.6666666666667</ele><time>2026-04-04T09:18:05Z</time></trkpt><trkpt lat="45.87942378672265" lon="9.085710390732993"><ele>1080.3333333333335</ele><time>2026-04-04T09:18:07Z</time></trkpt><trkpt lat="45.87950347030775" lon="9.085683333174503"><ele>1078.0</ele><time>2026-04-04T09:18:09Z</time></trkpt><trkpt lat="45.879567222217226" lon="9.085761747979898"><ele>1075.6666666666667</ele><time>2026-04-04T09:18:12Z</time></trkpt><trkpt lat="45.87959260917431" lon="9.085885619796708"><ele>1073.3333333333333</ele><time>2026-04-04T09:18:15Z</time></trkpt><trkpt lat="45.879579680938754" lon="9.086026199851277"><ele>1071.0</ele><time>2026-04-04T09:18:17Z</time></trkpt><trkpt lat="45.87955062762245" lon="9.086182523489013"><ele>1071.0</ele><time>2026-04-04T09:18:19Z</time></trkpt><trkpt lat="45.8795708894563" lon="9.086314767790538"><ele>1071.0</ele><time>2026-04-04T09:18:21Z</time></trkpt><trkpt lat="45.87955104710174" lon="9.086405497376354"><ele>1071.0</ele><time>2026-04-04T09:18:22Z</time></trkpt><trkpt lat="45.87951021671002" lon="9.086594854721774"><ele>1071.0</ele><time>2026-04-04T09:18:24Z</time></trkpt><trkpt lat="45.87947882560892" lon="9.086769959190871"><ele>1071.0</ele><time>2026-04-04T09:18:26Z</time></trkpt><trkpt lat="45.87946335160936" lon="9.086872174839062"><ele>1068.3999999999999</ele><time>2026-04-04T09:18:27Z</time></trkpt><trkpt lat="45.87944951255916" lon="9.086987059479496"><ele>1065.8</ele><time>2026-04-04T09:18:28Z</time></trkpt><trkpt lat="45.87944124440669" lon="9.087079344366343"><ele>1063.1999999999998</ele><time>2026-04-04T09:18:29Z</time></trkpt><trkpt lat="45.87941854570769" lon="9.087229388365186"><ele>1060.6</ele><time>2026-04-04T09:18:31Z</time></trkpt><trkpt lat="45.879401997679096" lon="9.087370655019976"><ele>1058.0</ele><time>2026-04-04T09:18:35Z</time></trkpt><trkpt lat="45.87940220277754" lon="9.08756707520683"><ele>1056.0</ele><time>2026-04-04T09:18:37Z</time></trkpt><trkpt lat="45.87940670763505" lon="9.087666769846491"><ele>1054.0</ele><time>2026-04-04T09:18:38Z</time></trkpt><trkpt lat="45.87941736151296" lon="9.087763156758568"><ele>1052.0</ele><time>2026-04-04T09:18:39Z</time></trkpt><trkpt lat="45.879431931753096" lon="9.087869669124167"><ele>1050.0</ele><time>2026-04-04T09:18:40Z</time></trkpt><trkpt lat="45.87945471818138" lon="9.087960613335941"><ele>1048.0</ele><time>2026-04-04T09:18:41Z</time></trkpt><trkpt lat="45.87949179523624" lon="9.088046155664404"><ele>1046.0</ele><time>2026-04-04T09:18:42Z</time></trkpt><trkpt lat="45.87955669259397" lon="9.088095203955445"><ele>1044.0</ele><time>2026-04-04T09:18:44Z</time></trkpt><trkpt lat="45.87959451489893" lon="9.088176137385021"><ele>1044.0</ele><time>2026-04-04T09:18:47Z</time></trkpt><trkpt lat="45.87966929970686" lon="9.088231563391782"><ele>1044.0</ele><time>2026-04-04T09:19:06Z</time></trkpt><trkpt lat="45.87960476930497" lon="9.088157304432002"><ele>1044.0</ele><time>2026-04-04T09:19:15.001Z</time></trkpt><trkpt lat="45.87956875635157" lon="9.088068421107605"><ele>1044.0</ele><time>2026-04-04T09:19:17.001Z</time></trkpt><trkpt lat="45.8796176746428" lon="9.088143399627045"><ele>1044.0</ele><time>2026-04-04T09:19:48Z</time></trkpt><trkpt lat="45.87963919353759" lon="9.088231510162808"><ele>1044.0</ele><time>2026-04-04T09:19:52Z</time></trkpt><trkpt lat="45.87967458510941" lon="9.088336608419278"><ele>1045.3333333333333</ele><time>2026-04-04T09:20:14Z</time></trkpt><trkpt lat="45.87971980316812" lon="9.088455413520757"><ele>1046.6666666666667</ele><time>2026-04-04T09:20:17Z</time></trkpt><trkpt lat="45.87979136127536" lon="9.088584366875333"><ele>1048.0</ele><time>2026-04-04T09:20:19Z</time></trkpt><trkpt lat="45.879858398483364" lon="9.088632335196333"><ele>1049.3333333333335</ele><time>2026-04-04T09:20:20Z</time></trkpt><trkpt lat="45.87993430649859" lon="9.088663042681898"><ele>1050.6666666666667</ele><time>2026-04-04T09:20:21Z</time></trkpt><trkpt lat="45.87999885381294" lon="9.088665863112837"><ele>1052.0</ele><time>2026-04-04T09:20:23Z</time></trkpt><trkpt lat="45.8800879673455" lon="9.088688085332887"><ele>1052.0</ele><time>2026-04-04T09:20:28Z</time></trkpt><trkpt lat="45.88015859381713" lon="9.088666346479366"><ele>1052.0</ele><time>2026-04-04T09:20:31Z</time></trkpt><trkpt lat="45.880228510412884" lon="9.088612729365236"><ele>1052.0</ele><time>2026-04-04T09:20:34Z</time></trkpt><trkpt lat="45.880294294353064" lon="9.088572992250265"><ele>1052.0</ele><time>2026-04-04T09:20:45Z</time></trkpt><trkpt lat="45.88024833044669" lon="9.08865120032241"><ele>1052.0</ele><time>2026-04-04T09:21:08Z</time></trkpt><trkpt lat="45.880175818588704" lon="9.0886998925505"><ele>1052.0</ele><time>2026-04-04T09:21:10Z</time></trkpt><trkpt lat="45.88008838615565" lon="9.088761542583415"><ele>1052.0</ele><time>2026-04-04T09:21:12Z</time></trkpt><trkpt lat="45.88001843707702" lon="9.088753512486692"><ele>1052.0</ele><time>2026-04-04T09:21:14Z</time></trkpt><trkpt lat="45.87992312569786" lon="9.088727705810077"><ele>1052.0</ele><time>2026-04-04T09:21:16Z</time></trkpt><trkpt lat="45.87984926823624" lon="9.088678330841418"><ele>1052.0</ele><time>2026-04-04T09:21:18Z</time></trkpt><trkpt lat="45.87978060512582" lon="9.088583070639613"><ele>1052.0</ele><time>2026-04-04T09:21:20Z</time></trkpt><trkpt lat="45.8797139911679" lon="9.088453690883636"><ele>1052.0</ele><time>2026-04-04T09:21:24Z</time></trkpt><trkpt lat="45.87966680776713" lon="9.08837886173612"><ele>1052.0</ele><time>2026-04-04T09:21:26Z</time></trkpt><trkpt lat="45.8796331115802" lon="9.088284868661955"><ele>1052.0</ele><time>2026-04-04T09:21:28Z</time></trkpt><trkpt lat="45.87960770545286" lon="9.088177172668074"><ele>1052.0</ele><time>2026-04-04T09:21:35Z</time></trkpt><trkpt lat="45.87960956135629" lon="9.088076343593523"><ele>1052.0</ele><time>2026-04-04T09:21:39Z</time></trkpt><trkpt lat="45.87961283679631" lon="9.087963592617207"><ele>1052.0</ele><time>2026-04-04T09:21:43Z</time></trkpt><trkpt lat="45.879660136573065" lon="9.087881189365739"><ele>1052.0</ele><time>2026-04-04T09:21:53Z</time></trkpt><trkpt lat="45.87971103047591" lon="9.087795814328118"><ele>1050.857142857143</ele><time>2026-04-04T09:22:00Z</time></trkpt><trkpt lat="45.8797352878747" lon="9.087698838032626"><ele>1049.7142857142856</ele><time>2026-04-04T09:22:04Z</time></trkpt><trkpt lat="45.87980918980673" lon="9.087656321056155"><ele>1048.5714285714284</ele><time>2026-04-04T09:22:12Z</time></trkpt><trkpt lat="45.87987656131231" lon="9.08762302930018"><ele>1047.4285714285713</ele><time>2026-04-04T09:22:17Z</time></trkpt><trkpt lat="45.879942673820935" lon="9.087588305063697"><ele>1046.2857142857142</ele><time>2026-04-04T09:22:21Z</time></trkpt><trkpt lat="45.87999947010735" lon="9.087548658799045"><ele>1045.142857142857</ele><time>2026-04-04T09:22:27Z</time></trkpt><trkpt lat="45.880066797840776" lon="9.087529263909575"><ele>1044.0</ele><time>2026-04-04T09:22:34Z</time></trkpt><trkpt lat="45.88012480759427" lon="9.087479368011488"><ele>1039.0</ele><time>2026-04-04T09:22:43Z</time></trkpt><trkpt lat="45.880187128268844" lon="9.087454322482053"><ele>1034.0</ele><time>2026-04-04T09:22:51Z</time></trkpt><trkpt lat="45.880270083569755" lon="9.08744205155305"><ele>1029.0</ele><time>2026-04-04T09:23:00Z</time></trkpt><trkpt lat="45.880345650337084" lon="9.08746099790334"><ele>1024.0</ele><time>2026-04-04T09:23:08Z</time></trkpt><trkpt lat="45.880410349206905" lon="9.08744906397739"><ele>1019.0</ele><time>2026-04-04T09:23:12Z</time></trkpt><trkpt lat="45.88048738774963" lon="9.087413508523953"><ele>1014.0</ele><time>2026-04-04T09:23:17Z</time></trkpt><trkpt lat="45.88055013807314" lon="9.087398491257149"><ele>1009.0</ele><time>2026-04-04T09:23:42Z</time></trkpt><trkpt lat="45.880602219478355" lon="9.08728134325475"><ele>1008.9999999999999</ele><time>2026-04-04T09:24:07Z</time></trkpt><trkpt lat="45.8806767813402" lon="9.087256722870933"><ele>1009.0</ele><time>2026-04-04T09:24:16Z</time></trkpt><trkpt lat="45.88076222739267" lon="9.087270673252648"><ele>1009.0</ele><time>2026-04-04T09:24:24Z</time></trkpt><trkpt lat="45.88083378061121" lon="9.087317938936765"><ele>1009.0</ele><time>2026-04-04T09:24:30Z</time></trkpt><trkpt lat="45.88090009419125" lon="9.087357268852713"><ele>1008.9999999999999</ele><time>2026-04-04T09:24:34Z</time></trkpt><trkpt lat="45.880967062792735" lon="9.08739042705061"><ele>1009.0</ele><time>2026-04-04T09:24:38Z</time></trkpt><trkpt lat="45.88103312721943" lon="9.087399779018577"><ele>1005.4285714285714</ele><time>2026-04-04T09:24:41Z</time></trkpt><trkpt lat="45.881109609276876" lon="9.087402742696591"><ele>1001.8571428571429</ele><time>2026-04-04T09:24:46Z</time></trkpt><trkpt lat="45.88118297092211" lon="9.087432351289797"><ele>998.2857142857143</ele><time>2026-04-04T09:24:49Z</time></trkpt><trkpt lat="45.88124249884709" lon="9.087463086502108"><ele>994.7142857142858</ele><time>2026-04-04T09:24:53Z</time></trkpt><trkpt lat="45.88131095654764" lon="9.087499051455477"><ele>991.1428571428571</ele><time>2026-04-04T09:24:56Z</time></trkpt><trkpt lat="45.88137714746645" lon="9.087524217903333"><ele>987.5714285714287</ele><time>2026-04-04T09:25:00Z</time></trkpt><trkpt lat="45.88143630315066" lon="9.087559993214235"><ele>984.0000000000001</ele><time>2026-04-04T09:25:02Z</time></trkpt><trkpt lat="45.88150546617369" lon="9.087544428657731"><ele>984.0000000000001</ele><time>2026-04-04T09:25:15Z</time></trkpt><trkpt lat="45.88155311299734" lon="9.08748492134418"><ele>984.0</ele><time>2026-04-04T09:25:19Z</time></trkpt><trkpt lat="45.881588560775285" lon="9.087407798489235"><ele>984.0000000000001</ele><time>2026-04-04T09:25:24Z</time></trkpt><trkpt lat="45.88161775423054" lon="9.087323391881869"><ele>984.0000000000001</ele><time>2026-04-04T09:25:28Z</time></trkpt><trkpt lat="45.881660093133476" lon="9.087238766171485"><ele>984.0</ele><time>2026-04-04T09:25:33Z</time></trkpt><trkpt lat="45.88169012030173" lon="9.087131449315232"><ele>984.0000000000001</ele><time>2026-04-04T09:25:37Z</time></trkpt><trkpt lat="45.88175184059867" lon="9.087058093525608"><ele>984.0000000000001</ele><time>2026-04-04T09:25:58Z</time></trkpt><trkpt lat="45.881793062608004" lon="9.087127834431604"><ele>977.857142857143</ele><time>2026-04-04T09:26:03Z</time></trkpt><trkpt lat="45.881857513802835" lon="9.087132464085778"><ele>971.7142857142858</ele><time>2026-04-04T09:26:16Z</time></trkpt><trkpt lat="45.8819152851807" lon="9.087077043935798"><ele>965.5714285714286</ele><time>2026-04-04T09:26:22Z</time></trkpt><trkpt lat="45.88198002207526" lon="9.087051506116602"><ele>959.4285714285714</ele><time>2026-04-04T09:26:26Z</time></trkpt><trkpt lat="45.8820597651054" lon="9.087023093997681"><ele>953.2857142857142</ele><time>2026-04-04T09:26:30Z</time></trkpt><trkpt lat="45.88213493916971" lon="9.087006289513418"><ele>947.142857142857</ele><time>2026-04-04T09:26:36Z</time></trkpt><trkpt lat="45.88219812589383" lon="9.086997768080511"><ele>940.9999999999999</ele><time>2026-04-04T09:26:42Z</time></trkpt><trkpt lat="45.882260983296696" lon="9.086963011656662"><ele>941.0000000000001</ele><time>2026-04-04T09:26:48Z</time></trkpt><trkpt lat="45.8823120887643" lon="9.086904531088843"><ele>941.0</ele><time>2026-04-04T09:26:54Z</time></trkpt><trkpt lat="45.88238881934286" lon="9.08688996805367"><ele>941.0</ele><time>2026-04-04T09:26:57Z</time></trkpt><trkpt lat="45.88249678524569" lon="9.08687575822708"><ele>941.0</ele><time>2026-04-04T09:27:26Z</time></trkpt><trkpt lat="45.88256328635612" lon="9.086923943127267"><ele>941.0000000000001</ele><time>2026-04-04T09:27:32Z</time></trkpt><trkpt lat="45.88262435373578" lon="9.086982416507114"><ele>941.0</ele><time>2026-04-04T09:27:35Z</time></trkpt><trkpt lat="45.88268772393365" lon="9.086999183908992"><ele>936.1999999999999</ele><time>2026-04-04T09:27:40Z</time></trkpt><trkpt lat="45.882774229557555" lon="9.087029811025204"><ele>931.3999999999999</ele><time>2026-04-04T09:27:44Z</time></trkpt><trkpt lat="45.88285518406143" lon="9.087048285655221"><ele>926.6</ele><time>2026-04-04T09:27:49Z</time></trkpt><trkpt lat="45.88296718248365" lon="9.087115880439061"><ele>921.8</ele><time>2026-04-04T09:28:10Z</time></trkpt><trkpt lat="45.88307055096038" lon="9.08712113975318"><ele>917.0</ele><time>2026-04-04T09:28:59Z</time></trkpt><trkpt lat="45.88298420258242" lon="9.087115098357142"><ele>917.0</ele><time>2026-04-04T09:29:58Z</time></trkpt><trkpt lat="45.882965248377346" lon="9.087202372066802"><ele>917.0</ele><time>2026-04-04T09:31:26Z</time></trkpt><trkpt lat="45.883031518159626" lon="9.087205686642061"><ele>917.0</ele><time>2026-04-04T09:32:39Z</time></trkpt><trkpt lat="45.88309626733565" lon="9.087182566603754"><ele>917.0</ele><time>2026-04-04T09:32:45Z</time></trkpt><trkpt lat="45.88317667403779" lon="9.087211731706352"><ele>917.0</ele><time>2026-04-04T09:32:48Z</time></trkpt><trkpt lat="45.883245700721254" lon="9.08720549115158"><ele>917.0</ele><time>2026-04-04T09:32:54Z</time></trkpt><trkpt lat="45.88330742154084" lon="9.087231871289289"><ele>917.0</ele><time>2026-04-04T09:32:59Z</time></trkpt><trkpt lat="45.88335190052998" lon="9.08716703331545"><ele>917.0</ele><time>2026-04-04T09:33:40Z</time></trkpt><trkpt lat="45.88341474748454" lon="9.087181017569888"><ele>917.0</ele><time>2026-04-04T09:33:51Z</time></trkpt><trkpt lat="45.88347246136063" lon="9.087221770757147"><ele>917.0</ele><time>2026-04-04T09:34:00Z</time></trkpt><trkpt lat="45.883548336576816" lon="9.087269233712565"><ele>917.0</ele><time>2026-04-04T09:34:05Z</time></trkpt><trkpt lat="45.88361338845398" lon="9.08728606447845"><ele>917.0</ele><time>2026-04-04T09:34:09Z</time></trkpt><trkpt lat="45.883674477820996" lon="9.087257224001624"><ele>917.0</ele><time>2026-04-04T09:34:23Z</time></trkpt><trkpt lat="45.88372922916545" lon="9.0873075836076"><ele>917.0</ele><time>2026-04-04T09:34:34Z</time></trkpt><trkpt lat="45.883793800829196" lon="9.08728098280321"><ele>915.2857142857142</ele><time>2026-04-04T09:34:42Z</time></trkpt><trkpt lat="45.88386602432923" lon="9.087305938701443"><ele>913.5714285714286</ele><time>2026-04-04T09:34:45Z</time></trkpt><trkpt lat="45.88393954409861" lon="9.087308235180585"><ele>911.8571428571429</ele><time>2026-04-04T09:34:49Z</time></trkpt><trkpt lat="45.88400853937334" lon="9.08730083462343"><ele>910.1428571428571</ele><time>2026-04-04T09:35:00Z</time></trkpt><trkpt lat="45.88407639634877" lon="9.087271879208487"><ele>908.4285714285713</ele><time>2026-04-04T09:35:12Z</time></trkpt><trkpt lat="45.88413721657281" lon="9.08730754304753"><ele>906.7142857142857</ele><time>2026-04-04T09:35:27Z</time></trkpt><trkpt lat="45.88422727992733" lon="9.087326428548947"><ele>905.0</ele><time>2026-04-04T09:36:08Z</time></trkpt><trkpt lat="45.884291531063354" lon="9.087309512858289"><ele>905.1666666666667</ele><time>2026-04-04T09:36:14Z</time></trkpt><trkpt lat="45.88434682131477" lon="9.087202374562137"><ele>905.3333333333334</ele><time>2026-04-04T09:37:53Z</time></trkpt><trkpt lat="45.8844167517388" lon="9.087222521634134"><ele>905.5</ele><time>2026-04-04T09:37:58Z</time></trkpt><trkpt lat="45.8844738229884" lon="9.087288820329796"><ele>905.6666666666667</ele><time>2026-04-04T09:38:03Z</time></trkpt><trkpt lat="45.884557501391946" lon="9.087344829996793"><ele>905.8333333333334</ele><time>2026-04-04T09:38:07Z</time></trkpt><trkpt lat="45.88463330596243" lon="9.087416042422664"><ele>906.0</ele><time>2026-04-04T09:38:09Z</time></trkpt><trkpt lat="45.88469007035073" lon="9.08751045111144"><ele>903.8333333333334</ele><time>2026-04-04T09:38:12Z</time></trkpt><trkpt lat="45.88475375759067" lon="9.08742372084056"><ele>901.6666666666667</ele><time>2026-04-04T09:38:16Z</time></trkpt><trkpt lat="45.88481215069393" lon="9.087387207552766"><ele>899.5</ele><time>2026-04-04T09:38:19Z</time></trkpt><trkpt lat="45.88487741107741" lon="9.087322671572288"><ele>897.3333333333334</ele><time>2026-04-04T09:38:23Z</time></trkpt><trkpt lat="45.88493452997233" lon="9.087269333488454"><ele>895.1666666666667</ele><time>2026-04-04T09:38:25Z</time></trkpt><trkpt lat="45.8850071864734" lon="9.087204913184676"><ele>893.0</ele><time>2026-04-04T09:38:28Z</time></trkpt><trkpt lat="45.885058724061665" lon="9.087145223987104"><ele>889.3333333333334</ele><time>2026-04-04T09:38:30Z</time></trkpt><trkpt lat="45.88509981166691" lon="9.087066673053089"><ele>885.6666666666667</ele><time>2026-04-04T09:38:32Z</time></trkpt><trkpt lat="45.88515135013331" lon="9.086991507651826"><ele>882.0</ele><time>2026-04-04T09:38:34Z</time></trkpt><trkpt lat="45.88519850676109" lon="9.08691136053213"><ele>878.3333333333333</ele><time>2026-04-04T09:38:36Z</time></trkpt><trkpt lat="45.88525059751417" lon="9.086845819063067"><ele>874.6666666666666</ele><time>2026-04-04T09:38:38Z</time></trkpt><trkpt lat="45.885310462963055" lon="9.086742796742909"><ele>871.0</ele><time>2026-04-04T09:38:41Z</time></trkpt><trkpt lat="45.88536364388834" lon="9.086637819449345"><ele>869.4999999999999</ele><time>2026-04-04T09:38:44Z</time></trkpt><trkpt lat="45.88542165392572" lon="9.086537393220599"><ele>868.0</ele><time>2026-04-04T09:38:47Z</time></trkpt><trkpt lat="45.88547072795291" lon="9.086471235984659"><ele>866.5</ele><time>2026-04-04T09:38:49Z</time></trkpt><trkpt lat="45.88554599118889" lon="9.086389995336319"><ele>865.0</ele><time>2026-04-04T09:38:52Z</time></trkpt><trkpt lat="45.885610737141995" lon="9.086345787955889"><ele>863.4999999999999</ele><time>2026-04-04T09:38:55Z</time></trkpt><trkpt lat="45.885648573711975" lon="9.086238933295853"><ele>862.0</ele><time>2026-04-04T09:38:59Z</time></trkpt><trkpt lat="45.88570109086991" lon="9.086180348601536"><ele>861.9999999999999</ele><time>2026-04-04T09:39:03Z</time></trkpt><trkpt lat="45.88576392500395" lon="9.086126463643009"><ele>862.0</ele><time>2026-04-04T09:39:07Z</time></trkpt><trkpt lat="45.88583852441966" lon="9.086087094946656"><ele>862.0</ele><time>2026-04-04T09:39:13Z</time></trkpt><trkpt lat="45.8858941301254" lon="9.086017082917419"><ele>862.0</ele><time>2026-04-04T09:39:47Z</time></trkpt><trkpt lat="45.88595978938494" lon="9.085969092436407"><ele>861.9999999999999</ele><time>2026-04-04T09:39:54Z</time></trkpt><trkpt lat="45.88602355916555" lon="9.085901166762435"><ele>862.0</ele><time>2026-04-04T09:39:58Z</time></trkpt><trkpt lat="45.88609123115243" lon="9.085844976281336"><ele>857.6666666666666</ele><time>2026-04-04T09:40:03Z</time></trkpt><trkpt lat="45.88616848131596" lon="9.085842171625844"><ele>853.3333333333333</ele><time>2026-04-04T09:40:07Z</time></trkpt><trkpt lat="45.886249262660584" lon="9.08582915952099"><ele>849.0</ele><time>2026-04-04T09:40:11Z</time></trkpt><trkpt lat="45.88630625889465" lon="9.085756541774728"><ele>844.6666666666667</ele><time>2026-04-04T09:40:15Z</time></trkpt><trkpt lat="45.88637658158626" lon="9.085709303261936"><ele>840.3333333333334</ele><time>2026-04-04T09:40:19Z</time></trkpt><trkpt lat="45.88645094162133" lon="9.085696163148146"><ele>836.0</ele><time>2026-04-04T09:40:22Z</time></trkpt><trkpt lat="45.886532944014704" lon="9.085705862258177"><ele>833.3333333333334</ele><time>2026-04-04T09:40:25Z</time></trkpt><trkpt lat="45.886597622651074" lon="9.085661906300729"><ele>830.6666666666667</ele><time>2026-04-04T09:40:28Z</time></trkpt><trkpt lat="45.88667649821179" lon="9.085625537465496"><ele>828.0</ele><time>2026-04-04T09:40:31Z</time></trkpt><trkpt lat="45.88675371503235" lon="9.08557024854683"><ele>825.3333333333333</ele><time>2026-04-04T09:40:34Z</time></trkpt><trkpt lat="45.88682845903497" lon="9.085548386981287"><ele>822.6666666666666</ele><time>2026-04-04T09:40:36.999Z</time></trkpt><trkpt lat="45.886896212857565" lon="9.085571554215177"><ele>820.0</ele><time>2026-04-04T09:40:40.999Z</time></trkpt><trkpt lat="45.88692968752803" lon="9.085678457547429"><ele>816.9999999999999</ele><time>2026-04-04T09:40:45Z</time></trkpt><trkpt lat="45.8869928462168" lon="9.085753446556819"><ele>814.0</ele><time>2026-04-04T09:40:48Z</time></trkpt><trkpt lat="45.887062684996074" lon="9.085766797870374"><ele>811.0</ele><time>2026-04-04T09:41:30Z</time></trkpt><trkpt lat="45.88706521461911" lon="9.08587688044716"><ele>808.0</ele><time>2026-04-04T09:41:38Z</time></trkpt><trkpt lat="45.88711372554778" lon="9.085974238334789"><ele>804.9999999999999</ele><time>2026-04-04T09:41:43Z</time></trkpt><trkpt lat="45.88709428594652" lon="9.086072535299529"><ele>802.0</ele><time>2026-04-04T09:41:48Z</time></trkpt><trkpt lat="45.88708757045077" lon="9.086173951327732"><ele>801.9999999999999</ele><time>2026-04-04T09:41:51Z</time></trkpt><trkpt lat="45.88709466855804" lon="9.086292738801237"><ele>802.0</ele><time>2026-04-04T09:42:18Z</time></trkpt><trkpt lat="45.887103336037065" lon="9.086389970945465"><ele>802.0</ele><time>2026-04-04T09:42:22Z</time></trkpt><trkpt lat="45.88708667332272" lon="9.086252144823412"><ele>802.0</ele><time>2026-04-04T09:42:52Z</time></trkpt><trkpt lat="45.88708227853942" lon="9.086133352242344"><ele>801.9999999999999</ele><time>2026-04-04T09:42:57Z</time></trkpt><trkpt lat="45.887086674212966" lon="9.086030558340743"><ele>802.0</ele><time>2026-04-04T09:43:00Z</time></trkpt><trkpt lat="45.88710656544657" lon="9.08594016685752"><ele>802.0</ele><time>2026-04-04T09:43:03Z</time></trkpt><trkpt lat="45.887108897241646" lon="9.0858326915439"><ele>802.0</ele><time>2026-04-04T09:43:09Z</time></trkpt><trkpt lat="45.88718490969262" lon="9.085841247976926"><ele>802.0</ele><time>2026-04-04T09:43:16.001Z</time></trkpt><trkpt lat="45.88720961760529" lon="9.085948055095121"><ele>802.0</ele><time>2026-04-04T09:43:21.001Z</time></trkpt><trkpt lat="45.88722424138557" lon="9.086036792883926"><ele>802.0</ele><time>2026-04-04T09:43:28.001Z</time></trkpt><trkpt lat="45.887252525984195" lon="9.086136583758163"><ele>802.0</ele><time>2026-04-04T09:43:35.001Z</time></trkpt><trkpt lat="45.88729018934485" lon="9.086225674758992"><ele>802.0</ele><time>2026-04-04T09:43:45.001Z</time></trkpt><trkpt lat="45.88733751199403" lon="9.086292462075551"><ele>802.0</ele><time>2026-04-04T09:44:15.001Z</time></trkpt><trkpt lat="45.88739926755742" lon="9.086315025099715"><ele>802.0</ele><time>2026-04-04T09:44:34.001Z</time></trkpt><trkpt lat="45.88745978490874" lon="9.0863485604739"><ele>802.0</ele><time>2026-04-04T09:44:59Z</time></trkpt><trkpt lat="45.88753205123165" lon="9.086349239243829"><ele>802.0</ele><time>2026-04-04T09:45:16Z</time></trkpt><trkpt lat="45.88749414071007" lon="9.086423421637537"><ele>802.0</ele><time>2026-04-04T09:46:24Z</time></trkpt><trkpt lat="45.887448921279734" lon="9.086357351517371"><ele>802.0</ele><time>2026-04-04T09:46:56Z</time></trkpt><trkpt lat="45.88754131538413" lon="9.086287175892041"><ele>802.0</ele><time>2026-04-04T09:52:35Z</time></trkpt><trkpt lat="45.88749108271275" lon="9.086342121551493"><ele>801.9999999999999</ele><time>2026-04-04T09:52:44Z</time></trkpt><trkpt lat="45.887426753734744" lon="9.086362794255173"><ele>802.0</ele><time>2026-04-04T09:52:51Z</time></trkpt><trkpt lat="45.887329231149145" lon="9.086375586747929"><ele>802.0</ele><time>2026-04-04T09:53:43Z</time></trkpt><trkpt lat="45.88732543089656" lon="9.086260482366695"><ele>802.0</ele><time>2026-04-04T09:55:15Z</time></trkpt><trkpt lat="45.88730516497556" lon="9.086173230817444"><ele>801.9999999999999</ele><time>2026-04-04T09:55:17Z</time></trkpt><trkpt lat="45.8872821296497" lon="9.086056198985895"><ele>802.0</ele><time>2026-04-04T09:55:21Z</time></trkpt><trkpt lat="45.88725263968501" lon="9.085974811876314"><ele>802.0</ele><time>2026-04-04T09:55:23Z</time></trkpt><trkpt lat="45.887233207035045" lon="9.085851119442179"><ele>802.0</ele><time>2026-04-04T09:55:26Z</time></trkpt><trkpt lat="45.887209744687134" lon="9.085764501304805"><ele>802.0</ele><time>2026-04-04T09:55:28Z</time></trkpt><trkpt lat="45.887195874171006" lon="9.08563684311688"><ele>802.0</ele><time>2026-04-04T09:55:30Z</time></trkpt><trkpt lat="45.887195435222694" lon="9.085544727765148"><ele>802.0</ele><time>2026-04-04T09:55:34Z</time></trkpt><trkpt lat="45.88723857686414" lon="9.085453887290692"><ele>802.0</ele><time>2026-04-04T09:55:39Z</time></trkpt><trkpt lat="45.887242309171796" lon="9.085361641546765"><ele>802.0</ele><time>2026-04-04T09:55:43Z</time></trkpt><trkpt lat="45.88718831749223" lon="9.08528832783318"><ele>799.8571428571429</ele><time>2026-04-04T09:55:47Z</time></trkpt><trkpt lat="45.887158570813796" lon="9.085202910841227"><ele>797.7142857142858</ele><time>2026-04-04T09:55:52Z</time></trkpt><trkpt lat="45.88711266241117" lon="9.085131105024258"><ele>795.5714285714286</ele><time>2026-04-04T09:56:04Z</time></trkpt><trkpt lat="45.887079176317236" lon="9.08504307692658"><ele>793.4285714285714</ele><time>2026-04-04T09:56:07Z</time></trkpt><trkpt lat="45.8870789633989" lon="9.084945968364714"><ele>791.2857142857142</ele><time>2026-04-04T09:56:13Z</time></trkpt><trkpt lat="45.88715008914673" lon="9.08491623445253"><ele>789.1428571428571</ele><time>2026-04-04T09:56:18Z</time></trkpt><trkpt lat="45.88713975469796" lon="9.084813775849938"><ele>787.0</ele><time>2026-04-04T09:56:24Z</time></trkpt><trkpt lat="45.88718082632473" lon="9.084733323913456"><ele>784.9999999999999</ele><time>2026-04-04T09:56:31Z</time></trkpt><trkpt lat="45.88727463797203" lon="9.0846173954091"><ele>783.0</ele><time>2026-04-04T09:56:34Z</time></trkpt><trkpt lat="45.887335369104484" lon="9.084645225732595"><ele>781.0</ele><time>2026-04-04T09:56:36Z</time></trkpt><trkpt lat="45.8874023028273" lon="9.084675308936117"><ele>779.0</ele><time>2026-04-04T09:56:39Z</time></trkpt><trkpt lat="45.88747027399616" lon="9.084750485111211"><ele>776.9999999999999</ele><time>2026-04-04T09:56:43Z</time></trkpt><trkpt lat="45.887530267555675" lon="9.084798290579423"><ele>775.0</ele><time>2026-04-04T09:56:47Z</time></trkpt><trkpt lat="45.88760645191751" lon="9.084803711289647"><ele>779.6666666666666</ele><time>2026-04-04T09:56:52Z</time></trkpt><trkpt lat="45.8876031480582" lon="9.084712546165642"><ele>784.3333333333333</ele><time>2026-04-04T09:57:02Z</time></trkpt><trkpt lat="45.88765925489508" lon="9.084784034872794"><ele>789.0</ele><time>2026-04-04T09:57:08Z</time></trkpt><trkpt lat="45.887704671162886" lon="9.084894064428601"><ele>793.6666666666667</ele><time>2026-04-04T09:57:14Z</time></trkpt><trkpt lat="45.887756927510196" lon="9.084994664478318"><ele>798.3333333333334</ele><time>2026-04-04T09:57:18Z</time></trkpt><trkpt lat="45.88778652261166" lon="9.08509919372209"><ele>803.0</ele><time>2026-04-04T09:57:23Z</time></trkpt><trkpt lat="45.88784572543449" lon="9.085218111683595"><ele>803.0000000000001</ele><time>2026-04-04T09:57:35Z</time></trkpt><trkpt lat="45.88786283378734" lon="9.085322814417292"><ele>803.0</ele><time>2026-04-04T09:57:43Z</time></trkpt><trkpt lat="45.887926657748835" lon="9.08530482837862"><ele>803.0</ele><time>2026-04-04T09:58:33Z</time></trkpt><trkpt lat="45.88790334815298" lon="9.085415546931932"><ele>803.0</ele><time>2026-04-04T09:58:38Z</time></trkpt><trkpt lat="45.887878434285085" lon="9.08552696398815"><ele>803.0000000000001</ele><time>2026-04-04T09:58:41Z</time></trkpt><trkpt lat="45.88784765740695" lon="9.085612371814255"><ele>803.0</ele><time>2026-04-04T09:58:44Z</time></trkpt><trkpt lat="45.88791470900837" lon="9.085537320156053"><ele>802.9999999999999</ele><time>2026-04-04T09:58:49Z</time></trkpt><trkpt lat="45.88798013079556" lon="9.085529693785737"><ele>803.0</ele><time>2026-04-04T09:58:51Z</time></trkpt><trkpt lat="45.88804412221231" lon="9.085521450579042"><ele>803.0</ele><time>2026-04-04T09:58:54Z</time></trkpt><trkpt lat="45.88810815807076" lon="9.085539013513516"><ele>803.0</ele><time>2026-04-04T09:59:03Z</time></trkpt><trkpt lat="45.888108959219906" lon="9.085629613976382"><ele>803.0</ele><time>2026-04-04T09:59:18Z</time></trkpt><trkpt lat="45.88816227314961" lon="9.085679951249862"><ele>802.9999999999999</ele><time>2026-04-04T09:59:35Z</time></trkpt><trkpt lat="45.888253797869204" lon="9.085669041514873"><ele>803.0</ele><time>2026-04-04T10:01:20Z</time></trkpt><trkpt lat="45.8882705265726" lon="9.08578096841562"><ele>802.5999999999999</ele><time>2026-04-04T10:02:14Z</time></trkpt><trkpt lat="45.888153858914706" lon="9.085932509784678"><ele>802.1999999999999</ele><time>2026-04-04T10:02:43Z</time></trkpt><trkpt lat="45.88821788815717" lon="9.085965965563275"><ele>801.8</ele><time>2026-04-04T10:02:48Z</time></trkpt><trkpt lat="45.88826956043692" lon="9.086030743960958"><ele>801.4</ele><time>2026-04-04T10:02:52Z</time></trkpt><trkpt lat="45.88830969642197" lon="9.086115824368475"><ele>801.0</ele><time>2026-04-04T10:02:55Z</time></trkpt><trkpt lat="45.88837284711316" lon="9.08625080641746"><ele>806.8333333333334</ele><time>2026-04-04T10:03:04Z</time></trkpt><trkpt lat="45.8884615876541" lon="9.086302919121266"><ele>812.6666666666667</ele><time>2026-04-04T10:03:08Z</time></trkpt><trkpt lat="45.88852075527757" lon="9.08633701407509"><ele>818.5</ele><time>2026-04-04T10:03:11Z</time></trkpt><trkpt lat="45.88848709662081" lon="9.086418703604867"><ele>824.3333333333334</ele><time>2026-04-04T10:03:26Z</time></trkpt><trkpt lat="45.88851298119143" lon="9.08650667214136"><ele>830.1666666666667</ele><time>2026-04-04T10:03:34Z</time></trkpt><trkpt lat="45.8885803663858" lon="9.086568412562537"><ele>836.0</ele><time>2026-04-04T10:03:38Z</time></trkpt><trkpt lat="45.888636987851235" lon="9.086674505476145"><ele>836.0</ele><time>2026-04-04T10:03:42Z</time></trkpt><trkpt lat="45.8886783113742" lon="9.086774577037453"><ele>836.0</ele><time>2026-04-04T10:03:46Z</time></trkpt><trkpt lat="45.888705189470215" lon="9.086876859410292"><ele>836.0</ele><time>2026-04-04T10:04:25Z</time></trkpt><trkpt lat="45.88876140569108" lon="9.086932983691819"><ele>836.0</ele><time>2026-04-04T10:04:30Z</time></trkpt><trkpt lat="45.88872801602854" lon="9.0870161410664"><ele>836.0</ele><time>2026-04-04T10:04:43Z</time></trkpt><trkpt lat="45.88876424372663" lon="9.08709648938797"><ele>836.0</ele><time>2026-04-04T10:04:54Z</time></trkpt><trkpt lat="45.88880353041862" lon="9.087176575189202"><ele>836.0</ele><time>2026-04-04T10:04:58Z</time></trkpt><trkpt lat="45.88885817760765" lon="9.087224632011472"><ele>836.0</ele><time>2026-04-04T10:05:00Z</time></trkpt><trkpt lat="45.88888200688161" lon="9.087320327919551"><ele>836.0</ele><time>2026-04-04T10:05:03Z</time></trkpt><trkpt lat="45.888940030819704" lon="9.087374353508485"><ele>836.0</ele><time>2026-04-04T10:05:06Z</time></trkpt><trkpt lat="45.88899770087566" lon="9.08747901064992"><ele>836.0</ele><time>2026-04-04T10:05:09Z</time></trkpt><trkpt lat="45.88904680918254" lon="9.087550748607212"><ele>836.0</ele><time>2026-04-04T10:05:12Z</time></trkpt><trkpt lat="45.889087620337456" lon="9.087628193026779"><ele>836.0</ele><time>2026-04-04T10:05:15Z</time></trkpt><trkpt lat="45.88907971676483" lon="9.087719250418917"><ele>836.0</ele><time>2026-04-04T10:05:28Z</time></trkpt><trkpt lat="45.889015469052495" lon="9.087711631599102"><ele>839.3333333333334</ele><time>2026-04-04T10:05:32Z</time></trkpt><trkpt lat="45.888998220368904" lon="9.087809230249787"><ele>842.6666666666667</ele><time>2026-04-04T10:05:51Z</time></trkpt><trkpt lat="45.88904640880664" lon="9.087888068937097"><ele>846.0</ele><time>2026-04-04T10:05:56Z</time></trkpt><trkpt lat="45.889096564026936" lon="9.087969508003129"><ele>849.3333333333333</ele><time>2026-04-04T10:06:01Z</time></trkpt><trkpt lat="45.889212162975106" lon="9.088070605343733"><ele>852.6666666666666</ele><time>2026-04-04T10:07:49Z</time></trkpt><trkpt lat="45.889249388432205" lon="9.08815331116093"><ele>856.0</ele><time>2026-04-04T10:07:52Z</time></trkpt><trkpt lat="45.88919599403956" lon="9.088212137809709"><ele>860.6666666666666</ele><time>2026-04-04T10:08:04Z</time></trkpt><trkpt lat="45.88920329558138" lon="9.088303261154886"><ele>865.3333333333333</ele><time>2026-04-04T10:08:12Z</time></trkpt><trkpt lat="45.88922569897775" lon="9.088409695434255"><ele>870.0</ele><time>2026-04-04T10:08:15Z</time></trkpt><trkpt lat="45.88927637146029" lon="9.088508071940254"><ele>874.6666666666667</ele><time>2026-04-04T10:08:18Z</time></trkpt><trkpt lat="45.88931701435723" lon="9.088606819844104"><ele>879.3333333333334</ele><time>2026-04-04T10:08:22Z</time></trkpt><trkpt lat="45.889309226678975" lon="9.088714351241979"><ele>884.0</ele><time>2026-04-04T10:08:25Z</time></trkpt><trkpt lat="45.889335595987035" lon="9.088838458059932"><ele>884.1666666666667</ele><time>2026-04-04T10:08:28Z</time></trkpt><trkpt lat="45.88934852539536" lon="9.08894751809398"><ele>884.3333333333334</ele><time>2026-04-04T10:08:31Z</time></trkpt><trkpt lat="45.88937709942107" lon="9.089030829400553"><ele>884.5</ele><time>2026-04-04T10:08:33Z</time></trkpt><trkpt lat="45.88937965736985" lon="9.089143174111056"><ele>884.6666666666667</ele><time>2026-04-04T10:08:35Z</time></trkpt><trkpt lat="45.88940236954694" lon="9.089262316558042"><ele>884.8333333333334</ele><time>2026-04-04T10:08:38Z</time></trkpt><trkpt lat="45.889423883110375" lon="9.08937194986665"><ele>885.0</ele><time>2026-04-04T10:08:40Z</time></trkpt><trkpt lat="45.889427354910204" lon="9.089475833985356"><ele>888.1666666666666</ele><time>2026-04-04T10:08:42Z</time></trkpt><trkpt lat="45.889431974507566" lon="9.089592626223173"><ele>891.3333333333333</ele><time>2026-04-04T10:08:44Z</time></trkpt><trkpt lat="45.88943189336047" lon="9.089709084373371"><ele>894.5</ele><time>2026-04-04T10:08:46Z</time></trkpt><trkpt lat="45.88944217540176" lon="9.08981289208879"><ele>897.6666666666666</ele><time>2026-04-04T10:08:48.001Z</time></trkpt><trkpt lat="45.889466149951794" lon="9.08992347036975"><ele>900.8333333333333</ele><time>2026-04-04T10:08:50.001Z</time></trkpt><trkpt lat="45.88947667744844" lon="9.090060091293596"><ele>904.0</ele><time>2026-04-04T10:08:52.001Z</time></trkpt><trkpt lat="45.88947922054808" lon="9.09020402682944"><ele>909.1666666666666</ele><time>2026-04-04T10:08:54.001Z</time></trkpt><trkpt lat="45.889469014281445" lon="9.090295175665021"><ele>914.3333333333333</ele><time>2026-04-04T10:08:56.001Z</time></trkpt><trkpt lat="45.889406286833136" lon="9.090354461159155"><ele>919.5</ele><time>2026-04-04T10:08:59.001Z</time></trkpt><trkpt lat="45.889368844843936" lon="9.090448949060661"><ele>924.6666666666667</ele><time>2026-04-04T10:09:03.001Z</time></trkpt><trkpt lat="45.889373048574654" lon="9.090592209511886"><ele>929.8333333333334</ele><time>2026-04-04T10:09:07.001Z</time></trkpt><trkpt lat="45.889378754018985" lon="9.090686809474233"><ele>935.0</ele><time>2026-04-04T10:09:09.001Z</time></trkpt><trkpt lat="45.88937626246575" lon="9.090818134080129"><ele>940.3333333333334</ele><time>2026-04-04T10:09:12.001Z</time></trkpt><trkpt lat="45.88938923345774" lon="9.09093611948401"><ele>945.6666666666667</ele><time>2026-04-04T10:09:16.001Z</time></trkpt><trkpt lat="45.889430764270855" lon="9.091030069020288"><ele>951.0</ele><time>2026-04-04T10:09:26.001Z</time></trkpt><trkpt lat="45.88943126213673" lon="9.091128812354775"><ele>956.3333333333333</ele><time>2026-04-04T10:09:28.001Z</time></trkpt><trkpt lat="45.88946321026629" lon="9.091219396779334"><ele>961.6666666666666</ele><time>2026-04-04T10:09:30.001Z</time></trkpt><trkpt lat="45.889527330187796" lon="9.091326954980241"><ele>967.0</ele><time>2026-04-04T10:09:32.001Z</time></trkpt><trkpt lat="45.88956795477551" lon="9.091409748133838"><ele>966.9999999999999</ele><time>2026-04-04T10:09:34.001Z</time></trkpt><trkpt lat="45.88962455140095" lon="9.091529669990443"><ele>967.0</ele><time>2026-04-04T10:09:37.001Z</time></trkpt><trkpt lat="45.88964040753226" lon="9.091644673878022"><ele>967.0</ele><time>2026-04-04T10:09:39.001Z</time></trkpt><trkpt lat="45.8896999490156" lon="9.091736727392211"><ele>967.0</ele><time>2026-04-04T10:09:42.001Z</time></trkpt><trkpt lat="45.88974189836808" lon="9.091814237016926"><ele>966.9999999999999</ele><time>2026-04-04T10:09:45.001Z</time></trkpt><trkpt lat="45.88975728878182" lon="9.09190778681544"><ele>967.0</ele><time>2026-04-04T10:09:47.001Z</time></trkpt><trkpt lat="45.88977600084522" lon="9.092036154223132"><ele>972.4000000000001</ele><time>2026-04-04T10:09:49Z</time></trkpt><trkpt lat="45.88976810429744" lon="9.092149487950545"><ele>977.8000000000001</ele><time>2026-04-04T10:09:52Z</time></trkpt><trkpt lat="45.88978375803219" lon="9.092254438834486"><ele>983.2</ele><time>2026-04-04T10:09:54Z</time></trkpt><trkpt lat="45.889787048969744" lon="9.092378582776549"><ele>988.6</ele><time>2026-04-04T10:09:57Z</time></trkpt><trkpt lat="45.889853007419006" lon="9.092549753197774"><ele>994.0</ele><time>2026-04-04T10:10:00Z</time></trkpt><trkpt lat="45.88987735817312" lon="9.092669580732268"><ele>996.4285714285714</ele><time>2026-04-04T10:10:03Z</time></trkpt><trkpt lat="45.889910764656044" lon="9.092766457779838"><ele>998.8571428571429</ele><time>2026-04-04T10:10:05Z</time></trkpt><trkpt lat="45.889896146962265" lon="9.092856869656776"><ele>1001.2857142857142</ele><time>2026-04-04T10:10:07Z</time></trkpt><trkpt lat="45.8898984121988" lon="9.092964347646214"><ele>1003.7142857142857</ele><time>2026-04-04T10:10:10Z</time></trkpt><trkpt lat="45.88987886981056" lon="9.09305297761714"><ele>1006.1428571428571</ele><time>2026-04-04T10:10:14Z</time></trkpt><trkpt lat="45.88981075134797" lon="9.09311491052658"><ele>1008.5714285714284</ele><time>2026-04-04T10:10:18Z</time></trkpt><trkpt lat="45.889870357564064" lon="9.093166844720145"><ele>1010.9999999999999</ele><time>2026-04-04T10:10:31.001Z</time></trkpt><trkpt lat="45.88994252056715" lon="9.093216622080023"><ele>1011.142857142857</ele><time>2026-04-04T10:10:36.001Z</time></trkpt><trkpt lat="45.88998947294023" lon="9.093294263716308"><ele>1011.2857142857142</ele><time>2026-04-04T10:10:41.001Z</time></trkpt><trkpt lat="45.890056888472" lon="9.0933003961847"><ele>1011.4285714285714</ele><time>2026-04-04T10:10:46.001Z</time></trkpt><trkpt lat="45.890106530719905" lon="9.093356982838653"><ele>1011.5714285714286</ele><time>2026-04-04T10:10:50.001Z</time></trkpt><trkpt lat="45.890158620263534" lon="9.093417145917385"><ele>1011.7142857142858</ele><time>2026-04-04T10:10:52.001Z</time></trkpt><trkpt lat="45.89022674115904" lon="9.093456586830982"><ele>1011.857142857143</ele><time>2026-04-04T10:10:56.001Z</time></trkpt><trkpt lat="45.89028769001052" lon="9.093490981394087"><ele>1012.0000000000001</ele><time>2026-04-04T10:10:58.001Z</time></trkpt><trkpt lat="45.890344110803234" lon="9.093557522254319"><ele>1011.9999999999999</ele><time>2026-04-04T10:11:00.001Z</time></trkpt><trkpt lat="45.89038109976752" lon="9.09364462405131"><ele>1012.0</ele><time>2026-04-04T10:11:03.001Z</time></trkpt><trkpt lat="45.890457445067504" lon="9.093716782774218"><ele>1012.0</ele><time>2026-04-04T10:11:07.001Z</time></trkpt><trkpt lat="45.890529561040246" lon="9.093671336215499"><ele>1012.0</ele><time>2026-04-04T10:11:11.001Z</time></trkpt><trkpt lat="45.89057035349256" lon="9.093743830364717"><ele>1011.9999999999999</ele><time>2026-04-04T10:11:19.001Z</time></trkpt><trkpt lat="45.89064743822485" lon="9.093743658637619"><ele>1012.0</ele><time>2026-04-04T10:11:22.001Z</time></trkpt><trkpt lat="45.89071475888232" lon="9.093813898959139"><ele>1011.9999999999999</ele><time>2026-04-04T10:11:25.001Z</time></trkpt><trkpt lat="45.89077039316428" lon="9.093927525612017"><ele>1012.0</ele><time>2026-04-04T10:11:27.001Z</time></trkpt><trkpt lat="45.89082496002563" lon="9.094011411424898"><ele>1012.0</ele><time>2026-04-04T10:11:29.001Z</time></trkpt><trkpt lat="45.890868516851135" lon="9.094097691461421"><ele>1012.0</ele><time>2026-04-04T10:11:31.001Z</time></trkpt><trkpt lat="45.890909793096746" lon="9.094193988582813"><ele>1011.9999999999999</ele><time>2026-04-04T10:11:33.001Z</time></trkpt><trkpt lat="45.890919822109176" lon="9.09431358702658"><ele>1012.0</ele><time>2026-04-04T10:11:36.001Z</time></trkpt><trkpt lat="45.89097870392049" lon="9.094403691239487"><ele>1012.2857142857144</ele><time>2026-04-04T10:11:39.001Z</time></trkpt><trkpt lat="45.891021684280666" lon="9.094523473050574"><ele>1012.5714285714287</ele><time>2026-04-04T10:11:42.001Z</time></trkpt><trkpt lat="45.891044786790424" lon="9.094620237038663"><ele>1012.8571428571429</ele><time>2026-04-04T10:11:45.001Z</time></trkpt><trkpt lat="45.89104461873589" lon="9.094722291860409"><ele>1013.1428571428572</ele><time>2026-04-04T10:12:00Z</time></trkpt><trkpt lat="45.89099932897989" lon="9.094785518981766"><ele>1013.4285714285716</ele><time>2026-04-04T10:12:04Z</time></trkpt><trkpt lat="45.89094856670971" lon="9.094862098407392"><ele>1013.7142857142857</ele><time>2026-04-04T10:12:08Z</time></trkpt><trkpt lat="45.89096198445169" lon="9.094953592327677"><ele>1014.0</ele><time>2026-04-04T10:12:11Z</time></trkpt><trkpt lat="45.890997290772276" lon="9.095049619851148"><ele>1016.4285714285713</ele><time>2026-04-04T10:12:15Z</time></trkpt><trkpt lat="45.89104976153051" lon="9.095108666422473"><ele>1018.8571428571429</ele><time>2026-04-04T10:12:19Z</time></trkpt><trkpt lat="45.891115794258745" lon="9.095190051279841"><ele>1021.2857142857142</ele><time>2026-04-04T10:12:23Z</time></trkpt><trkpt lat="45.89116100907577" lon="9.09526792428958"><ele>1023.7142857142857</ele><time>2026-04-04T10:12:26Z</time></trkpt><trkpt lat="45.89120981703393" lon="9.095327039578752"><ele>1026.142857142857</ele><time>2026-04-04T10:12:31Z</time></trkpt><trkpt lat="45.891229764390026" lon="9.095432587476312"><ele>1028.5714285714284</ele><time>2026-04-04T10:12:39Z</time></trkpt><trkpt lat="45.89127261135544" lon="9.09553216206778"><ele>1031.0</ele><time>2026-04-04T10:12:45Z</time></trkpt><trkpt lat="45.89134242427049" lon="9.095646028530366"><ele>1031.0</ele><time>2026-04-04T10:13:42.001Z</time></trkpt><trkpt lat="45.891355034488825" lon="9.095743126831579"><ele>1031.0</ele><time>2026-04-04T10:13:48.001Z</time></trkpt><trkpt lat="45.891351597914266" lon="9.095843434683042"><ele>1031.0</ele><time>2026-04-04T10:13:52.001Z</time></trkpt><trkpt lat="45.89138250102261" lon="9.095974635059074"><ele>1031.0</ele><time>2026-04-04T10:13:57.001Z</time></trkpt><trkpt lat="45.8913812300413" lon="9.096086371069921"><ele>1031.0</ele><time>2026-04-04T10:14:00Z</time></trkpt><trkpt lat="45.89138186749709" lon="9.096209189881991"><ele>1031.0</ele><time>2026-04-04T10:14:03Z</time></trkpt><trkpt lat="45.891387937226504" lon="9.096327953700937"><ele>1032.8333333333335</ele><time>2026-04-04T10:14:06Z</time></trkpt><trkpt lat="45.891394475979375" lon="9.096449343033296"><ele>1034.6666666666667</ele><time>2026-04-04T10:14:09Z</time></trkpt><trkpt lat="45.89138334541119" lon="9.09654551361294"><ele>1036.5</ele><time>2026-04-04T10:14:13Z</time></trkpt><trkpt lat="45.89138390846569" lon="9.096644371377723"><ele>1038.3333333333333</ele><time>2026-04-04T10:14:17Z</time></trkpt><trkpt lat="45.8913776208978" lon="9.096740802181023"><ele>1040.1666666666665</ele><time>2026-04-04T10:14:20Z</time></trkpt><trkpt lat="45.891374969272874" lon="9.096873250212608"><ele>1042.0</ele><time>2026-04-04T10:14:23Z</time></trkpt><trkpt lat="45.89138242521853" lon="9.096976453467985"><ele>1043.1666666666665</ele><time>2026-04-04T10:14:25Z</time></trkpt><trkpt lat="45.891395614722846" lon="9.097075591235429"><ele>1044.3333333333333</ele><time>2026-04-04T10:14:28Z</time></trkpt><trkpt lat="45.89140707792914" lon="9.097198924565046"><ele>1045.5</ele><time>2026-04-04T10:14:31Z</time></trkpt><trkpt lat="45.891405748409156" lon="9.097353012977939"><ele>1046.6666666666667</ele><time>2026-04-04T10:14:34Z</time></trkpt><trkpt lat="45.89139902657595" lon="9.097466235543015"><ele>1047.8333333333335</ele><time>2026-04-04T10:14:36Z</time></trkpt><trkpt lat="45.891374317936176" lon="9.097585141908066"><ele>1049.0</ele><time>2026-04-04T10:14:39Z</time></trkpt><trkpt lat="45.89134478588443" lon="9.097702936619564"><ele>1049.8</ele><time>2026-04-04T10:14:41Z</time></trkpt><trkpt lat="45.891358589668606" lon="9.097814726541317"><ele>1050.6000000000001</ele><time>2026-04-04T10:14:43Z</time></trkpt><trkpt lat="45.89134892805552" lon="9.09795833817959"><ele>1051.4</ele><time>2026-04-04T10:14:45Z</time></trkpt><trkpt lat="45.89135766978225" lon="9.098079734051417"><ele>1052.2</ele><time>2026-04-04T10:14:47Z</time></trkpt><trkpt lat="45.89137987459273" lon="9.098214625999308"><ele>1053.0</ele><time>2026-04-04T10:14:49Z</time></trkpt><trkpt lat="45.8913955343372" lon="9.098345996903719"><ele>1053.3333333333333</ele><time>2026-04-04T10:14:51Z</time></trkpt><trkpt lat="45.89140755158234" lon="9.09846964826976"><ele>1053.6666666666667</ele><time>2026-04-04T10:14:53Z</time></trkpt><trkpt lat="45.891443263625234" lon="9.098577182965581"><ele>1054.0</ele><time>2026-04-04T10:14:55Z</time></trkpt><trkpt lat="45.8914664190132" lon="9.098661414370776"><ele>1054.3333333333335</ele><time>2026-04-04T10:14:56Z</time></trkpt><trkpt lat="45.891524640479474" lon="9.098793622494556"><ele>1054.6666666666667</ele><time>2026-04-04T10:14:58Z</time></trkpt><trkpt lat="45.89153582162865" lon="9.09891367703609"><ele>1055.0</ele><time>2026-04-04T10:15:00Z</time></trkpt><trkpt lat="45.89153647955746" lon="9.099010569699894"><ele>1055.6</ele><time>2026-04-04T10:15:02Z</time></trkpt><trkpt lat="45.89146066581186" lon="9.099111593920398"><ele>1056.2</ele><time>2026-04-04T10:15:04Z</time></trkpt><trkpt lat="45.89141572888635" lon="9.099195917653445"><ele>1056.8</ele><time>2026-04-04T10:15:06Z</time></trkpt><trkpt lat="45.89136591515961" lon="9.099340083103279"><ele>1057.4</ele><time>2026-04-04T10:15:08Z</time></trkpt><trkpt lat="45.891334357962926" lon="9.09945118265139"><ele>1058.0</ele><time>2026-04-04T10:15:10Z</time></trkpt><trkpt lat="45.89131106431428" lon="9.0996055162735"><ele>1058.0</ele><time>2026-04-04T10:15:12Z</time></trkpt><trkpt lat="45.89129455116406" lon="9.099746640298706"><ele>1058.0</ele><time>2026-04-04T10:15:14Z</time></trkpt><trkpt lat="45.89126974456856" lon="9.09991258970685"><ele>1058.0</ele><time>2026-04-04T10:15:16Z</time></trkpt><trkpt lat="45.89126683524342" lon="9.100008382697327"><ele>1058.0</ele><time>2026-04-04T10:15:17Z</time></trkpt><trkpt lat="45.89127392749658" lon="9.100102937646806"><ele>1058.0</ele><time>2026-04-04T10:15:18Z</time></trkpt><trkpt lat="45.89126747565215" lon="9.100267212676544"><ele>1059.2</ele><time>2026-04-04T10:15:20Z</time></trkpt><trkpt lat="45.89125241194185" lon="9.100440729331549"><ele>1060.4</ele><time>2026-04-04T10:15:22Z</time></trkpt><trkpt lat="45.891255203213525" lon="9.100535189688314"><ele>1061.6000000000001</ele><time>2026-04-04T10:15:23Z</time></trkpt><trkpt lat="45.89125815208348" lon="9.100667621130677"><ele>1062.8</ele><time>2026-04-04T10:15:25Z</time></trkpt><trkpt lat="45.8912802510543" lon="9.100800218798483"><ele>1064.0</ele><time>2026-04-04T10:15:27Z</time></trkpt><trkpt lat="45.89129401584891" lon="9.100916680893189"><ele>1064.0</ele><time>2026-04-04T10:15:29Z</time></trkpt><trkpt lat="45.89127606541232" lon="9.101079611844673"><ele>1064.0</ele><time>2026-04-04T10:15:31Z</time></trkpt><trkpt lat="45.89130095621018" lon="9.101239328908743"><ele>1064.0</ele><time>2026-04-04T10:15:33Z</time></trkpt><trkpt lat="45.89129035055495" lon="9.10133845922385"><ele>1064.0</ele><time>2026-04-04T10:15:34Z</time></trkpt><trkpt lat="45.89121249190858" lon="9.101459910062504"><ele>1064.0</ele><time>2026-04-04T10:15:36Z</time></trkpt><trkpt lat="45.89120340041973" lon="9.101588410391226"><ele>1064.0</ele><time>2026-04-04T10:15:38Z</time></trkpt><trkpt lat="45.89116919665171" lon="9.101673974846435"><ele>1064.0</ele><time>2026-04-04T10:15:42Z</time></trkpt><trkpt lat="45.89118236098453" lon="9.101766756461977"><ele>1064.0</ele><time>2026-04-04T10:15:46Z</time></trkpt><trkpt lat="45.891166959604156" lon="9.101870590618176"><ele>1064.0</ele><time>2026-04-04T10:15:50Z</time></trkpt><trkpt lat="45.891157061830086" lon="9.101989527827813"><ele>1064.0</ele><time>2026-04-04T10:15:54Z</time></trkpt><trkpt lat="45.89118269032871" lon="9.102082355072241"><ele>1064.0</ele><time>2026-04-04T10:15:57Z</time></trkpt><trkpt lat="45.89115120843224" lon="9.102170800198909"><ele>1064.0</ele><time>2026-04-04T10:15:59Z</time></trkpt><trkpt lat="45.891101465286305" lon="9.102234702568703"><ele>1064.0</ele><time>2026-04-04T10:16:04Z</time></trkpt><trkpt lat="45.89103814361375" lon="9.102219997502592"><ele>1064.0</ele><time>2026-04-04T10:16:07Z</time></trkpt><trkpt lat="45.89098354091495" lon="9.102166275646606"><ele>1064.0</ele><time>2026-04-04T10:16:10Z</time></trkpt><trkpt lat="45.89093378185119" lon="9.10207248872443"><ele>1064.0</ele><time>2026-04-04T10:16:13Z</time></trkpt><trkpt lat="45.89088656766159" lon="9.101997102160562"><ele>1064.0</ele><time>2026-04-04T10:16:15Z</time></trkpt><trkpt lat="45.89082960506659" lon="9.101921692122263"><ele>1064.0</ele><time>2026-04-04T10:16:17Z</time></trkpt><trkpt lat="45.890785392287796" lon="9.101838017719043"><ele>1064.0</ele><time>2026-04-04T10:16:19Z</time></trkpt><trkpt lat="45.8907260992642" lon="9.101765676766513"><ele>1058.6666666666667</ele><time>2026-04-04T10:16:21Z</time></trkpt><trkpt lat="45.89067500441528" lon="9.101679791705715"><ele>1053.3333333333335</ele><time>2026-04-04T10:16:23Z</time></trkpt><trkpt lat="45.890625524559084" lon="9.101618021859279"><ele>1048.0</ele><time>2026-04-04T10:16:25Z</time></trkpt><trkpt lat="45.89055409385432" lon="9.101530211355389"><ele>1042.6666666666667</ele><time>2026-04-04T10:16:27Z</time></trkpt><trkpt lat="45.89050575034767" lon="9.101450365220723"><ele>1037.3333333333333</ele><time>2026-04-04T10:16:29Z</time></trkpt><trkpt lat="45.890454447691965" lon="9.101379889942153"><ele>1032.0</ele><time>2026-04-04T10:16:31Z</time></trkpt><trkpt lat="45.890397228068096" lon="9.101297584540294"><ele>1032.2</ele><time>2026-04-04T10:16:33Z</time></trkpt><trkpt lat="45.89035012110262" lon="9.101223914802267"><ele>1032.4</ele><time>2026-04-04T10:16:35Z</time></trkpt><trkpt lat="45.890282135185515" lon="9.101121461812117"><ele>1032.6</ele><time>2026-04-04T10:16:37Z</time></trkpt><trkpt lat="45.89020782778288" lon="9.10101216825766"><ele>1032.8</ele><time>2026-04-04T10:16:39Z</time></trkpt><trkpt lat="45.89014946044079" lon="9.100885861275948"><ele>1033.0</ele><time>2026-04-04T10:16:41Z</time></trkpt><trkpt lat="45.89006870006226" lon="9.10079724719231"><ele>1029.5</ele><time>2026-04-04T10:16:43Z</time></trkpt><trkpt lat="45.88998596433474" lon="9.100704811327278"><ele>1026.0</ele><time>2026-04-04T10:16:45Z</time></trkpt><trkpt lat="45.889900305053715" lon="9.100612410242062"><ele>1022.5</ele><time>2026-04-04T10:16:47Z</time></trkpt><trkpt lat="45.88984863964621" lon="9.100500732999851"><ele>1019.0</ele><time>2026-04-04T10:16:49Z</time></trkpt><trkpt lat="45.889816984430105" lon="9.100418256866206"><ele>1015.4999999999999</ele><time>2026-04-04T10:16:50Z</time></trkpt><trkpt lat="45.88975921252574" lon="9.100359666339383"><ele>1012.0</ele><time>2026-04-04T10:16:51Z</time></trkpt><trkpt lat="45.88969825272985" lon="9.100325528885826"><ele>1012.0</ele><time>2026-04-04T10:16:52Z</time></trkpt><trkpt lat="45.889610646921895" lon="9.100195762646207"><ele>1012.0</ele><time>2026-04-04T10:16:54Z</time></trkpt><trkpt lat="45.88956499928447" lon="9.100061382374827"><ele>1012.0</ele><time>2026-04-04T10:16:56Z</time></trkpt><trkpt lat="45.88951322800399" lon="9.099921787150722"><ele>1012.0</ele><time>2026-04-04T10:16:58Z</time></trkpt><trkpt lat="45.889443347103004" lon="9.09978653405506"><ele>1009.75</ele><time>2026-04-04T10:17:00Z</time></trkpt><trkpt lat="45.88938923299785" lon="9.09964975854268"><ele>1007.5</ele><time>2026-04-04T10:17:02Z</time></trkpt><trkpt lat="45.8892708109415" lon="9.099387523056585"><ele>1005.25</ele><time>2026-04-04T10:17:04Z</time></trkpt><trkpt lat="45.889221197039895" lon="9.09931389986498"><ele>1003.0</ele><time>2026-04-04T10:17:06Z</time></trkpt><trkpt lat="45.889167820943605" lon="9.099240271152388"><ele>1005.8</ele><time>2026-04-04T10:17:07Z</time></trkpt><trkpt lat="45.88912026215002" lon="9.099177759813173"><ele>1008.5999999999999</ele><time>2026-04-04T10:17:08Z</time></trkpt><trkpt lat="45.88907511802499" lon="9.099111607780134"><ele>1011.4000000000001</ele><time>2026-04-04T10:17:09Z</time></trkpt><trkpt lat="45.88900027361758" lon="9.099002049560998"><ele>1014.2</ele><time>2026-04-04T10:17:11Z</time></trkpt><trkpt lat="45.888917772232176" lon="9.098887941623099"><ele>1017.0</ele><time>2026-04-04T10:17:13Z</time></trkpt><trkpt lat="45.8888432420888" lon="9.098773374360063"><ele>1017.0</ele><time>2026-04-04T10:17:15Z</time></trkpt><trkpt lat="45.888774318865515" lon="9.098677019146264"><ele>1017.0</ele><time>2026-04-04T10:17:17Z</time></trkpt><trkpt lat="45.88870675013896" lon="9.098580519473083"><ele>1017.0</ele><time>2026-04-04T10:17:20Z</time></trkpt><trkpt lat="45.888620268238434" lon="9.098517831387959"><ele>1017.0</ele><time>2026-04-04T10:17:40Z</time></trkpt><trkpt lat="45.88854651598652" lon="9.098464331360375"><ele>1017.0</ele><time>2026-04-04T10:17:42Z</time></trkpt><trkpt lat="45.888480436633905" lon="9.09844524305218"><ele>1017.0</ele><time>2026-04-04T10:17:45Z</time></trkpt><trkpt lat="45.88840643855736" lon="9.098464972091234"><ele>1020.1666666666666</ele><time>2026-04-04T10:17:48Z</time></trkpt><trkpt lat="45.888354911797265" lon="9.098554312002115"><ele>1023.3333333333333</ele><time>2026-04-04T10:17:50Z</time></trkpt><trkpt lat="45.88831049421724" lon="9.098654656354881"><ele>1026.5</ele><time>2026-04-04T10:17:52Z</time></trkpt><trkpt lat="45.888331122103324" lon="9.098781825835141"><ele>1029.6666666666665</ele><time>2026-04-04T10:17:54Z</time></trkpt><trkpt lat="45.88830539226915" lon="9.098913156250566"><ele>1032.8333333333333</ele><time>2026-04-04T10:17:56Z</time></trkpt><trkpt lat="45.88827271061891" lon="9.099043130373921"><ele>1036.0</ele><time>2026-04-04T10:17:58Z</time></trkpt><trkpt lat="45.888195251327936" lon="9.099049768147543"><ele>1036.0</ele><time>2026-04-04T10:18:01Z</time></trkpt><trkpt lat="45.888132414942994" lon="9.099034614769433"><ele>1036.0</ele><time>2026-04-04T10:18:04Z</time></trkpt><trkpt lat="45.888064865057665" lon="9.099077005815992"><ele>1036.0</ele><time>2026-04-04T10:18:06Z</time></trkpt><trkpt lat="45.88798896331876" lon="9.099127071713285"><ele>1036.0</ele><time>2026-04-04T10:18:09Z</time></trkpt><trkpt lat="45.88788122674695" lon="9.099225076351864"><ele>1036.0</ele><time>2026-04-04T10:18:10Z</time></trkpt><trkpt lat="45.887809446493414" lon="9.099287498959567"><ele>1036.0</ele><time>2026-04-04T10:18:12Z</time></trkpt><trkpt lat="45.88774952172295" lon="9.099237373439717"><ele>1039.5714285714287</ele><time>2026-04-04T10:18:15Z</time></trkpt><trkpt lat="45.88781691000769" lon="9.09930339970705"><ele>1043.142857142857</ele><time>2026-04-04T10:18:30Z</time></trkpt><trkpt lat="45.887844966181824" lon="9.099394516748198"><ele>1046.7142857142858</ele><time>2026-04-04T10:18:32Z</time></trkpt><trkpt lat="45.887891574452674" lon="9.099470582368884"><ele>1050.2857142857142</ele><time>2026-04-04T10:18:34Z</time></trkpt><trkpt lat="45.887930828420394" lon="9.099541668431582"><ele>1053.857142857143</ele><time>2026-04-04T10:18:49Z</time></trkpt><trkpt lat="45.88786331476873" lon="9.099532662606402"><ele>1057.4285714285716</ele><time>2026-04-04T10:18:52Z</time></trkpt><trkpt lat="45.887793095717484" lon="9.099511707503321"><ele>1061.0</ele><time>2026-04-04T10:18:55Z</time></trkpt><trkpt lat="45.88771566685343" lon="9.099496199412428"><ele>1061.0000000000002</ele><time>2026-04-04T10:18:58Z</time></trkpt><trkpt lat="45.887648200830526" lon="9.099498485681721"><ele>1061.0</ele><time>2026-04-04T10:19:02Z</time></trkpt><trkpt lat="45.88757775586496" lon="9.099492391787964"><ele>1061.0</ele><time>2026-04-04T10:19:05Z</time></trkpt><trkpt lat="45.88750342273604" lon="9.099488849867605"><ele>1061.0</ele><time>2026-04-04T10:19:08Z</time></trkpt><trkpt lat="45.88744132987084" lon="9.099458162830615"><ele>1061.0</ele><time>2026-04-04T10:19:11Z</time></trkpt><trkpt lat="45.887360580137994" lon="9.099397199729673"><ele>1061.0000000000002</ele><time>2026-04-04T10:19:14Z</time></trkpt><trkpt lat="45.887287731537796" lon="9.099367151123241"><ele>1061.0</ele><time>2026-04-04T10:19:16Z</time></trkpt><trkpt lat="45.887210233944884" lon="9.099329935264842"><ele>1064.1428571428573</ele><time>2026-04-04T10:19:20Z</time></trkpt><trkpt lat="45.88711987480125" lon="9.099316744332663"><ele>1067.2857142857142</ele><time>2026-04-04T10:19:23Z</time></trkpt><trkpt lat="45.88705902167148" lon="9.099379631602078"><ele>1070.4285714285716</ele><time>2026-04-04T10:19:25Z</time></trkpt><trkpt lat="45.88698618296265" lon="9.099407646953686"><ele>1073.5714285714287</ele><time>2026-04-04T10:19:28Z</time></trkpt><trkpt lat="45.88695967463136" lon="9.099492281319558"><ele>1076.7142857142858</ele><time>2026-04-04T10:19:30Z</time></trkpt><trkpt lat="45.88693112201121" lon="9.09957812788908"><ele>1079.857142857143</ele><time>2026-04-04T10:19:32Z</time></trkpt><trkpt lat="45.88686044543704" lon="9.099612542443618"><ele>1083.0</ele><time>2026-04-04T10:19:38Z</time></trkpt><trkpt lat="45.88679510930597" lon="9.09960291753964"><ele>1084.142857142857</ele><time>2026-04-04T10:21:14Z</time></trkpt><trkpt lat="45.88672241501365" lon="9.099570441230265"><ele>1085.2857142857144</ele><time>2026-04-04T10:22:03Z</time></trkpt><trkpt lat="45.88665345836364" lon="9.099612336055406"><ele>1086.4285714285716</ele><time>2026-04-04T10:22:09Z</time></trkpt><trkpt lat="45.88660774437075" lon="9.099677956308772"><ele>1087.5714285714287</ele><time>2026-04-04T10:22:18Z</time></trkpt><trkpt lat="45.886550418534256" lon="9.099728223105991"><ele>1088.7142857142858</ele><time>2026-04-04T10:22:22Z</time></trkpt><trkpt lat="45.886481934725644" lon="9.099773489076801"><ele>1089.857142857143</ele><time>2026-04-04T10:22:26Z</time></trkpt><trkpt lat="45.88642821928547" lon="9.099836720470485"><ele>1091.0</ele><time>2026-04-04T10:22:29Z</time></trkpt><trkpt lat="45.88634851518186" lon="9.099914573876205"><ele>1096.1666666666667</ele><time>2026-04-04T10:22:32Z</time></trkpt><trkpt lat="45.88629399072527" lon="9.099990074595478"><ele>1101.3333333333335</ele><time>2026-04-04T10:22:35Z</time></trkpt><trkpt lat="45.886233358586644" lon="9.100042992939276"><ele>1106.5</ele><time>2026-04-04T10:22:38Z</time></trkpt><trkpt lat="45.88617129430181" lon="9.100112353170374"><ele>1111.6666666666667</ele><time>2026-04-04T10:22:41Z</time></trkpt><trkpt lat="45.886109623761826" lon="9.100170944313952"><ele>1116.8333333333333</ele><time>2026-04-04T10:22:44Z</time></trkpt><trkpt lat="45.886028880904554" lon="9.100199337802229"><ele>1122.0</ele><time>2026-04-04T10:22:58Z</time></trkpt><trkpt lat="45.88595695591914" lon="9.100238742433211"><ele>1120.3333333333333</ele><time>2026-04-04T10:23:02Z</time></trkpt><trkpt lat="45.88588507533548" lon="9.100291960586176"><ele>1118.6666666666667</ele><time>2026-04-04T10:23:04Z</time></trkpt><trkpt lat="45.88581019064672" lon="9.100302838705623"><ele>1117.0</ele><time>2026-04-04T10:23:08Z</time></trkpt><trkpt lat="45.88574018615059" lon="9.100293500834587"><ele>1115.3333333333335</ele><time>2026-04-04T10:23:16Z</time></trkpt><trkpt lat="45.88562389422323" lon="9.100313824108158"><ele>1113.6666666666667</ele><time>2026-04-04T10:23:21Z</time></trkpt><trkpt lat="45.88555811739313" lon="9.100328440821823"><ele>1112.0</ele><time>2026-04-04T10:23:24Z</time></trkpt><trkpt lat="45.88548036741312" lon="9.10034580866364"><ele>1112.0</ele><time>2026-04-04T10:23:28Z</time></trkpt><trkpt lat="45.8854156046971" lon="9.10036049042578"><ele>1112.0</ele><time>2026-04-04T10:23:33Z</time></trkpt><trkpt lat="45.88535037470939" lon="9.100329855742677"><ele>1112.0</ele><time>2026-04-04T10:23:53Z</time></trkpt><trkpt lat="45.88529393625175" lon="9.100256275065405"><ele>1112.0</ele><time>2026-04-04T10:23:58Z</time></trkpt><trkpt lat="45.885228271366536" lon="9.1001965862864"><ele>1112.0</ele><time>2026-04-04T10:24:02Z</time></trkpt><trkpt lat="45.88514214368891" lon="9.100160967057102"><ele>1112.0</ele><time>2026-04-04T10:24:05Z</time></trkpt><trkpt lat="45.88510200795207" lon="9.100073361319652"><ele>1109.7142857142858</ele><time>2026-04-04T10:24:13Z</time></trkpt><trkpt lat="45.88507062462988" lon="9.099982971465332"><ele>1107.4285714285716</ele><time>2026-04-04T10:24:17Z</time></trkpt><trkpt lat="45.88500888009836" lon="9.099914710782313"><ele>1105.1428571428573</ele><time>2026-04-04T10:24:22Z</time></trkpt><trkpt lat="45.88496873982866" lon="9.099828861915292"><ele>1102.857142857143</ele><time>2026-04-04T10:24:32Z</time></trkpt><trkpt lat="45.88501801723094" lon="9.09976373136251"><ele>1100.5714285714287</ele><time>2026-04-04T10:24:37Z</time></trkpt><trkpt lat="45.885090908065884" lon="9.099734532430569"><ele>1098.2857142857144</ele><time>2026-04-04T10:24:46Z</time></trkpt><trkpt lat="45.88515071694754" lon="9.099680819123149"><ele>1096.0</ele><time>2026-04-04T10:25:49Z</time></trkpt><trkpt lat="45.88522608070208" lon="9.099655041595675"><ele>1093.4285714285716</ele><time>2026-04-04T10:26:44Z</time></trkpt><trkpt lat="45.88529441005434" lon="9.099635354486992"><ele>1090.857142857143</ele><time>2026-04-04T10:28:16Z</time></trkpt><trkpt lat="45.88531432512002" lon="9.099535583270725"><ele>1088.2857142857142</ele><time>2026-04-04T10:28:24Z</time></trkpt><trkpt lat="45.88532009873458" lon="9.099445128860724"><ele>1085.7142857142858</ele><time>2026-04-04T10:28:31Z</time></trkpt><trkpt lat="45.885332429941585" lon="9.099354332113887"><ele>1083.142857142857</ele><time>2026-04-04T10:28:41Z</time></trkpt><trkpt lat="45.885340088744634" lon="9.09926106483395"><ele>1080.5714285714287</ele><time>2026-04-04T10:28:50Z</time></trkpt><trkpt lat="45.885352297250726" lon="9.099163825776982"><ele>1078.0</ele><time>2026-04-04T10:28:56Z</time></trkpt><trkpt lat="45.885363801885376" lon="9.099059581091467"><ele>1073.142857142857</ele><time>2026-04-04T10:29:01Z</time></trkpt><trkpt lat="45.885359576536196" lon="9.098964087802758"><ele>1068.2857142857142</ele><time>2026-04-04T10:29:07Z</time></trkpt><trkpt lat="45.885361120781795" lon="9.098864819034516"><ele>1063.4285714285716</ele><time>2026-04-04T10:29:11Z</time></trkpt><trkpt lat="45.88534563743357" lon="9.098769137780968"><ele>1058.5714285714284</ele><time>2026-04-04T10:29:15Z</time></trkpt><trkpt lat="45.8853688078887" lon="9.09867306372989"><ele>1053.7142857142858</ele><time>2026-04-04T10:29:20Z</time></trkpt><trkpt lat="45.88540860609354" lon="9.098594227967343"><ele>1048.857142857143</ele><time>2026-04-04T10:29:25Z</time></trkpt><trkpt lat="45.88545071904783" lon="9.098513663938594"><ele>1044.0</ele><time>2026-04-04T10:29:29Z</time></trkpt><trkpt lat="45.88549122753389" lon="9.09842645792978"><ele>1044.0</ele><time>2026-04-04T10:29:35Z</time></trkpt><trkpt lat="45.885480358746975" lon="9.09832198962022"><ele>1044.0</ele><time>2026-04-04T10:29:41Z</time></trkpt><trkpt lat="45.88544240749382" lon="9.098244304008883"><ele>1044.0</ele><time>2026-04-04T10:29:48Z</time></trkpt><trkpt lat="45.88542664639724" lon="9.098068602945583"><ele>1044.0</ele><time>2026-04-04T10:30:05Z</time></trkpt><trkpt lat="45.885360518264015" lon="9.098016398180505"><ele>1044.0</ele><time>2026-04-04T10:30:08Z</time></trkpt><trkpt lat="45.885299755536394" lon="9.097989415256526"><ele>1044.0</ele><time>2026-04-04T10:30:11Z</time></trkpt><trkpt lat="45.88523594545376" lon="9.097956366084217"><ele>1042.4285714285716</ele><time>2026-04-04T10:30:15Z</time></trkpt><trkpt lat="45.8851664068635" lon="9.097933933290449"><ele>1040.857142857143</ele><time>2026-04-04T10:30:19Z</time></trkpt><trkpt lat="45.88510437608421" lon="9.097889182109357"><ele>1039.2857142857142</ele><time>2026-04-04T10:30:22Z</time></trkpt><trkpt lat="45.885035486641925" lon="9.09786138812635"><ele>1037.7142857142858</ele><time>2026-04-04T10:30:26Z</time></trkpt><trkpt lat="45.884983084068" lon="9.097810608850997"><ele>1036.142857142857</ele><time>2026-04-04T10:30:29Z</time></trkpt><trkpt lat="45.88493648351769" lon="9.097747732310442"><ele>1034.5714285714287</ele><time>2026-04-04T10:31:46Z</time></trkpt><trkpt lat="45.88486586800098" lon="9.097681963247346"><ele>1033.0</ele><time>2026-04-04T10:32:00Z</time></trkpt><trkpt lat="45.88481398614143" lon="9.097612728641849"><ele>1033.0</ele><time>2026-04-04T10:32:02Z</time></trkpt><trkpt lat="45.88475588982568" lon="9.097547171211424"><ele>1033.0</ele><time>2026-04-04T10:32:04Z</time></trkpt><trkpt lat="45.8846826453573" lon="9.097481519381587"><ele>1033.0</ele><time>2026-04-04T10:32:06Z</time></trkpt><trkpt lat="45.88460935336196" lon="9.097364449118569"><ele>1033.0</ele><time>2026-04-04T10:32:08Z</time></trkpt><trkpt lat="45.88453294567599" lon="9.0972539814148"><ele>1033.0</ele><time>2026-04-04T10:32:10Z</time></trkpt><trkpt lat="45.884454825341656" lon="9.09714036420223"><ele>1033.6666666666665</ele><time>2026-04-04T10:32:12Z</time></trkpt><trkpt lat="45.8843584881549" lon="9.09704505018295"><ele>1034.3333333333333</ele><time>2026-04-04T10:32:14Z</time></trkpt><trkpt lat="45.88427701785872" lon="9.096970837807879"><ele>1035.0</ele><time>2026-04-04T10:32:16Z</time></trkpt><trkpt lat="45.88421833807229" lon="9.096933381870391"><ele>1035.6666666666667</ele><time>2026-04-04T10:32:17Z</time></trkpt><trkpt lat="45.88415283581882" lon="9.096886834399287"><ele>1036.3333333333335</ele><time>2026-04-04T10:32:18Z</time></trkpt><trkpt lat="45.884092816370746" lon="9.096833965274488"><ele>1037.0</ele><time>2026-04-04T10:32:19Z</time></trkpt><trkpt lat="45.88401741197976" lon="9.096796089472436"><ele>1037.0</ele><time>2026-04-04T10:32:20Z</time></trkpt><trkpt lat="45.883900529816806" lon="9.096780270721645"><ele>1037.0</ele><time>2026-04-04T10:32:22Z</time></trkpt><trkpt lat="45.883799050116274" lon="9.09674104105949"><ele>1037.0</ele><time>2026-04-04T10:32:24Z</time></trkpt><trkpt lat="45.88370809920113" lon="9.09668352077726"><ele>1037.0</ele><time>2026-04-04T10:32:26Z</time></trkpt><trkpt lat="45.88360518414155" lon="9.09663988229211"><ele>1037.0</ele><time>2026-04-04T10:32:28Z</time></trkpt><trkpt lat="45.883500613696434" lon="9.096563991872726"><ele>1034.8</ele><time>2026-04-04T10:32:30Z</time></trkpt><trkpt lat="45.88339820783901" lon="9.096495443327012"><ele>1032.6</ele><time>2026-04-04T10:32:32Z</time></trkpt><trkpt lat="45.88329376250812" lon="9.096435302503817"><ele>1030.3999999999999</ele><time>2026-04-04T10:32:34Z</time></trkpt><trkpt lat="45.88323404928116" lon="9.09639688873801"><ele>1028.2</ele><time>2026-04-04T10:32:35Z</time></trkpt><trkpt lat="45.88312596842929" lon="9.09632037358874"><ele>1026.0</ele><time>2026-04-04T10:32:37Z</time></trkpt><trkpt lat="45.88306181245844" lon="9.096294882552309"><ele>1026.0</ele><time>2026-04-04T10:32:38Z</time></trkpt><trkpt lat="45.8829982743599" lon="9.096261843833007"><ele>1026.0</ele><time>2026-04-04T10:32:39Z</time></trkpt><trkpt lat="45.882939226728354" lon="9.096219984284064"><ele>1026.0</ele><time>2026-04-04T10:32:40Z</time></trkpt><trkpt lat="45.88288080528374" lon="9.096182540832688"><ele>1026.0</ele><time>2026-04-04T10:32:41Z</time></trkpt><trkpt lat="45.88277050654225" lon="9.09611492076695"><ele>1026.0</ele><time>2026-04-04T10:32:43Z</time></trkpt><trkpt lat="45.88265710000795" lon="9.096064092503644"><ele>1026.0</ele><time>2026-04-04T10:32:45Z</time></trkpt><trkpt lat="45.88259266659404" lon="9.096044782382778"><ele>1030.0</ele><time>2026-04-04T10:32:46Z</time></trkpt><trkpt lat="45.88247212009613" lon="9.096000806179637"><ele>1034.0</ele><time>2026-04-04T10:32:48Z</time></trkpt><trkpt lat="45.882370467976955" lon="9.095933508949969"><ele>1038.0</ele><time>2026-04-04T10:32:50Z</time></trkpt><trkpt lat="45.882306775715485" lon="9.09588343623756"><ele>1042.0</ele><time>2026-04-04T10:32:51Z</time></trkpt><trkpt lat="45.882258024684326" lon="9.095818286831692"><ele>1046.0</ele><time>2026-04-04T10:32:52Z</time></trkpt><trkpt lat="45.882155786528386" lon="9.095691818503616"><ele>1046.8333333333335</ele><time>2026-04-04T10:32:54Z</time></trkpt><trkpt lat="45.8821021566803" lon="9.095634994366861"><ele>1047.6666666666667</ele><time>2026-04-04T10:32:55Z</time></trkpt><trkpt lat="45.882017722499576" lon="9.095535835706889"><ele>1048.5</ele><time>2026-04-04T10:32:57Z</time></trkpt><trkpt lat="45.88197315411936" lon="9.095471487368632"><ele>1049.3333333333333</ele><time>2026-04-04T10:32:58Z</time></trkpt><trkpt lat="45.882016323772156" lon="9.095374903778822"><ele>1050.1666666666665</ele><time>2026-04-04T10:33:01Z</time></trkpt><trkpt lat="45.88210066602991" lon="9.09529223661205"><ele>1051.0</ele><time>2026-04-04T10:33:03Z</time></trkpt><trkpt lat="45.882189872067386" lon="9.09518360813945"><ele>1051.0</ele><time>2026-04-04T10:33:05Z</time></trkpt><trkpt lat="45.882242434311195" lon="9.095113314261939"><ele>1051.0</ele><time>2026-04-04T10:33:06Z</time></trkpt><trkpt lat="45.88228956778624" lon="9.095037891726653"><ele>1051.0</ele><time>2026-04-04T10:33:07Z</time></trkpt><trkpt lat="45.882331592083105" lon="9.09496101347258"><ele>1051.0</ele><time>2026-04-04T10:33:08Z</time></trkpt><trkpt lat="45.88236964069234" lon="9.09488167140922"><ele>1051.0</ele><time>2026-04-04T10:33:09Z</time></trkpt><trkpt lat="45.88241268689321" lon="9.094813674862715"><ele>1051.0</ele><time>2026-04-04T10:33:10Z</time></trkpt><trkpt lat="45.882517248929624" lon="9.0946997844795"><ele>1050.5714285714287</ele><time>2026-04-04T10:33:12Z</time></trkpt><trkpt lat="45.88257225645503" lon="9.0946486082616"><ele>1050.142857142857</ele><time>2026-04-04T10:33:13Z</time></trkpt><trkpt lat="45.88262438509011" lon="9.094584987513192"><ele>1049.7142857142858</ele><time>2026-04-04T10:33:14Z</time></trkpt><trkpt lat="45.88267249104179" lon="9.094512286547836"><ele>1049.2857142857142</ele><time>2026-04-04T10:33:15Z</time></trkpt><trkpt lat="45.882725175673976" lon="9.09445733147552"><ele>1048.857142857143</ele><time>2026-04-04T10:33:16Z</time></trkpt><trkpt lat="45.882804961976596" lon="9.094378529953008"><ele>1048.4285714285716</ele><time>2026-04-04T10:33:18Z</time></trkpt><trkpt lat="45.88286882470026" lon="9.094323367604877"><ele>1048.0</ele><time>2026-04-04T10:33:20Z</time></trkpt><trkpt lat="45.88295904532776" lon="9.094215018651887"><ele>1048.0</ele><time>2026-04-04T10:33:22Z</time></trkpt><trkpt lat="45.883010889305794" lon="9.094162839574059"><ele>1048.0</ele><time>2026-04-04T10:33:23Z</time></trkpt><trkpt lat="45.8831137440798" lon="9.09407115173962"><ele>1048.0</ele><time>2026-04-04T10:33:25Z</time></trkpt><trkpt lat="45.883196999952254" lon="9.093963677245048"><ele>1048.0</ele><time>2026-04-04T10:33:27Z</time></trkpt><trkpt lat="45.88322282254706" lon="9.093840094325795"><ele>1048.0</ele><time>2026-04-04T10:33:29Z</time></trkpt><trkpt lat="45.8832099424005" lon="9.093678671905739"><ele>1048.4</ele><time>2026-04-04T10:33:31Z</time></trkpt><trkpt lat="45.88319484911408" lon="9.093524810571454"><ele>1048.8</ele><time>2026-04-04T10:33:33Z</time></trkpt><trkpt lat="45.88316340135182" lon="9.093441186815813"><ele>1049.2</ele><time>2026-04-04T10:33:34Z</time></trkpt><trkpt lat="45.8831397070832" lon="9.093296391831766"><ele>1049.6</ele><time>2026-04-04T10:33:36Z</time></trkpt><trkpt lat="45.88312783550142" lon="9.093200229198757"><ele>1050.0</ele><time>2026-04-04T10:33:37Z</time></trkpt><trkpt lat="45.88306442015227" lon="9.093055645061558"><ele>1050.0</ele><time>2026-04-04T10:33:39Z</time></trkpt><trkpt lat="45.883026264959845" lon="9.092973104740151"><ele>1050.0</ele><time>2026-04-04T10:33:40Z</time></trkpt><trkpt lat="45.882981063062985" lon="9.092882705682872"><ele>1050.0</ele><time>2026-04-04T10:33:41Z</time></trkpt><trkpt lat="45.88294571353673" lon="9.092794028984528"><ele>1050.0</ele><time>2026-04-04T10:33:42Z</time></trkpt><trkpt lat="45.88292265313196" lon="9.092701539505864"><ele>1050.0</ele><time>2026-04-04T10:33:43Z</time></trkpt><trkpt lat="45.88289313410845" lon="9.092611966193363"><ele>1050.0</ele><time>2026-04-04T10:33:44Z</time></trkpt><trkpt lat="45.88282664667656" lon="9.092443736446251"><ele>1047.3333333333333</ele><time>2026-04-04T10:33:46Z</time></trkpt><trkpt lat="45.88280190187179" lon="9.092336480314648"><ele>1044.6666666666667</ele><time>2026-04-04T10:33:47Z</time></trkpt><trkpt lat="45.88276980375316" lon="9.092247947870069"><ele>1042.0</ele><time>2026-04-04T10:33:48Z</time></trkpt><trkpt lat="45.88272449812975" lon="9.092149721862873"><ele>1039.3333333333335</ele><time>2026-04-04T10:33:49Z</time></trkpt><trkpt lat="45.88268647200821" lon="9.092041476923427"><ele>1036.6666666666667</ele><time>2026-04-04T10:33:50Z</time></trkpt><trkpt lat="45.88265444912467" lon="9.091879462444112"><ele>1034.0</ele><time>2026-04-04T10:33:52Z</time></trkpt><trkpt lat="45.88259413343689" lon="9.09171579185604"><ele>1039.0</ele><time>2026-04-04T10:33:54Z</time></trkpt><trkpt lat="45.88255312719956" lon="9.09162289292738"><ele>1044.0</ele><time>2026-04-04T10:33:55Z</time></trkpt><trkpt lat="45.882524827994004" lon="9.091532090269082"><ele>1049.0</ele><time>2026-04-04T10:33:56Z</time></trkpt><trkpt lat="45.882462581427305" lon="9.091352186649864"><ele>1054.0</ele><time>2026-04-04T10:33:58Z</time></trkpt><trkpt lat="45.882410959384565" lon="9.091188908777553"><ele>1059.0</ele><time>2026-04-04T10:34:00Z</time></trkpt><trkpt lat="45.882372831546355" lon="9.091095300638791"><ele>1059.0</ele><time>2026-04-04T10:34:01Z</time></trkpt><trkpt lat="45.88233061076754" lon="9.091001039194127"><ele>1059.0</ele><time>2026-04-04T10:34:02Z</time></trkpt><trkpt lat="45.882287255589674" lon="9.09091266633169"><ele>1059.0</ele><time>2026-04-04T10:34:03Z</time></trkpt><trkpt lat="45.88225315401339" lon="9.090836324648157"><ele>1059.0</ele><time>2026-04-04T10:34:04Z</time></trkpt><trkpt lat="45.88219947653748" lon="9.090750840568147"><ele>1059.0</ele><time>2026-04-04T10:34:05Z</time></trkpt><trkpt lat="45.882147749747574" lon="9.090659269519223"><ele>1059.0</ele><time>2026-04-04T10:34:06Z</time></trkpt><trkpt lat="45.882107919725115" lon="9.090555166412212"><ele>1056.8333333333333</ele><time>2026-04-04T10:34:07Z</time></trkpt><trkpt lat="45.88208852326995" lon="9.0904516569433"><ele>1054.6666666666667</ele><time>2026-04-04T10:34:08Z</time></trkpt><trkpt lat="45.88203945760728" lon="9.090351387052495"><ele>1052.5</ele><time>2026-04-04T10:34:09Z</time></trkpt><trkpt lat="45.881999068589906" lon="9.09024587533576"><ele>1050.3333333333335</ele><time>2026-04-04T10:34:10Z</time></trkpt><trkpt lat="45.88195194522853" lon="9.090144155897097"><ele>1048.1666666666667</ele><time>2026-04-04T10:34:11Z</time></trkpt><trkpt lat="45.881913637487465" lon="9.090064106015822"><ele>1046.0</ele><time>2026-04-04T10:34:12Z</time></trkpt><trkpt lat="45.88185858173193" lon="9.089904262905572"><ele>1047.3999999999999</ele><time>2026-04-04T10:34:14Z</time></trkpt><trkpt lat="45.881780215745216" lon="9.089764278189945"><ele>1048.8</ele><time>2026-04-04T10:34:16Z</time></trkpt><trkpt lat="45.88168561860927" lon="9.089676220597486"><ele>1050.1999999999998</ele><time>2026-04-04T10:34:18Z</time></trkpt><trkpt lat="45.88159394637846" lon="9.089654292654458"><ele>1051.6</ele><time>2026-04-04T10:34:20Z</time></trkpt><trkpt lat="45.881481172538166" lon="9.08964498078581"><ele>1053.0</ele><time>2026-04-04T10:34:22Z</time></trkpt><trkpt lat="45.881401204945234" lon="9.089634585789163"><ele>1053.0</ele><time>2026-04-04T10:34:23Z</time></trkpt><trkpt lat="45.88132184422925" lon="9.089622487533438"><ele>1053.0</ele><time>2026-04-04T10:34:24Z</time></trkpt><trkpt lat="45.88125574469295" lon="9.089591052797038"><ele>1053.0</ele><time>2026-04-04T10:34:25Z</time></trkpt><trkpt lat="45.88114510641405" lon="9.089527747085889"><ele>1053.0</ele><time>2026-04-04T10:34:27Z</time></trkpt><trkpt lat="45.88107798419029" lon="9.089449123024627"><ele>1053.0</ele><time>2026-04-04T10:34:28Z</time></trkpt><trkpt lat="45.881011834893435" lon="9.089390806354228"><ele>1053.0</ele><time>2026-04-04T10:34:29Z</time></trkpt><trkpt lat="45.88094990298673" lon="9.089318910620618"><ele>1056.5</ele><time>2026-04-04T10:34:30Z</time></trkpt><trkpt lat="45.880876723692865" lon="9.089270804300735"><ele>1060.0</ele><time>2026-04-04T10:34:31Z</time></trkpt><trkpt lat="45.8808194615301" lon="9.089220182586244"><ele>1063.5</ele><time>2026-04-04T10:34:32Z</time></trkpt><trkpt lat="45.880696173034316" lon="9.08921740383934"><ele>1067.0</ele><time>2026-04-04T10:34:34Z</time></trkpt><trkpt lat="45.88062697149161" lon="9.089191881852408"><ele>1070.5</ele><time>2026-04-04T10:34:35Z</time></trkpt><trkpt lat="45.88055560546219" lon="9.089210227368543"><ele>1074.0</ele><time>2026-04-04T10:34:36Z</time></trkpt><trkpt lat="45.88044559345437" lon="9.08924822091251"><ele>1074.0</ele><time>2026-04-04T10:34:38Z</time></trkpt><trkpt lat="45.88031324071053" lon="9.089314860894296"><ele>1074.0</ele><time>2026-04-04T10:34:40Z</time></trkpt><trkpt lat="45.88024330106855" lon="9.089340316814482"><ele>1074.0</ele><time>2026-04-04T10:34:41Z</time></trkpt><trkpt lat="45.8801649717493" lon="9.089331965591889"><ele>1074.0</ele><time>2026-04-04T10:34:42Z</time></trkpt><trkpt lat="45.880090018286516" lon="9.089318742130747"><ele>1074.0</ele><time>2026-04-04T10:34:43Z</time></trkpt><trkpt lat="45.87996813505904" lon="9.089298941555057"><ele>1074.8</ele><time>2026-04-04T10:34:45Z</time></trkpt><trkpt lat="45.87989556803112" lon="9.089197135864863"><ele>1075.6000000000001</ele><time>2026-04-04T10:34:47Z</time></trkpt><trkpt lat="45.87981922742388" lon="9.089031737887778"><ele>1076.4</ele><time>2026-04-04T10:34:49Z</time></trkpt><trkpt lat="45.87977540030464" lon="9.088942734086553"><ele>1077.2</ele><time>2026-04-04T10:34:50Z</time></trkpt><trkpt lat="45.87972572940004" lon="9.088847413511509"><ele>1078.0</ele><time>2026-04-04T10:34:51Z</time></trkpt><trkpt lat="45.87967874056903" lon="9.088751628076562"><ele>1073.6666666666665</ele><time>2026-04-04T10:34:52Z</time></trkpt><trkpt lat="45.87965122096526" lon="9.088659236791456"><ele>1069.3333333333333</ele><time>2026-04-04T10:34:53Z</time></trkpt><trkpt lat="45.87962766541954" lon="9.088565648835113"><ele>1065.0</ele><time>2026-04-04T10:34:54Z</time></trkpt><trkpt lat="45.8795881259876" lon="9.08847097508411"><ele>1060.6666666666667</ele><time>2026-04-04T10:34:55Z</time></trkpt><trkpt lat="45.87955537711255" lon="9.088380705587523"><ele>1056.3333333333335</ele><time>2026-04-04T10:34:56Z</time></trkpt><trkpt lat="45.87950898713472" lon="9.0882787027361"><ele>1052.0</ele><time>2026-04-04T10:34:57Z</time></trkpt><trkpt lat="45.87947042723627" lon="9.088180625395701"><ele>1050.857142857143</ele><time>2026-04-04T10:34:58Z</time></trkpt><trkpt lat="45.879449311558886" lon="9.08808321908173"><ele>1049.7142857142856</ele><time>2026-04-04T10:34:59Z</time></trkpt><trkpt lat="45.87943199358167" lon="9.087985747066291"><ele>1048.5714285714284</ele><time>2026-04-04T10:35:00Z</time></trkpt><trkpt lat="45.87943188890252" lon="9.087872412681486"><ele>1047.4285714285713</ele><time>2026-04-04T10:35:01Z</time></trkpt><trkpt lat="45.87944173275894" lon="9.087768992530021"><ele>1046.2857142857142</ele><time>2026-04-04T10:35:02Z</time></trkpt><trkpt lat="45.879439812874" lon="9.087663126900651"><ele>1045.142857142857</ele><time>2026-04-04T10:35:03Z</time></trkpt><trkpt lat="45.87945689569722" lon="9.087563567994282"><ele>1044.0</ele><time>2026-04-04T10:35:04Z</time></trkpt><trkpt lat="45.87946753748121" lon="9.08746381346965"><ele>1046.3333333333333</ele><time>2026-04-04T10:35:05Z</time></trkpt><trkpt lat="45.87948688337433" lon="9.087288069614129"><ele>1048.6666666666667</ele><time>2026-04-04T10:35:07Z</time></trkpt><trkpt lat="45.879519042966464" lon="9.087189026837276"><ele>1051.0</ele><time>2026-04-04T10:35:08Z</time></trkpt><trkpt lat="45.8795453058644" lon="9.087078502173508"><ele>1053.3333333333335</ele><time>2026-04-04T10:35:09Z</time></trkpt><trkpt lat="45.879561310739156" lon="9.08698571665508"><ele>1055.6666666666667</ele><time>2026-04-04T10:35:10Z</time></trkpt><trkpt lat="45.87956425520699" lon="9.086890283176173"><ele>1058.0</ele><time>2026-04-04T10:35:11Z</time></trkpt><trkpt lat="45.87958627190186" lon="9.0867124971557"><ele>1058.0</ele><time>2026-04-04T10:35:13Z</time></trkpt><trkpt lat="45.87960699838221" lon="9.086602089647497"><ele>1058.0</ele><time>2026-04-04T10:35:14Z</time></trkpt><trkpt lat="45.8796248185621" lon="9.086505694844037"><ele>1058.0</ele><time>2026-04-04T10:35:15Z</time></trkpt><trkpt lat="45.87964102025546" lon="9.086412396889216"><ele>1058.0</ele><time>2026-04-04T10:35:16Z</time></trkpt><trkpt lat="45.87966705751293" lon="9.08631966326662"><ele>1058.0</ele><time>2026-04-04T10:35:17Z</time></trkpt><trkpt lat="45.87968062256505" lon="9.08622059206808"><ele>1058.0</ele><time>2026-04-04T10:35:18Z</time></trkpt><trkpt lat="45.879708339075016" lon="9.086039667014271"><ele>1059.6</ele><time>2026-04-04T10:35:20Z</time></trkpt><trkpt lat="45.879708100970625" lon="9.085948789289946"><ele>1061.1999999999998</ele><time>2026-04-04T10:35:21Z</time></trkpt><trkpt lat="45.879728572600364" lon="9.085808591875725"><ele>1062.8</ele><time>2026-04-04T10:35:23Z</time></trkpt><trkpt lat="45.87965043878793" lon="9.08572487166627"><ele>1064.3999999999999</ele><time>2026-04-04T10:35:25Z</time></trkpt><trkpt lat="45.879582936853744" lon="9.085736251789244"><ele>1066.0</ele><time>2026-04-04T10:35:26Z</time></trkpt><trkpt lat="45.879474927121564" lon="9.085823903867942"><ele>1066.8333333333333</ele><time>2026-04-04T10:35:28Z</time></trkpt><trkpt lat="45.87941076450497" lon="9.085871193619731"><ele>1067.6666666666665</ele><time>2026-04-04T10:35:29Z</time></trkpt><trkpt lat="45.87934879069108" lon="9.085907546497836"><ele>1068.5</ele><time>2026-04-04T10:35:30Z</time></trkpt><trkpt lat="45.879273469406414" lon="9.085927634275444"><ele>1069.3333333333333</ele><time>2026-04-04T10:35:31Z</time></trkpt><trkpt lat="45.87912594927457" lon="9.085945774746259"><ele>1070.1666666666667</ele><time>2026-04-04T10:35:33Z</time></trkpt><trkpt lat="45.87905099899519" lon="9.08596608580939"><ele>1071.0</ele><time>2026-04-04T10:35:34Z</time></trkpt><trkpt lat="45.87895964546016" lon="9.08598450457526"><ele>1073.3333333333333</ele><time>2026-04-04T10:35:35Z</time></trkpt><trkpt lat="45.87888671966305" lon="9.086004414243245"><ele>1075.6666666666667</ele><time>2026-04-04T10:35:36Z</time></trkpt><trkpt lat="45.87880757744766" lon="9.086030564480422"><ele>1078.0</ele><time>2026-04-04T10:35:37Z</time></trkpt><trkpt lat="45.8787198391955" lon="9.086018676823564"><ele>1080.3333333333335</ele><time>2026-04-04T10:35:38Z</time></trkpt><trkpt lat="45.87863046333891" lon="9.086023767286301"><ele>1082.6666666666667</ele><time>2026-04-04T10:35:39Z</time></trkpt><trkpt lat="45.87854917504135" lon="9.086021004812778"><ele>1085.0</ele><time>2026-04-04T10:35:40Z</time></trkpt><trkpt lat="45.878464605640104" lon="9.08601971323567"><ele>1085.3333333333335</ele><time>2026-04-04T10:35:41Z</time></trkpt><trkpt lat="45.87839650121542" lon="9.086029888038262"><ele>1085.6666666666667</ele><time>2026-04-04T10:35:42Z</time></trkpt><trkpt lat="45.878325109559164" lon="9.086038658231308"><ele>1086.0</ele><time>2026-04-04T10:35:43Z</time></trkpt><trkpt lat="45.878256473666674" lon="9.08604513910193"><ele>1086.3333333333333</ele><time>2026-04-04T10:35:44Z</time></trkpt><trkpt lat="45.87813852444653" lon="9.086019812457339"><ele>1086.6666666666665</ele><time>2026-04-04T10:35:45Z</time></trkpt><trkpt lat="45.87806870235946" lon="9.086011518423135"><ele>1087.0</ele><time>2026-04-04T10:35:46Z</time></trkpt><trkpt lat="45.87798294867948" lon="9.086005441233288"><ele>1087.0</ele><time>2026-04-04T10:35:47Z</time></trkpt><trkpt lat="45.87790672266693" lon="9.085997567538435"><ele>1087.0</ele><time>2026-04-04T10:35:48Z</time></trkpt><trkpt lat="45.87781896343779" lon="9.085987877884934"><ele>1087.0</ele><time>2026-04-04T10:35:49Z</time></trkpt><trkpt lat="45.877752024305536" lon="9.085987367457335"><ele>1087.0</ele><time>2026-04-04T10:35:50Z</time></trkpt><trkpt lat="45.87766612951919" lon="9.085995189799268"><ele>1087.0</ele><time>2026-04-04T10:35:51Z</time></trkpt><trkpt lat="45.877579528717376" lon="9.086010083623583"><ele>1087.0</ele><time>2026-04-04T10:35:52Z</time></trkpt><trkpt lat="45.87749821941286" lon="9.08601900433675"><ele>1086.5</ele><time>2026-04-04T10:35:53Z</time></trkpt><trkpt lat="45.87739334117059" lon="9.086047765024409"><ele>1086.0</ele><time>2026-04-04T10:35:54Z</time></trkpt><trkpt lat="45.87730086594296" lon="9.086072646495836"><ele>1085.5</ele><time>2026-04-04T10:35:55Z</time></trkpt><trkpt lat="45.87722397078199" lon="9.086083576641535"><ele>1085.0</ele><time>2026-04-04T10:35:56Z</time></trkpt><trkpt lat="45.877142927723156" lon="9.086100140460893"><ele>1084.5</ele><time>2026-04-04T10:35:57Z</time></trkpt><trkpt lat="45.87706536843762" lon="9.086128468695936"><ele>1084.0</ele><time>2026-04-04T10:35:58Z</time></trkpt><trkpt lat="45.87699688483084" lon="9.08615882012047"><ele>1084.0</ele><time>2026-04-04T10:35:59Z</time></trkpt><trkpt lat="45.87691207041901" lon="9.08620870151171"><ele>1084.0</ele><time>2026-04-04T10:36:00Z</time></trkpt><trkpt lat="45.87683252473497" lon="9.086274282109992"><ele>1084.0</ele><time>2026-04-04T10:36:01Z</time></trkpt><trkpt lat="45.87675311350376" lon="9.086348169896358"><ele>1084.0</ele><time>2026-04-04T10:36:02Z</time></trkpt><trkpt lat="45.87667883081394" lon="9.086417112154578"><ele>1084.0</ele><time>2026-04-04T10:36:03Z</time></trkpt><trkpt lat="45.87664269655296" lon="9.086519049193939"><ele>1084.0</ele><time>2026-04-04T10:36:04Z</time></trkpt><trkpt lat="45.87656988629613" lon="9.0865694768152"><ele>1087.8</ele><time>2026-04-04T10:36:05Z</time></trkpt><trkpt lat="45.87650022812507" lon="9.086640682609833"><ele>1091.6000000000001</ele><time>2026-04-04T10:36:06Z</time></trkpt><trkpt lat="45.876376592413855" lon="9.086681932924488"><ele>1095.4</ele><time>2026-04-04T10:36:08Z</time></trkpt><trkpt lat="45.87625030150368" lon="9.086745592437822"><ele>1099.2</ele><time>2026-04-04T10:36:10Z</time></trkpt><trkpt lat="45.87617602551193" lon="9.086756973476135"><ele>1103.0</ele><time>2026-04-04T10:36:11Z</time></trkpt><trkpt lat="45.87607192262198" lon="9.086782896762706"><ele>1103.0</ele><time>2026-04-04T10:36:13Z</time></trkpt><trkpt lat="45.87596881132468" lon="9.086811041292453"><ele>1103.0</ele><time>2026-04-04T10:36:15Z</time></trkpt><trkpt lat="45.875877571885795" lon="9.086842921965912"><ele>1103.0</ele><time>2026-04-04T10:36:20Z</time></trkpt><trkpt lat="45.87580451346172" lon="9.086850179697217"><ele>1103.0</ele><time>2026-04-04T10:36:40Z</time></trkpt><trkpt lat="45.87571724587349" lon="9.08684065906818"><ele>1103.0</ele><time>2026-04-04T10:36:43Z</time></trkpt><trkpt lat="45.87564538285845" lon="9.086853200030264"><ele>1103.0</ele><time>2026-04-04T10:36:46Z</time></trkpt><trkpt lat="45.875580450324236" lon="9.086863023821378"><ele>1103.0</ele><time>2026-04-04T10:36:49.001Z</time></trkpt><trkpt lat="45.875509660848586" lon="9.086910780647054"><ele>1103.0</ele><time>2026-04-04T10:36:54.001Z</time></trkpt><trkpt lat="45.875432667875" lon="9.086922730172452"><ele>1103.0</ele><time>2026-04-04T10:36:57.001Z</time></trkpt><trkpt lat="45.87536106653883" lon="9.08693456866684"><ele>1103.0</ele><time>2026-04-04T10:37:00.001Z</time></trkpt><trkpt lat="45.875280768720074" lon="9.086938918871802"><ele>1103.0</ele><time>2026-04-04T10:37:03.001Z</time></trkpt><trkpt lat="45.875208573067745" lon="9.086956344752606"><ele>1103.0</ele><time>2026-04-04T10:37:06Z</time></trkpt><trkpt lat="45.87513708274808" lon="9.086945775124724"><ele>1103.0</ele><time>2026-04-04T10:37:08Z</time></trkpt><trkpt lat="45.87506396722887" lon="9.086942068737027"><ele>1103.0</ele><time>2026-04-04T10:37:10Z</time></trkpt><trkpt lat="45.875132711355675" lon="9.086979715345885"><ele>1103.0</ele><time>2026-04-04T10:37:20Z</time></trkpt><trkpt lat="45.875202066877364" lon="9.087023437290977"><ele>1103.0</ele><time>2026-04-04T10:37:22Z</time></trkpt><trkpt lat="45.87528419604838" lon="9.087020541530865"><ele>1103.0</ele><time>2026-04-04T10:37:24Z</time></trkpt><trkpt lat="45.875382602062935" lon="9.087035820404669"><ele>1103.0</ele><time>2026-04-04T10:37:26Z</time></trkpt><trkpt lat="45.87547298794453" lon="9.087052882493468"><ele>1103.0</ele><time>2026-04-04T10:37:28Z</time></trkpt><trkpt lat="45.875556160592176" lon="9.087091903347474"><ele>1103.0</ele><time>2026-04-04T10:37:30Z</time></trkpt><trkpt lat="45.87557278421247" lon="9.0872057814371"><ele>1103.0</ele><time>2026-04-04T10:37:32Z</time></trkpt><trkpt lat="45.875625792524" lon="9.08733283424782"><ele>1103.0</ele><time>2026-04-04T10:37:34Z</time></trkpt><trkpt lat="45.8756590980985" lon="9.08750035361027"><ele>1103.0</ele><time>2026-04-04T10:37:36Z</time></trkpt><trkpt lat="45.87568815234029" lon="9.087648370261107"><ele>1106.4285714285716</ele><time>2026-04-04T10:37:38Z</time></trkpt><trkpt lat="45.87570941251933" lon="9.087743781334938"><ele>1109.857142857143</ele><time>2026-04-04T10:37:40.001Z</time></trkpt><trkpt lat="45.87563797460302" lon="9.087781799463132"><ele>1113.2857142857142</ele><time>2026-04-04T10:37:52.001Z</time></trkpt><trkpt lat="45.87557842643086" lon="9.08774457886252"><ele>1116.7142857142858</ele><time>2026-04-04T10:37:55.001Z</time></trkpt><trkpt lat="45.875510480950105" lon="9.087676334645092"><ele>1120.142857142857</ele><time>2026-04-04T10:37:58.001Z</time></trkpt><trkpt lat="45.87544883214615" lon="9.087588901636494"><ele>1123.5714285714287</ele><time>2026-04-04T10:38:01.001Z</time></trkpt><trkpt lat="45.87540442596593" lon="9.087523994043002"><ele>1127.0</ele><time>2026-04-04T10:38:03.001Z</time></trkpt><trkpt lat="45.875339268709034" lon="9.087447548244336"><ele>1124.7142857142858</ele><time>2026-04-04T10:38:06.001Z</time></trkpt><trkpt lat="45.87528444127977" lon="9.087396017697776"><ele>1122.4285714285716</ele><time>2026-04-04T10:38:09.001Z</time></trkpt><trkpt lat="45.87522878362218" lon="9.087337763364339"><ele>1120.142857142857</ele><time>2026-04-04T10:38:15.001Z</time></trkpt><trkpt lat="45.875258229298375" lon="9.087425968375955"><ele>1117.857142857143</ele><time>2026-04-04T10:38:20.001Z</time></trkpt><trkpt lat="45.875221480723056" lon="9.08735133557332"><ele>1115.5714285714287</ele><time>2026-04-04T10:39:51Z</time></trkpt><trkpt lat="45.87517177164606" lon="9.087293929306918"><ele>1113.2857142857142</ele><time>2026-04-04T10:40:03Z</time></trkpt><trkpt lat="45.875109850606755" lon="9.087270634401438"><ele>1111.0</ele><time>2026-04-04T10:40:18.001Z</time></trkpt><trkpt lat="45.875063532684905" lon="9.087193898881146"><ele>1111.0</ele><time>2026-04-04T10:40:35.001Z</time></trkpt><trkpt lat="45.87508526926065" lon="9.08709981553436"><ele>1111.0</ele><time>2026-04-04T10:40:53.001Z</time></trkpt><trkpt lat="45.87502325199741" lon="9.087060803484354"><ele>1111.0</ele><time>2026-04-04T10:41:05.001Z</time></trkpt><trkpt lat="45.87495940664112" lon="9.087065978369566"><ele>1111.0</ele><time>2026-04-04T10:41:16.001Z</time></trkpt><trkpt lat="45.87485521271316" lon="9.087087613712132"><ele>1111.0</ele><time>2026-04-04T10:41:44Z</time></trkpt><trkpt lat="45.87480388731853" lon="9.086994175334683"><ele>1111.0</ele><time>2026-04-04T10:43:15.001Z</time></trkpt><trkpt lat="45.874914516576816" lon="9.087088482590348"><ele>1111.0</ele><time>2026-04-04T10:46:02.001Z</time></trkpt><trkpt lat="45.874901448663394" lon="9.086967542573825"><ele>1111.0</ele><time>2026-04-04T11:07:15Z</time></trkpt><trkpt lat="45.87490417057254" lon="9.087084840354622"><ele>1111.0</ele><time>2026-04-04T11:14:38.001Z</time></trkpt><trkpt lat="45.87483116456733" lon="9.087063723398558"><ele>1111.0</ele><time>2026-04-04T11:16:55.001Z</time></trkpt><trkpt lat="45.874817434410275" lon="9.086876560979485"><ele>1111.0</ele><time>2026-04-04T11:17:34.001Z</time></trkpt><trkpt lat="45.874818249539175" lon="9.086971362183863"><ele>1111.0</ele><time>2026-04-04T11:19:01.001Z</time></trkpt><trkpt lat="45.874875715698" lon="9.087016914229999"><ele>1111.0</ele><time>2026-04-04T11:19:35.001Z</time></trkpt><trkpt lat="45.87498779674527" lon="9.08703291507925"><ele>1111.0</ele><time>2026-04-04T11:19:54Z</time></trkpt><trkpt lat="45.87504333728542" lon="9.087085737117906"><ele>1111.0</ele><time>2026-04-04T11:20:01Z</time></trkpt><trkpt lat="45.875072213167535" lon="9.087176240926798"><ele>1111.0</ele><time>2026-04-04T11:20:11Z</time></trkpt><trkpt lat="45.87511617500363" lon="9.087243461571232"><ele>1111.0</ele><time>2026-04-04T11:20:21Z</time></trkpt><trkpt lat="45.87518099187693" lon="9.087265236183397"><ele>1111.0</ele><time>2026-04-04T11:20:32Z</time></trkpt><trkpt lat="45.8752139414511" lon="9.08734295164032"><ele>1111.0</ele><time>2026-04-04T11:20:42Z</time></trkpt><trkpt lat="45.87523882434205" lon="9.087429721132935"><ele>1109.6666666666665</ele><time>2026-04-04T11:20:53Z</time></trkpt><trkpt lat="45.87532657384461" lon="9.087444744880095"><ele>1108.3333333333333</ele><time>2026-04-04T11:24:53Z</time></trkpt><trkpt lat="45.87528605471734" lon="9.087355753304715"><ele>1107.0</ele><time>2026-04-04T11:25:50Z</time></trkpt><trkpt lat="45.87533770881511" lon="9.087425334415457"><ele>1105.6666666666667</ele><time>2026-04-04T11:25:54Z</time></trkpt><trkpt lat="45.87539221298463" lon="9.087501750090672"><ele>1104.3333333333335</ele><time>2026-04-04T11:25:57Z</time></trkpt><trkpt lat="45.875450038984965" lon="9.08755576223419"><ele>1103.0</ele><time>2026-04-04T11:25:59Z</time></trkpt><trkpt lat="45.87550064256277" lon="9.08762870965745"><ele>1103.0</ele><time>2026-04-04T11:26:01Z</time></trkpt><trkpt lat="45.87555912103328" lon="9.08769638745909"><ele>1103.0</ele><time>2026-04-04T11:26:03Z</time></trkpt><trkpt lat="45.87562005645171" lon="9.08775597079992"><ele>1103.0</ele><time>2026-04-04T11:26:05Z</time></trkpt><trkpt lat="45.87568744600657" lon="9.08773645561958"><ele>1103.0</ele><time>2026-04-04T11:26:10Z</time></trkpt><trkpt lat="45.87564447487954" lon="9.08763165205535"><ele>1103.0</ele><time>2026-04-04T11:26:15Z</time></trkpt><trkpt lat="45.87564613034993" lon="9.087536439367463"><ele>1103.0</ele><time>2026-04-04T11:26:18Z</time></trkpt><trkpt lat="45.875643297722746" lon="9.08741952387912"><ele>1103.0</ele><time>2026-04-04T11:26:21Z</time></trkpt><trkpt lat="45.87565710565264" lon="9.087330293589027"><ele>1103.0</ele><time>2026-04-04T11:26:23Z</time></trkpt><trkpt lat="45.875636549385526" lon="9.087214991429681"><ele>1103.0</ele><time>2026-04-04T11:26:26Z</time></trkpt><trkpt lat="45.87562487816004" lon="9.08711739061361"><ele>1103.0</ele><time>2026-04-04T11:26:29Z</time></trkpt><trkpt lat="45.87556919737363" lon="9.087033788500687"><ele>1103.0</ele><time>2026-04-04T11:26:33Z</time></trkpt><trkpt lat="45.87548051130745" lon="9.087004843394388"><ele>1103.0</ele><time>2026-04-04T11:26:36Z</time></trkpt><trkpt lat="45.87541264247483" lon="9.086990721327167"><ele>1103.0</ele><time>2026-04-04T11:26:38Z</time></trkpt><trkpt lat="45.87532708280821" lon="9.086985576255382"><ele>1103.0</ele><time>2026-04-04T11:26:40Z</time></trkpt><trkpt lat="45.87524315383175" lon="9.086980718894052"><ele>1103.0</ele><time>2026-04-04T11:26:42Z</time></trkpt><trkpt lat="45.875153550757005" lon="9.08697325179035"><ele>1103.0</ele><time>2026-04-04T11:26:44Z</time></trkpt><trkpt lat="45.87506678479799" lon="9.08696240041498"><ele>1103.0</ele><time>2026-04-04T11:26:46Z</time></trkpt><trkpt lat="45.87497902992348" lon="9.086930742441497"><ele>1103.0</ele><time>2026-04-04T11:26:48Z</time></trkpt><trkpt lat="45.874912227691986" lon="9.086888266423312"><ele>1104.3333333333335</ele><time>2026-04-04T11:26:50Z</time></trkpt><trkpt lat="45.87483861636678" lon="9.086818920545616"><ele>1105.6666666666667</ele><time>2026-04-04T11:26:52Z</time></trkpt><trkpt lat="45.87477705519058" lon="9.086736466262238"><ele>1107.0</ele><time>2026-04-04T11:26:54Z</time></trkpt><trkpt lat="45.87470699648514" lon="9.086704799112615"><ele>1108.3333333333333</ele><time>2026-04-04T11:26:56Z</time></trkpt><trkpt lat="45.874634551094616" lon="9.086668160576137"><ele>1109.6666666666665</ele><time>2026-04-04T11:26:58Z</time></trkpt><trkpt lat="45.87456471196807" lon="9.086576534060708"><ele>1111.0</ele><time>2026-04-04T11:27:00Z</time></trkpt><trkpt lat="45.8744938196328" lon="9.086493376506658"><ele>1112.0</ele><time>2026-04-04T11:27:02Z</time></trkpt><trkpt lat="45.87442630967893" lon="9.086412601560037"><ele>1113.0</ele><time>2026-04-04T11:27:04Z</time></trkpt><trkpt lat="45.87435852154438" lon="9.086318856494628"><ele>1114.0</ele><time>2026-04-04T11:27:06Z</time></trkpt><trkpt lat="45.87428740253169" lon="9.086235203672034"><ele>1115.0</ele><time>2026-04-04T11:27:08Z</time></trkpt><trkpt lat="45.87420507371123" lon="9.086154953988693"><ele>1116.0</ele><time>2026-04-04T11:27:10Z</time></trkpt><trkpt lat="45.87412888675967" lon="9.086082835201235"><ele>1116.0</ele><time>2026-04-04T11:27:12Z</time></trkpt><trkpt lat="45.87404870318244" lon="9.086027652624171"><ele>1116.0</ele><time>2026-04-04T11:27:14Z</time></trkpt><trkpt lat="45.874003813027414" lon="9.085903598863254"><ele>1116.0</ele><time>2026-04-04T11:27:16Z</time></trkpt><trkpt lat="45.873926830148584" lon="9.085827734693854"><ele>1116.0</ele><time>2026-04-04T11:27:18Z</time></trkpt><trkpt lat="45.87384960205852" lon="9.08575506548488"><ele>1116.0</ele><time>2026-04-04T11:27:20Z</time></trkpt><trkpt lat="45.87384666328153" lon="9.085633662748972"><ele>1114.3999999999999</ele><time>2026-04-04T11:27:22Z</time></trkpt><trkpt lat="45.87384386742892" lon="9.085498470417093"><ele>1112.8</ele><time>2026-04-04T11:27:24Z</time></trkpt><trkpt lat="45.87380375500441" lon="9.085367734663865"><ele>1111.1999999999998</ele><time>2026-04-04T11:27:26Z</time></trkpt><trkpt lat="45.87376541413318" lon="9.08522721978111"><ele>1109.6</ele><time>2026-04-04T11:27:28Z</time></trkpt><trkpt lat="45.87374855319148" lon="9.085061864676662"><ele>1108.0</ele><time>2026-04-04T11:27:30Z</time></trkpt><trkpt lat="45.873710812604884" lon="9.08490441100236"><ele>1108.0</ele><time>2026-04-04T11:27:32Z</time></trkpt><trkpt lat="45.873699973559305" lon="9.084758399060739"><ele>1108.0</ele><time>2026-04-04T11:27:34Z</time></trkpt><trkpt lat="45.87367793178198" lon="9.084603505330124"><ele>1108.0</ele><time>2026-04-04T11:27:36Z</time></trkpt><trkpt lat="45.87367234670221" lon="9.084512486783767"><ele>1108.0</ele><time>2026-04-04T11:27:37Z</time></trkpt><trkpt lat="45.87367724221225" lon="9.084411157236845"><ele>1108.0</ele><time>2026-04-04T11:27:38Z</time></trkpt><trkpt lat="45.87367375880684" lon="9.084255576256007"><ele>1108.0</ele><time>2026-04-04T11:27:40Z</time></trkpt><trkpt lat="45.87368387191481" lon="9.08410770328749"><ele>1108.0</ele><time>2026-04-04T11:27:42Z</time></trkpt><trkpt lat="45.87369247051548" lon="9.083975588392496"><ele>1108.0</ele><time>2026-04-04T11:27:44Z</time></trkpt><trkpt lat="45.87367731247863" lon="9.08385713136055"><ele>1108.0</ele><time>2026-04-04T11:27:46Z</time></trkpt><trkpt lat="45.87367662408352" lon="9.08374905783739"><ele>1108.0</ele><time>2026-04-04T11:27:48Z</time></trkpt><trkpt lat="45.873652198035145" lon="9.083633265522705"><ele>1108.0</ele><time>2026-04-04T11:27:51Z</time></trkpt><trkpt lat="45.87364671722791" lon="9.083510288547437"><ele>1108.1666666666665</ele><time>2026-04-04T11:27:54Z</time></trkpt><trkpt lat="45.873600074434684" lon="9.083440033997197"><ele>1108.3333333333333</ele><time>2026-04-04T11:27:57Z</time></trkpt><trkpt lat="45.87353425607209" lon="9.083394450022249"><ele>1108.5</ele><time>2026-04-04T11:28:00Z</time></trkpt><trkpt lat="45.87358129550705" lon="9.083299185460769"><ele>1108.6666666666667</ele><time>2026-04-04T11:28:05Z</time></trkpt><trkpt lat="45.87361428695382" lon="9.083188935525657"><ele>1108.8333333333335</ele><time>2026-04-04T11:28:08Z</time></trkpt><trkpt lat="45.873642539179514" lon="9.083077850999466"><ele>1109.0</ele><time>2026-04-04T11:28:11Z</time></trkpt><trkpt lat="45.87366345477202" lon="9.082978375931088"><ele>1110.8571428571427</ele><time>2026-04-04T11:28:14Z</time></trkpt><trkpt lat="45.87366497570614" lon="9.082886179439992"><ele>1112.7142857142858</ele><time>2026-04-04T11:28:16Z</time></trkpt><trkpt lat="45.873678798515826" lon="9.082784628604877"><ele>1114.5714285714284</ele><time>2026-04-04T11:28:18Z</time></trkpt><trkpt lat="45.873690521095874" lon="9.082684247406121"><ele>1116.4285714285713</ele><time>2026-04-04T11:28:21Z</time></trkpt><trkpt lat="45.873671988464345" lon="9.08256434144106"><ele>1118.2857142857142</ele><time>2026-04-04T11:28:23Z</time></trkpt><trkpt lat="45.873665909501646" lon="9.082437448596227"><ele>1120.142857142857</ele><time>2026-04-04T11:28:26Z</time></trkpt><trkpt lat="45.873652870754974" lon="9.082346082938605"><ele>1122.0</ele><time>2026-04-04T11:28:28Z</time></trkpt><trkpt lat="45.87366228769611" lon="9.082243092479478"><ele>1125.1666666666667</ele><time>2026-04-04T11:28:30Z</time></trkpt><trkpt lat="45.87367361001902" lon="9.082134344623134"><ele>1128.3333333333333</ele><time>2026-04-04T11:28:33Z</time></trkpt><trkpt lat="45.873670592506414" lon="9.08201305650792"><ele>1131.5</ele><time>2026-04-04T11:28:36Z</time></trkpt><trkpt lat="45.873705340350256" lon="9.081895900887767"><ele>1134.6666666666665</ele><time>2026-04-04T11:28:38Z</time></trkpt><trkpt lat="45.87371126712275" lon="9.081774355440752"><ele>1137.8333333333333</ele><time>2026-04-04T11:28:41Z</time></trkpt><trkpt lat="45.87370920583977" lon="9.081660931571049"><ele>1141.0</ele><time>2026-04-04T11:28:43Z</time></trkpt><trkpt lat="45.873764615460075" lon="9.081572236523915"><ele>1144.0</ele><time>2026-04-04T11:28:46Z</time></trkpt><trkpt lat="45.87378386637042" lon="9.081426404501434"><ele>1147.0</ele><time>2026-04-04T11:28:48Z</time></trkpt><trkpt lat="45.87384105379668" lon="9.08133781609956"><ele>1150.0</ele><time>2026-04-04T11:28:50Z</time></trkpt><trkpt lat="45.87388455792677" lon="9.081264345909577"><ele>1153.0</ele><time>2026-04-04T11:28:51Z</time></trkpt><trkpt lat="45.87392688447472" lon="9.081179709117363"><ele>1156.0</ele><time>2026-04-04T11:28:52Z</time></trkpt><trkpt lat="45.87396527001428" lon="9.081069520246068"><ele>1159.0</ele><time>2026-04-04T11:28:53Z</time></trkpt><trkpt lat="45.873990547126716" lon="9.080970950200264"><ele>1159.0</ele><time>2026-04-04T11:28:54Z</time></trkpt><trkpt lat="45.87403476529622" lon="9.080836508149948"><ele>1159.0</ele><time>2026-04-04T11:28:56Z</time></trkpt><trkpt lat="45.8739986838796" lon="9.080720829561264"><ele>1159.0</ele><time>2026-04-04T11:28:58Z</time></trkpt><trkpt lat="45.87400252199614" lon="9.080574897342672"><ele>1159.0</ele><time>2026-04-04T11:29:01Z</time></trkpt><trkpt lat="45.87399391374642" lon="9.080460625922825"><ele>1159.0</ele><time>2026-04-04T11:29:03Z</time></trkpt><trkpt lat="45.873973283661684" lon="9.080350840578328"><ele>1159.0</ele><time>2026-04-04T11:29:05Z</time></trkpt><trkpt lat="45.87396023137178" lon="9.080251690221512"><ele>1159.0</ele><time>2026-04-04T11:29:06Z</time></trkpt><trkpt lat="45.873921195996886" lon="9.080158630898225"><ele>1159.0</ele><time>2026-04-04T11:29:07Z</time></trkpt><trkpt lat="45.87390108279889" lon="9.080072825935025"><ele>1159.0</ele><time>2026-04-04T11:29:08Z</time></trkpt><trkpt lat="45.87386845850209" lon="9.079994922087328"><ele>1159.0</ele><time>2026-04-04T11:29:09Z</time></trkpt><trkpt lat="45.873806853666125" lon="9.079843327137821"><ele>1159.0</ele><time>2026-04-04T11:29:11Z</time></trkpt><trkpt lat="45.87378657083902" lon="9.07975443195918"><ele>1156.4</ele><time>2026-04-04T11:29:12Z</time></trkpt><trkpt lat="45.87375738820615" lon="9.079663932498002"><ele>1153.8000000000002</ele><time>2026-04-04T11:29:13Z</time></trkpt><trkpt lat="45.873687063363015" lon="9.079513190208578"><ele>1151.1999999999998</ele><time>2026-04-04T11:29:15Z</time></trkpt><trkpt lat="45.87366082234802" lon="9.079428030326534"><ele>1148.6</ele><time>2026-04-04T11:29:16Z</time></trkpt><trkpt lat="45.873633015427146" lon="9.079345860518464"><ele>1146.0</ele><time>2026-04-04T11:29:17Z</time></trkpt><trkpt lat="45.87358907705929" lon="9.079171732951467"><ele>1144.6666666666667</ele><time>2026-04-04T11:29:19Z</time></trkpt><trkpt lat="45.87357258953218" lon="9.079077148831475"><ele>1143.3333333333333</ele><time>2026-04-04T11:29:20Z</time></trkpt><trkpt lat="45.873539346394786" lon="9.078902769979809"><ele>1142.0</ele><time>2026-04-04T11:29:22Z</time></trkpt><trkpt lat="45.873510446751546" lon="9.078801551844515"><ele>1140.6666666666665</ele><time>2026-04-04T11:29:23Z</time></trkpt><trkpt lat="45.8734815910925" lon="9.078693495344513"><ele>1139.3333333333333</ele><time>2026-04-04T11:29:24Z</time></trkpt><trkpt lat="45.87344624768397" lon="9.078580450171588"><ele>1138.0</ele><time>2026-04-04T11:29:25Z</time></trkpt><trkpt lat="45.87339517711237" lon="9.078469790569535"><ele>1145.0</ele><time>2026-04-04T11:29:26Z</time></trkpt><trkpt lat="45.873358617740905" lon="9.078353783280594"><ele>1152.0</ele><time>2026-04-04T11:29:27Z</time></trkpt><trkpt lat="45.87334223205946" lon="9.078230804694519"><ele>1159.0</ele><time>2026-04-04T11:29:28Z</time></trkpt><trkpt lat="45.87331465811815" lon="9.078131378747369"><ele>1166.0</ele><time>2026-04-04T11:29:29Z</time></trkpt><trkpt lat="45.873295210143276" lon="9.078006351976658"><ele>1173.0</ele><time>2026-04-04T11:29:30Z</time></trkpt><trkpt lat="45.87328387040441" lon="9.077888817946809"><ele>1180.0</ele><time>2026-04-04T11:29:31Z</time></trkpt><trkpt lat="45.87326438079476" lon="9.077779417391769"><ele>1180.0</ele><time>2026-04-04T11:29:32Z</time></trkpt><trkpt lat="45.87324519342825" lon="9.077654830295884"><ele>1180.0</ele><time>2026-04-04T11:29:33Z</time></trkpt><trkpt lat="45.87324391224711" lon="9.077532922658591"><ele>1180.0</ele><time>2026-04-04T11:29:34Z</time></trkpt><trkpt lat="45.873235472315606" lon="9.077408287238608"><ele>1180.0</ele><time>2026-04-04T11:29:35Z</time></trkpt><trkpt lat="45.873259192037025" lon="9.077274068389473"><ele>1180.0</ele><time>2026-04-04T11:29:36Z</time></trkpt><trkpt lat="45.87327551188567" lon="9.077158466051799"><ele>1180.0</ele><time>2026-04-04T11:29:37Z</time></trkpt><trkpt lat="45.87328120650991" lon="9.077028895112273"><ele>1180.1666666666665</ele><time>2026-04-04T11:29:38Z</time></trkpt><trkpt lat="45.873283708434506" lon="9.076914047752522"><ele>1180.3333333333333</ele><time>2026-04-04T11:29:39Z</time></trkpt><trkpt lat="45.8732961501146" lon="9.076808254441502"><ele>1180.5</ele><time>2026-04-04T11:29:40Z</time></trkpt><trkpt lat="45.87329347318523" lon="9.076687226492119"><ele>1180.6666666666667</ele><time>2026-04-04T11:29:41Z</time></trkpt><trkpt lat="45.87329265455987" lon="9.076580972077535"><ele>1180.8333333333335</ele><time>2026-04-04T11:29:42Z</time></trkpt><trkpt lat="45.873293286363506" lon="9.076399983310363"><ele>1181.0</ele><time>2026-04-04T11:29:44Z</time></trkpt><trkpt lat="45.87330401490122" lon="9.076249469121173"><ele>1181.3333333333335</ele><time>2026-04-04T11:29:46Z</time></trkpt><trkpt lat="45.873287381791805" lon="9.076106255218635"><ele>1181.6666666666667</ele><time>2026-04-04T11:29:48Z</time></trkpt><trkpt lat="45.873285927048016" lon="9.07598486448729"><ele>1182.0</ele><time>2026-04-04T11:29:50Z</time></trkpt><trkpt lat="45.87333669442317" lon="9.075875976803765"><ele>1182.3333333333333</ele><time>2026-04-04T11:29:52Z</time></trkpt><trkpt lat="45.87337850825258" lon="9.075789435880049"><ele>1182.6666666666665</ele><time>2026-04-04T11:29:54Z</time></trkpt><trkpt lat="45.873415773014024" lon="9.075674931464023"><ele>1183.0</ele><time>2026-04-04T11:29:57Z</time></trkpt><trkpt lat="45.87345685574263" lon="9.07558002891511"><ele>1183.6</ele><time>2026-04-04T11:29:59Z</time></trkpt><trkpt lat="45.8735152996233" lon="9.075449889482782"><ele>1184.1999999999998</ele><time>2026-04-04T11:30:01Z</time></trkpt><trkpt lat="45.873579926912775" lon="9.075318446264621"><ele>1184.8</ele><time>2026-04-04T11:30:03Z</time></trkpt><trkpt lat="45.87364357970404" lon="9.075191603990792"><ele>1185.3999999999999</ele><time>2026-04-04T11:30:05Z</time></trkpt><trkpt lat="45.87365116915052" lon="9.075091004263546"><ele>1186.0</ele><time>2026-04-04T11:30:06Z</time></trkpt><trkpt lat="45.87369093910876" lon="9.074907555988018"><ele>1190.0</ele><time>2026-04-04T11:30:08Z</time></trkpt><trkpt lat="45.87369681873338" lon="9.074812337649641"><ele>1194.0</ele><time>2026-04-04T11:30:09Z</time></trkpt><trkpt lat="45.873712101437036" lon="9.074651184664594"><ele>1198.0</ele><time>2026-04-04T11:30:11Z</time></trkpt><trkpt lat="45.87370790590581" lon="9.074537327380664"><ele>1202.0</ele><time>2026-04-04T11:30:14Z</time></trkpt><trkpt lat="45.8737173125997" lon="9.074440975469912"><ele>1206.0</ele><time>2026-04-04T11:30:17Z</time></trkpt><trkpt lat="45.87370891309679" lon="9.074296257563352"><ele>1210.0</ele><time>2026-04-04T11:30:20Z</time></trkpt><trkpt lat="45.873706922799954" lon="9.074164501490454"><ele>1213.0</ele><time>2026-04-04T11:30:22Z</time></trkpt><trkpt lat="45.87369697907765" lon="9.074005445649314"><ele>1216.0</ele><time>2026-04-04T11:30:24Z</time></trkpt><trkpt lat="45.87370319256614" lon="9.073823051865066"><ele>1219.0</ele><time>2026-04-04T11:30:26Z</time></trkpt><trkpt lat="45.87371479752015" lon="9.073724751232334"><ele>1222.0</ele><time>2026-04-04T11:30:27Z</time></trkpt><trkpt lat="45.8737207047783" lon="9.073620323850273"><ele>1225.0</ele><time>2026-04-04T11:30:28Z</time></trkpt><trkpt lat="45.87373670865517" lon="9.073505453599335"><ele>1225.0</ele><time>2026-04-04T11:30:29Z</time></trkpt><trkpt lat="45.873729058636485" lon="9.073397651880704"><ele>1225.0</ele><time>2026-04-04T11:30:30Z</time></trkpt><trkpt lat="45.87373098495469" lon="9.073271039818083"><ele>1225.0</ele><time>2026-04-04T11:30:31Z</time></trkpt><trkpt lat="45.873727373081806" lon="9.073161083094453"><ele>1225.0</ele><time>2026-04-04T11:30:32Z</time></trkpt><trkpt lat="45.8737214284066" lon="9.073062986286553"><ele>1225.0</ele><time>2026-04-04T11:30:33Z</time></trkpt><trkpt lat="45.873717801036854" lon="9.072948698101388"><ele>1225.0</ele><time>2026-04-04T11:30:34Z</time></trkpt><trkpt lat="45.87371160637376" lon="9.07282731412113"><ele>1225.6666666666665</ele><time>2026-04-04T11:30:35Z</time></trkpt><trkpt lat="45.87371131816699" lon="9.07270966842424"><ele>1226.3333333333333</ele><time>2026-04-04T11:30:36Z</time></trkpt><trkpt lat="45.87370198565235" lon="9.07259445419927"><ele>1227.0</ele><time>2026-04-04T11:30:37Z</time></trkpt><trkpt lat="45.873679790220265" lon="9.07246503817205"><ele>1227.6666666666667</ele><time>2026-04-04T11:30:38Z</time></trkpt><trkpt lat="45.873675888661175" lon="9.07234570630192"><ele>1228.3333333333335</ele><time>2026-04-04T11:30:39Z</time></trkpt><trkpt lat="45.87367594546162" lon="9.072230713483378"><ele>1229.0</ele><time>2026-04-04T11:30:40Z</time></trkpt><trkpt lat="45.87366224294678" lon="9.072114580821456"><ele>1229.1666666666667</ele><time>2026-04-04T11:30:41Z</time></trkpt><trkpt lat="45.873634250987074" lon="9.072003250952077"><ele>1229.3333333333335</ele><time>2026-04-04T11:30:42Z</time></trkpt><trkpt lat="45.87359662345944" lon="9.071887814613296"><ele>1229.5</ele><time>2026-04-04T11:30:43Z</time></trkpt><trkpt lat="45.87353465540971" lon="9.071775459328268"><ele>1229.6666666666667</ele><time>2026-04-04T11:30:44Z</time></trkpt><trkpt lat="45.87346590419859" lon="9.0716860122688"><ele>1229.8333333333333</ele><time>2026-04-04T11:30:45Z</time></trkpt><trkpt lat="45.8734110406149" lon="9.071601118701727"><ele>1230.0</ele><time>2026-04-04T11:30:46Z</time></trkpt><trkpt lat="45.87336271089026" lon="9.071506678556364"><ele>1230.0</ele><time>2026-04-04T11:30:47Z</time></trkpt><trkpt lat="45.87332481245234" lon="9.071433822774006"><ele>1230.0</ele><time>2026-04-04T11:30:48Z</time></trkpt><trkpt lat="45.87326884885305" lon="9.071373598066806"><ele>1230.0</ele><time>2026-04-04T11:30:50Z</time></trkpt><trkpt lat="45.87327154479728" lon="9.071267149443695"><ele>1230.0</ele><time>2026-04-04T11:30:57Z</time></trkpt><trkpt lat="45.87319620784028" lon="9.071195949975161"><ele>1230.0</ele><time>2026-04-04T11:30:59Z</time></trkpt><trkpt lat="45.873121911731666" lon="9.071077343211845"><ele>1230.0</ele><time>2026-04-04T11:31:01Z</time></trkpt><trkpt lat="45.873064172085826" lon="9.07095492117072"><ele>1230.0</ele><time>2026-04-04T11:31:03Z</time></trkpt><trkpt lat="45.8730130496042" lon="9.070802420857557"><ele>1230.0</ele><time>2026-04-04T11:31:05Z</time></trkpt><trkpt lat="45.87298808561224" lon="9.07064600129359"><ele>1230.0</ele><time>2026-04-04T11:31:07Z</time></trkpt><trkpt lat="45.87296329581847" lon="9.070507363352975"><ele>1230.0</ele><time>2026-04-04T11:31:09Z</time></trkpt><trkpt lat="45.872931114258215" lon="9.070417062473568"><ele>1230.0</ele><time>2026-04-04T11:31:11Z</time></trkpt><trkpt lat="45.87295568976898" lon="9.070303639002777"><ele>1233.5</ele><time>2026-04-04T11:31:15Z</time></trkpt><trkpt lat="45.87292901593019" lon="9.070179167751542"><ele>1237.0</ele><time>2026-04-04T11:31:17Z</time></trkpt><trkpt lat="45.87292950989" lon="9.070073465710932"><ele>1240.5</ele><time>2026-04-04T11:31:20Z</time></trkpt><trkpt lat="45.8729150027735" lon="9.069950892322293"><ele>1244.0</ele><time>2026-04-04T11:31:22Z</time></trkpt><trkpt lat="45.87290752824072" lon="9.069850191524521"><ele>1247.5</ele><time>2026-04-04T11:31:24Z</time></trkpt><trkpt lat="45.87290662979132" lon="9.069748159107403"><ele>1251.0</ele><time>2026-04-04T11:31:26Z</time></trkpt><trkpt lat="45.87290042434901" lon="9.06962103353346"><ele>1255.3999999999999</ele><time>2026-04-04T11:31:29Z</time></trkpt><trkpt lat="45.87286784462708" lon="9.069481756224366"><ele>1259.8</ele><time>2026-04-04T11:31:31Z</time></trkpt><trkpt lat="45.87278417635855" lon="9.069359356812212"><ele>1264.1999999999998</ele><time>2026-04-04T11:31:33Z</time></trkpt><trkpt lat="45.8727063841605" lon="9.069251850609014"><ele>1268.6</ele><time>2026-04-04T11:31:35Z</time></trkpt><trkpt lat="45.87264374679003" lon="9.069138056825143"><ele>1273.0</ele><time>2026-04-04T11:31:37Z</time></trkpt><trkpt lat="45.872610681808794" lon="9.069025736450941"><ele>1275.6</ele><time>2026-04-04T11:31:39Z</time></trkpt><trkpt lat="45.87261545217969" lon="9.068906870482872"><ele>1278.1999999999998</ele><time>2026-04-04T11:31:42Z</time></trkpt><trkpt lat="45.872622584781915" lon="9.068743710685265"><ele>1280.8</ele><time>2026-04-04T11:31:44Z</time></trkpt><trkpt lat="45.8726234576801" lon="9.068597313437554"><ele>1283.3999999999999</ele><time>2026-04-04T11:31:46Z</time></trkpt><trkpt lat="45.87262920043583" lon="9.06843019771297"><ele>1286.0</ele><time>2026-04-04T11:31:48Z</time></trkpt><trkpt lat="45.87263728072792" lon="9.06832369023687"><ele>1289.0</ele><time>2026-04-04T11:31:49Z</time></trkpt><trkpt lat="45.87262119757522" lon="9.068232022101958"><ele>1292.0</ele><time>2026-04-04T11:31:50Z</time></trkpt><trkpt lat="45.87257410902734" lon="9.068090222934366"><ele>1295.0</ele><time>2026-04-04T11:31:52Z</time></trkpt><trkpt lat="45.87250330063099" lon="9.067926621897763"><ele>1298.0</ele><time>2026-04-04T11:31:54Z</time></trkpt><trkpt lat="45.87243402119444" lon="9.06778363909925"><ele>1301.0</ele><time>2026-04-04T11:31:56Z</time></trkpt><trkpt lat="45.87234376357446" lon="9.067653401432848"><ele>1298.1999999999998</ele><time>2026-04-04T11:31:58Z</time></trkpt><trkpt lat="45.872286978173115" lon="9.06750224046861"><ele>1295.3999999999999</ele><time>2026-04-04T11:32:00Z</time></trkpt><trkpt lat="45.87222660106513" lon="9.067379093199705"><ele>1292.6</ele><time>2026-04-04T11:32:02Z</time></trkpt><trkpt lat="45.87219221475606" lon="9.06724450541156"><ele>1289.8</ele><time>2026-04-04T11:32:05Z</time></trkpt><trkpt lat="45.87215494218244" lon="9.0671592401423"><ele>1287.0</ele><time>2026-04-04T11:32:07Z</time></trkpt><trkpt lat="45.87209049938093" lon="9.067038929631032"><ele>1287.0</ele><time>2026-04-04T11:32:10Z</time></trkpt><trkpt lat="45.87202615268818" lon="9.066936284909069"><ele>1287.0</ele><time>2026-04-04T11:32:12Z</time></trkpt><trkpt lat="45.87197674877064" lon="9.06686986334501"><ele>1287.0</ele><time>2026-04-04T11:32:13Z</time></trkpt><trkpt lat="45.87187032501998" lon="9.066751026339249"><ele>1287.0</ele><time>2026-04-04T11:32:15Z</time></trkpt><trkpt lat="45.87181410660957" lon="9.06668953949178"><ele>1287.0</ele><time>2026-04-04T11:32:16Z</time></trkpt><trkpt lat="45.87173362470551" lon="9.066594004678086"><ele>1283.1999999999998</ele><time>2026-04-04T11:32:18Z</time></trkpt><trkpt lat="45.87165132989691" lon="9.066548611255355"><ele>1279.3999999999999</ele><time>2026-04-04T11:32:20Z</time></trkpt><trkpt lat="45.87154998178735" lon="9.06641463133056"><ele>1275.6</ele><time>2026-04-04T11:32:22Z</time></trkpt><trkpt lat="45.871484102873424" lon="9.066377044955816"><ele>1271.8</ele><time>2026-04-04T11:32:23Z</time></trkpt><trkpt lat="45.87141778482664" lon="9.066355520244768"><ele>1268.0</ele><time>2026-04-04T11:32:24Z</time></trkpt><trkpt lat="45.87130313479462" lon="9.066266839362749"><ele>1268.0</ele><time>2026-04-04T11:32:26Z</time></trkpt><trkpt lat="45.87120581836621" lon="9.066196949042768"><ele>1268.0</ele><time>2026-04-04T11:32:28Z</time></trkpt><trkpt lat="45.871140999992164" lon="9.06615247252041"><ele>1268.0</ele><time>2026-04-04T11:32:29Z</time></trkpt><trkpt lat="45.87107596191458" lon="9.066072502947094"><ele>1268.0</ele><time>2026-04-04T11:32:31Z</time></trkpt><trkpt lat="45.871106123268056" lon="9.065957673112026"><ele>1268.0</ele><time>2026-04-04T11:32:34Z</time></trkpt><trkpt lat="45.871103211114395" lon="9.065855230643555"><ele>1268.0</ele><time>2026-04-04T11:32:36Z</time></trkpt><trkpt lat="45.871078436743744" lon="9.065772020913338"><ele>1263.6666666666667</ele><time>2026-04-04T11:32:38Z</time></trkpt><trkpt lat="45.87101255154063" lon="9.065754066660169"><ele>1259.3333333333335</ele><time>2026-04-04T11:32:40Z</time></trkpt><trkpt lat="45.87094127107596" lon="9.065745413130218"><ele>1255.0</ele><time>2026-04-04T11:32:41Z</time></trkpt><trkpt lat="45.87087761645546" lon="9.065734242385536"><ele>1250.6666666666667</ele><time>2026-04-04T11:32:42Z</time></trkpt><trkpt lat="45.870772762159305" lon="9.06570816612398"><ele>1246.3333333333333</ele><time>2026-04-04T11:32:44Z</time></trkpt><trkpt lat="45.870676298572405" lon="9.065683990022606"><ele>1242.0</ele><time>2026-04-04T11:32:46Z</time></trkpt><trkpt lat="45.87061081993071" lon="9.06565813729277"><ele>1238.6666666666667</ele><time>2026-04-04T11:33:57Z</time></trkpt><trkpt lat="45.870538117406824" lon="9.065681671265473"><ele>1235.3333333333333</ele><time>2026-04-04T11:34:00Z</time></trkpt><trkpt lat="45.87046347883039" lon="9.065724799297652"><ele>1232.0</ele><time>2026-04-04T11:34:02Z</time></trkpt><trkpt lat="45.87039569544122" lon="9.065763681577236"><ele>1228.6666666666665</ele><time>2026-04-04T11:34:04Z</time></trkpt><trkpt lat="45.87029722580263" lon="9.06575382521923"><ele>1225.3333333333333</ele><time>2026-04-04T11:34:06Z</time></trkpt><trkpt lat="45.87024380620825" lon="9.065698941327467"><ele>1222.0</ele><time>2026-04-04T11:34:07Z</time></trkpt><trkpt lat="45.87015454249415" lon="9.06563133594965"><ele>1219.0</ele><time>2026-04-04T11:34:09Z</time></trkpt><trkpt lat="45.870078035109515" lon="9.0656471072973"><ele>1216.0</ele><time>2026-04-04T11:34:10Z</time></trkpt><trkpt lat="45.869970781511185" lon="9.065628289489888"><ele>1213.0</ele><time>2026-04-04T11:34:12Z</time></trkpt><trkpt lat="45.86987671152972" lon="9.065618501421424"><ele>1210.0</ele><time>2026-04-04T11:34:14Z</time></trkpt><trkpt lat="45.86981007833196" lon="9.065673885592318"><ele>1207.0</ele><time>2026-04-04T11:34:16Z</time></trkpt><trkpt lat="45.86973234507475" lon="9.065648795152049"><ele>1204.0</ele><time>2026-04-04T11:34:18Z</time></trkpt><trkpt lat="45.86964728111658" lon="9.065592057440576"><ele>1204.0</ele><time>2026-04-04T11:34:20Z</time></trkpt><trkpt lat="45.869531932444474" lon="9.065579075336238"><ele>1204.0</ele><time>2026-04-04T11:34:22Z</time></trkpt><trkpt lat="45.86942868142257" lon="9.065569410614728"><ele>1204.0</ele><time>2026-04-04T11:34:24Z</time></trkpt><trkpt lat="45.86932848872107" lon="9.065542459832303"><ele>1204.0</ele><time>2026-04-04T11:34:26Z</time></trkpt><trkpt lat="45.86922561948423" lon="9.065487259745815"><ele>1204.0</ele><time>2026-04-04T11:34:28Z</time></trkpt><trkpt lat="45.86916582058901" lon="9.065418091704734"><ele>1200.1666666666665</ele><time>2026-04-04T11:34:30Z</time></trkpt><trkpt lat="45.86915517246246" lon="9.065321057945937"><ele>1196.3333333333333</ele><time>2026-04-04T11:34:32Z</time></trkpt><trkpt lat="45.869076053495185" lon="9.065238586402096"><ele>1192.5</ele><time>2026-04-04T11:34:34Z</time></trkpt><trkpt lat="45.869010901324685" lon="9.065180017929261"><ele>1188.6666666666667</ele><time>2026-04-04T11:34:37Z</time></trkpt><trkpt lat="45.868923525065746" lon="9.065119727914066"><ele>1184.8333333333335</ele><time>2026-04-04T11:34:40Z</time></trkpt><trkpt lat="45.86885603833475" lon="9.065057029097263"><ele>1181.0</ele><time>2026-04-04T11:34:42Z</time></trkpt><trkpt lat="45.86879040325697" lon="9.065000593358425"><ele>1181.0</ele><time>2026-04-04T11:34:44Z</time></trkpt><trkpt lat="45.868721314176106" lon="9.064968479719095"><ele>1181.0</ele><time>2026-04-04T11:34:46Z</time></trkpt><trkpt lat="45.86865882462103" lon="9.064952635137706"><ele>1181.0</ele><time>2026-04-04T11:34:48Z</time></trkpt><trkpt lat="45.868589808798234" lon="9.064912109434742"><ele>1181.0</ele><time>2026-04-04T11:34:50Z</time></trkpt><trkpt lat="45.86850751899999" lon="9.06486197856382"><ele>1181.0</ele><time>2026-04-04T11:34:52Z</time></trkpt><trkpt lat="45.86841008673171" lon="9.064846485285164"><ele>1181.0</ele><time>2026-04-04T11:34:54Z</time></trkpt><trkpt lat="45.868348530916755" lon="9.064802163707034"><ele>1174.1666666666667</ele><time>2026-04-04T11:34:56Z</time></trkpt><trkpt lat="45.86828245494959" lon="9.064728640473843"><ele>1167.3333333333335</ele><time>2026-04-04T11:35:00Z</time></trkpt><trkpt lat="45.86819920055434" lon="9.064691809157846"><ele>1160.5</ele><time>2026-04-04T11:35:03.001Z</time></trkpt><trkpt lat="45.868132017966175" lon="9.064674748594959"><ele>1153.6666666666667</ele><time>2026-04-04T11:35:05.001Z</time></trkpt><trkpt lat="45.86806989697368" lon="9.064598858541054"><ele>1146.8333333333333</ele><time>2026-04-04T11:35:08.001Z</time></trkpt><trkpt lat="45.86800580327772" lon="9.064529534199332"><ele>1140.0</ele><time>2026-04-04T11:35:10.001Z</time></trkpt><trkpt lat="45.86794921315681" lon="9.064482535393315"><ele>1140.0</ele><time>2026-04-04T11:35:14.001Z</time></trkpt><trkpt lat="45.86786703852691" lon="9.064389149150797"><ele>1140.0</ele><time>2026-04-04T11:35:18.001Z</time></trkpt><trkpt lat="45.86776453596079" lon="9.064344104885835"><ele>1140.0</ele><time>2026-04-04T11:35:20.001Z</time></trkpt><trkpt lat="45.86769009780454" lon="9.064302091074792"><ele>1140.0</ele><time>2026-04-04T11:35:22.001Z</time></trkpt><trkpt lat="45.86763045146261" lon="9.064259532485115"><ele>1140.0</ele><time>2026-04-04T11:35:24.001Z</time></trkpt><trkpt lat="45.86754759981517" lon="9.06417699600871"><ele>1139.0</ele><time>2026-04-04T11:35:26.001Z</time></trkpt><trkpt lat="45.867449161402504" lon="9.064148721822251"><ele>1138.0</ele><time>2026-04-04T11:35:28.001Z</time></trkpt><trkpt lat="45.86737052325238" lon="9.064107093038444"><ele>1137.0</ele><time>2026-04-04T11:35:30.001Z</time></trkpt><trkpt lat="45.867287785579606" lon="9.06404547592482"><ele>1136.0</ele><time>2026-04-04T11:35:32.001Z</time></trkpt><trkpt lat="45.867192480217085" lon="9.064006824713369"><ele>1135.0</ele><time>2026-04-04T11:35:35.001Z</time></trkpt><trkpt lat="45.86712643483504" lon="9.063953001404386"><ele>1131.3333333333333</ele><time>2026-04-04T11:35:37.001Z</time></trkpt><trkpt lat="45.86706545094851" lon="9.063915908375566"><ele>1127.6666666666665</ele><time>2026-04-04T11:35:46.001Z</time></trkpt><trkpt lat="45.866982250111896" lon="9.063894229032467"><ele>1124.0</ele><time>2026-04-04T11:35:50.001Z</time></trkpt><trkpt lat="45.86691304325185" lon="9.063843411450987"><ele>1120.3333333333333</ele><time>2026-04-04T11:35:52.001Z</time></trkpt><trkpt lat="45.866824790164074" lon="9.063745699889035"><ele>1116.6666666666667</ele><time>2026-04-04T11:35:54.001Z</time></trkpt><trkpt lat="45.86674049859261" lon="9.063695426914057"><ele>1113.0</ele><time>2026-04-04T11:35:55.001Z</time></trkpt><trkpt lat="45.86667623535437" lon="9.063660764749077"><ele>1113.0</ele><time>2026-04-04T11:35:56.001Z</time></trkpt><trkpt lat="45.86661603621811" lon="9.063599482314409"><ele>1113.0</ele><time>2026-04-04T11:35:57.001Z</time></trkpt><trkpt lat="45.866498618675195" lon="9.063519821542254"><ele>1113.0</ele><time>2026-04-04T11:35:59.001Z</time></trkpt><trkpt lat="45.866400569556696" lon="9.06346456291211"><ele>1113.0</ele><time>2026-04-04T11:36:01.001Z</time></trkpt><trkpt lat="45.86630458826522" lon="9.063414533319778"><ele>1113.0</ele><time>2026-04-04T11:36:03.001Z</time></trkpt><trkpt lat="45.86624080790269" lon="9.063344252352774"><ele>1108.0</ele><time>2026-04-04T11:36:05.001Z</time></trkpt><trkpt lat="45.86617908590406" lon="9.063232252107385"><ele>1103.0</ele><time>2026-04-04T11:36:07.001Z</time></trkpt><trkpt lat="45.866156819464294" lon="9.063095001423127"><ele>1098.0</ele><time>2026-04-04T11:36:09.001Z</time></trkpt><trkpt lat="45.86606599043463" lon="9.063017622990936"><ele>1093.0</ele><time>2026-04-04T11:36:11.001Z</time></trkpt><trkpt lat="45.86601479242785" lon="9.062901907934213"><ele>1088.0</ele><time>2026-04-04T11:36:13.001Z</time></trkpt><trkpt lat="45.86595775353157" lon="9.062841293761126"><ele>1086.6666666666667</ele><time>2026-04-04T11:36:15.001Z</time></trkpt><trkpt lat="45.865906055657014" lon="9.062764897473599"><ele>1085.3333333333335</ele><time>2026-04-04T11:36:17.001Z</time></trkpt><trkpt lat="45.865841475496346" lon="9.062669326623325"><ele>1084.0</ele><time>2026-04-04T11:36:20.001Z</time></trkpt><trkpt lat="45.865791560632054" lon="9.062604523491661"><ele>1082.6666666666667</ele><time>2026-04-04T11:36:22.001Z</time></trkpt><trkpt lat="45.865748851901806" lon="9.062529930880274"><ele>1081.3333333333333</ele><time>2026-04-04T11:36:25.001Z</time></trkpt><trkpt lat="45.86573152741559" lon="9.06242727286821"><ele>1080.0</ele><time>2026-04-04T11:36:29.001Z</time></trkpt><trkpt lat="45.865685494724055" lon="9.062319639686121"><ele>1080.0</ele><time>2026-04-04T11:36:32.001Z</time></trkpt><trkpt lat="45.86561296801837" lon="9.062281298766365"><ele>1080.0</ele><time>2026-04-04T11:36:35.001Z</time></trkpt><trkpt lat="45.86558730374174" lon="9.062168513275354"><ele>1080.0</ele><time>2026-04-04T11:36:38.001Z</time></trkpt><trkpt lat="45.865521432534635" lon="9.062103882446348"><ele>1080.0</ele><time>2026-04-04T11:36:40.001Z</time></trkpt><trkpt lat="45.86545018324626" lon="9.062058166255055"><ele>1080.0</ele><time>2026-04-04T11:36:42.001Z</time></trkpt><trkpt lat="45.86539080838049" lon="9.061999388329356"><ele>1080.0</ele><time>2026-04-04T11:36:44.001Z</time></trkpt><trkpt lat="45.86528586048453" lon="9.061940131737742"><ele>1080.0</ele><time>2026-04-04T11:36:47.001Z</time></trkpt><trkpt lat="45.865217987332954" lon="9.061865839259132"><ele>1080.0</ele><time>2026-04-04T11:36:49.001Z</time></trkpt><trkpt lat="45.86516427312408" lon="9.061808247699194"><ele>1080.0</ele><time>2026-04-04T11:36:51.001Z</time></trkpt><trkpt lat="45.8650869654517" lon="9.061766862397898"><ele>1080.0</ele><time>2026-04-04T11:36:53.001Z</time></trkpt><trkpt lat="45.865014213284546" lon="9.061759605969023"><ele>1080.0</ele><time>2026-04-04T11:36:55.001Z</time></trkpt><trkpt lat="45.86494220372174" lon="9.061699140840199"><ele>1080.0</ele><time>2026-04-04T11:36:59.001Z</time></trkpt><trkpt lat="45.86486901095122" lon="9.061635288087384"><ele>1079.1666666666667</ele><time>2026-04-04T11:37:02.001Z</time></trkpt><trkpt lat="45.86479727146031" lon="9.061626009370661"><ele>1078.3333333333333</ele><time>2026-04-04T11:37:05.001Z</time></trkpt><trkpt lat="45.86472632205537" lon="9.061593949063294"><ele>1077.5</ele><time>2026-04-04T11:37:08.001Z</time></trkpt><trkpt lat="45.86463426842595" lon="9.06154387492331"><ele>1076.6666666666665</ele><time>2026-04-04T11:37:10.001Z</time></trkpt><trkpt lat="45.864538774083954" lon="9.061545153174468"><ele>1075.8333333333333</ele><time>2026-04-04T11:37:12.001Z</time></trkpt><trkpt lat="45.86446426483992" lon="9.061560723802502"><ele>1075.0</ele><time>2026-04-04T11:37:14.001Z</time></trkpt><trkpt lat="45.86437560917705" lon="9.061554142795876"><ele>1071.0</ele><time>2026-04-04T11:37:16.001Z</time></trkpt><trkpt lat="45.86428886728059" lon="9.061517289669782"><ele>1067.0</ele><time>2026-04-04T11:37:20.001Z</time></trkpt><trkpt lat="45.86420823799593" lon="9.061466605508958"><ele>1063.0</ele><time>2026-04-04T11:37:22.001Z</time></trkpt><trkpt lat="45.86412787587093" lon="9.061433584451688"><ele>1059.0</ele><time>2026-04-04T11:37:24.001Z</time></trkpt><trkpt lat="45.86405271325498" lon="9.061415222545646"><ele>1055.0</ele><time>2026-04-04T11:37:27.001Z</time></trkpt><trkpt lat="45.863962927317736" lon="9.061375941797687"><ele>1051.0</ele><time>2026-04-04T11:37:31.001Z</time></trkpt><trkpt lat="45.86390324307286" lon="9.061341149064523"><ele>1049.4285714285716</ele><time>2026-04-04T11:37:33.001Z</time></trkpt><trkpt lat="45.86382965305176" lon="9.061306719707853"><ele>1047.857142857143</ele><time>2026-04-04T11:37:36.001Z</time></trkpt><trkpt lat="45.86374972080955" lon="9.061269399745276"><ele>1046.2857142857142</ele><time>2026-04-04T11:37:38.001Z</time></trkpt><trkpt lat="45.8636841062148" lon="9.061224480820647"><ele>1044.7142857142858</ele><time>2026-04-04T11:37:40.001Z</time></trkpt><trkpt lat="45.8636222766984" lon="9.061196890748906"><ele>1043.142857142857</ele><time>2026-04-04T11:37:42.001Z</time></trkpt><trkpt lat="45.863550841714556" lon="9.061153642033986"><ele>1041.5714285714287</ele><time>2026-04-04T11:37:44.001Z</time></trkpt><trkpt lat="45.863493011581475" lon="9.061107389679236"><ele>1040.0</ele><time>2026-04-04T11:37:46.001Z</time></trkpt><trkpt lat="45.8634336434021" lon="9.061053268681585"><ele>1037.1666666666667</ele><time>2026-04-04T11:37:48.001Z</time></trkpt><trkpt lat="45.86335605173052" lon="9.06099499759368"><ele>1034.3333333333335</ele><time>2026-04-04T11:37:50.001Z</time></trkpt><trkpt lat="45.86327787375831" lon="9.060957734084448"><ele>1031.5</ele><time>2026-04-04T11:37:52.001Z</time></trkpt><trkpt lat="45.86320720106358" lon="9.060957974018804"><ele>1028.6666666666667</ele><time>2026-04-04T11:37:54.001Z</time></trkpt><trkpt lat="45.863113829418744" lon="9.060949316264919"><ele>1025.8333333333333</ele><time>2026-04-04T11:37:56.001Z</time></trkpt><trkpt lat="45.86303583090453" lon="9.060946447023149"><ele>1023.0</ele><time>2026-04-04T11:37:59.001Z</time></trkpt><trkpt lat="45.862957102627696" lon="9.06096171098713"><ele>1023.0</ele><time>2026-04-04T11:38:03.001Z</time></trkpt><trkpt lat="45.86288949079079" lon="9.06095396516252"><ele>1023.0</ele><time>2026-04-04T11:38:05.001Z</time></trkpt><trkpt lat="45.86281208390526" lon="9.060917693733174"><ele>1023.0</ele><time>2026-04-04T11:38:08.001Z</time></trkpt><trkpt lat="45.86272088022535" lon="9.06085542547136"><ele>1023.0</ele><time>2026-04-04T11:38:13.001Z</time></trkpt><trkpt lat="45.862667079473525" lon="9.060805740957479"><ele>1023.0</ele><time>2026-04-04T11:38:15.001Z</time></trkpt><trkpt lat="45.86259041413729" lon="9.060793398075086"><ele>1023.0</ele><time>2026-04-04T11:38:17.001Z</time></trkpt><trkpt lat="45.86247817815845" lon="9.060807278923475"><ele>1017.5999999999999</ele><time>2026-04-04T11:38:19.001Z</time></trkpt><trkpt lat="45.862342090038744" lon="9.06078192196397"><ele>1012.1999999999999</ele><time>2026-04-04T11:38:20.001Z</time></trkpt><trkpt lat="45.86227781621647" lon="9.060803736343198"><ele>1006.8</ele><time>2026-04-04T11:38:21.001Z</time></trkpt><trkpt lat="45.862129969234076" lon="9.060819576691166"><ele>1001.4</ele><time>2026-04-04T11:38:23.001Z</time></trkpt><trkpt lat="45.86205071972407" lon="9.060828639871671"><ele>996.0</ele><time>2026-04-04T11:38:24.001Z</time></trkpt><trkpt lat="45.861982458733856" lon="9.060835902708671"><ele>996.0</ele><time>2026-04-04T11:38:25.001Z</time></trkpt><trkpt lat="45.861880421832254" lon="9.060884737985377"><ele>995.9999999999999</ele><time>2026-04-04T11:38:27.001Z</time></trkpt><trkpt lat="45.861782439627675" lon="9.06095689460688"><ele>995.9999999999999</ele><time>2026-04-04T11:38:29.001Z</time></trkpt><trkpt lat="45.86170081606264" lon="9.0610193991812"><ele>996.0</ele><time>2026-04-04T11:38:31.001Z</time></trkpt><trkpt lat="45.86163235323877" lon="9.061044902371027"><ele>996.0</ele><time>2026-04-04T11:38:34.001Z</time></trkpt><trkpt lat="45.86156448072544" lon="9.061072742193007"><ele>990.8333333333334</ele><time>2026-04-04T11:38:36.001Z</time></trkpt><trkpt lat="45.86149514659774" lon="9.061101181498993"><ele>985.6666666666667</ele><time>2026-04-04T11:38:39.001Z</time></trkpt><trkpt lat="45.86142799759608" lon="9.061128724552816"><ele>980.5</ele><time>2026-04-04T11:38:45.001Z</time></trkpt><trkpt lat="45.86139364990866" lon="9.061226010183963"><ele>975.3333333333334</ele><time>2026-04-04T11:38:47.001Z</time></trkpt><trkpt lat="45.86134444905" lon="9.061162994327338"><ele>970.1666666666667</ele><time>2026-04-04T11:38:48Z</time></trkpt><trkpt lat="45.86127741824876" lon="9.06118966544131"><ele>965.0</ele><time>2026-04-04T11:38:51Z</time></trkpt><trkpt lat="45.86116866340667" lon="9.061232304112561"><ele>965.0000000000001</ele><time>2026-04-04T11:38:54Z</time></trkpt><trkpt lat="45.86108571042018" lon="9.061262982754357"><ele>965.0</ele><time>2026-04-04T11:38:59Z</time></trkpt><trkpt lat="45.86095688592804" lon="9.061309629497023"><ele>965.0</ele><time>2026-04-04T11:39:02Z</time></trkpt><trkpt lat="45.86088624480946" lon="9.061332546106419"><ele>965.0</ele><time>2026-04-04T11:39:05Z</time></trkpt><trkpt lat="45.86081695444403" lon="9.061355024458406"><ele>965.0000000000001</ele><time>2026-04-04T11:39:08Z</time></trkpt><trkpt lat="45.860744187043146" lon="9.061376615656606"><ele>965.0</ele><time>2026-04-04T11:39:11Z</time></trkpt><trkpt lat="45.86068247210444" lon="9.06139679454639"><ele>960.7142857142857</ele><time>2026-04-04T11:39:15Z</time></trkpt><trkpt lat="45.86060336866027" lon="9.061420492065972"><ele>956.4285714285716</ele><time>2026-04-04T11:39:18Z</time></trkpt><trkpt lat="45.860540663023095" lon="9.061439277157907"><ele>952.1428571428572</ele><time>2026-04-04T11:39:43.001Z</time></trkpt><trkpt lat="45.8605036967264" lon="9.061522318741602"><ele>947.8571428571429</ele><time>2026-04-04T11:40:51Z</time></trkpt><trkpt lat="45.860432098397126" lon="9.061521490592376"><ele>943.5714285714287</ele><time>2026-04-04T11:40:58Z</time></trkpt><trkpt lat="45.86035730125425" lon="9.061528359826488"><ele>939.2857142857144</ele><time>2026-04-04T11:41:03Z</time></trkpt><trkpt lat="45.86029149507463" lon="9.061572367692474"><ele>935.0000000000001</ele><time>2026-04-04T11:41:07Z</time></trkpt><trkpt lat="45.86021440356855" lon="9.061562045737233"><ele>935.0000000000001</ele><time>2026-04-04T11:41:10Z</time></trkpt><trkpt lat="45.860149545397384" lon="9.061576313492886"><ele>935.0</ele><time>2026-04-04T11:41:14Z</time></trkpt><trkpt lat="45.86006280112546" lon="9.061569168461869"><ele>935.0000000000001</ele><time>2026-04-04T11:41:18Z</time></trkpt><trkpt lat="45.85999605589395" lon="9.061589443664815"><ele>935.0000000000001</ele><time>2026-04-04T11:41:21Z</time></trkpt><trkpt lat="45.85992767940525" lon="9.061596530886163"><ele>935.0</ele><time>2026-04-04T11:41:24Z</time></trkpt><trkpt lat="45.85986442994575" lon="9.061618547898568"><ele>935.0000000000001</ele><time>2026-04-04T11:41:27Z</time></trkpt><trkpt lat="45.85978310445622" lon="9.061635595773813"><ele>935.0000000000001</ele><time>2026-04-04T11:41:31Z</time></trkpt><trkpt lat="45.85971404642458" lon="9.061649200902155"><ele>931.857142857143</ele><time>2026-04-04T11:41:38Z</time></trkpt><trkpt lat="45.859648008690044" lon="9.061660099526796"><ele>928.7142857142858</ele><time>2026-04-04T11:41:42Z</time></trkpt><trkpt lat="45.85956989892461" lon="9.061672293100278"><ele>925.5714285714286</ele><time>2026-04-04T11:41:47Z</time></trkpt><trkpt lat="45.85949799060596" lon="9.061681484722465"><ele>922.4285714285714</ele><time>2026-04-04T11:41:52Z</time></trkpt><trkpt lat="45.859431703788324" lon="9.0617402444715"><ele>919.2857142857142</ele><time>2026-04-04T11:41:55Z</time></trkpt><trkpt lat="45.859364134245524" lon="9.06175315045841"><ele>916.142857142857</ele><time>2026-04-04T11:41:58Z</time></trkpt><trkpt lat="45.85929856472392" lon="9.061729667986944"><ele>912.9999999999999</ele><time>2026-04-04T11:42:04Z</time></trkpt><trkpt lat="45.85923440044871" lon="9.061769405747027"><ele>908.9999999999999</ele><time>2026-04-04T11:42:08Z</time></trkpt><trkpt lat="45.85916994279128" lon="9.061781242319084"><ele>905.0</ele><time>2026-04-04T11:42:13Z</time></trkpt><trkpt lat="45.859100858718165" lon="9.061783897054234"><ele>901.0</ele><time>2026-04-04T11:42:18Z</time></trkpt><trkpt lat="45.859029558401325" lon="9.061804002224726"><ele>897.0</ele><time>2026-04-04T11:42:23Z</time></trkpt><trkpt lat="45.85896038193741" lon="9.06184096852941"><ele>893.0</ele><time>2026-04-04T11:42:29Z</time></trkpt><trkpt lat="45.85888913984746" lon="9.06187346747041"><ele>889.0</ele><time>2026-04-04T11:42:33Z</time></trkpt><trkpt lat="45.858823635916195" lon="9.061901238439233"><ele>885.0</ele><time>2026-04-04T11:42:36Z</time></trkpt><trkpt lat="45.85873894860556" lon="9.061878135461402"><ele>885.0</ele><time>2026-04-04T11:42:39Z</time></trkpt><trkpt lat="45.858676466045104" lon="9.06190453820254"><ele>885.0</ele><time>2026-04-04T11:42:43Z</time></trkpt><trkpt lat="45.858606847476075" lon="9.061902580155945"><ele>885.0</ele><time>2026-04-04T11:42:47Z</time></trkpt><trkpt lat="45.85852591281446" lon="9.061884763357812"><ele>885.0</ele><time>2026-04-04T11:42:51Z</time></trkpt><trkpt lat="45.858469704752736" lon="9.061831262753742"><ele>885.0</ele><time>2026-04-04T11:42:55Z</time></trkpt><trkpt lat="45.85841143424376" lon="9.061894175573514"><ele>885.0</ele><time>2026-04-04T11:42:59Z</time></trkpt><trkpt lat="45.85835663821109" lon="9.061975110271016"><ele>885.0</ele><time>2026-04-04T11:43:03Z</time></trkpt><trkpt lat="45.85832945900356" lon="9.062068819640407"><ele>880.1666666666666</ele><time>2026-04-04T11:43:05Z</time></trkpt><trkpt lat="45.858266250803524" lon="9.062114662482337"><ele>875.3333333333333</ele><time>2026-04-04T11:43:09Z</time></trkpt><trkpt lat="45.858191866479714" lon="9.062149571143916"><ele>870.5</ele><time>2026-04-04T11:43:12Z</time></trkpt><trkpt lat="45.8581268180972" lon="9.062210352595667"><ele>865.6666666666666</ele><time>2026-04-04T11:43:15Z</time></trkpt><trkpt lat="45.858040765685374" lon="9.06223717310554"><ele>860.8333333333333</ele><time>2026-04-04T11:43:18Z</time></trkpt><trkpt lat="45.857959086829325" lon="9.062240860211501"><ele>856.0</ele><time>2026-04-04T11:43:21Z</time></trkpt><trkpt lat="45.85788263547868" lon="9.062202888893093"><ele>856.0</ele><time>2026-04-04T11:43:24Z</time></trkpt><trkpt lat="45.857705228275215" lon="9.062252505527972"><ele>855.9999999999999</ele><time>2026-04-04T11:43:26Z</time></trkpt><trkpt lat="45.85762000593747" lon="9.06221155526018"><ele>855.9999999999999</ele><time>2026-04-04T11:43:28Z</time></trkpt><trkpt lat="45.8575342750978" lon="9.06220191556964"><ele>856.0</ele><time>2026-04-04T11:43:31Z</time></trkpt><trkpt lat="45.85746992243741" lon="9.062217222462671"><ele>856.0</ele><time>2026-04-04T11:43:33Z</time></trkpt><trkpt lat="45.857419759194684" lon="9.06228959823471"><ele>852.5714285714287</ele><time>2026-04-04T11:43:36Z</time></trkpt><trkpt lat="45.85734960788757" lon="9.062355147457007"><ele>849.1428571428571</ele><time>2026-04-04T11:43:39Z</time></trkpt><trkpt lat="45.85728188789818" lon="9.062341057288203"><ele>845.7142857142858</ele><time>2026-04-04T11:43:41Z</time></trkpt><trkpt lat="45.857215512350955" lon="9.062319264105898"><ele>842.2857142857143</ele><time>2026-04-04T11:43:43Z</time></trkpt><trkpt lat="45.85714676103448" lon="9.06227820411817"><ele>838.8571428571429</ele><time>2026-04-04T11:43:45Z</time></trkpt><trkpt lat="45.857077900535" lon="9.062236006066316"><ele>835.4285714285714</ele><time>2026-04-04T11:43:50Z</time></trkpt><trkpt lat="45.857006682950036" lon="9.062237911706488"><ele>832.0</ele><time>2026-04-04T11:43:53Z</time></trkpt><trkpt lat="45.856951112518644" lon="9.062179030176697"><ele>831.9999999999999</ele><time>2026-04-04T11:43:56Z</time></trkpt><trkpt lat="45.85688442366585" lon="9.062164358603717"><ele>832.0</ele><time>2026-04-04T11:43:59Z</time></trkpt><trkpt lat="45.85680499781068" lon="9.062172811471713"><ele>832.0</ele><time>2026-04-04T11:44:03Z</time></trkpt><trkpt lat="45.8567452560955" lon="9.062278274740331"><ele>832.0</ele><time>2026-04-04T11:44:07Z</time></trkpt><trkpt lat="45.8567294031152" lon="9.062384607076744"><ele>831.9999999999999</ele><time>2026-04-04T11:44:10Z</time></trkpt><trkpt lat="45.85672220194698" lon="9.062479860308187"><ele>832.0</ele><time>2026-04-04T11:44:12Z</time></trkpt><trkpt lat="45.85668524280421" lon="9.062561454236372"><ele>829.7142857142857</ele><time>2026-04-04T11:44:15Z</time></trkpt><trkpt lat="45.856608651933605" lon="9.062617080201335"><ele>827.4285714285714</ele><time>2026-04-04T11:44:20Z</time></trkpt><trkpt lat="45.856583238893876" lon="9.06271830186702"><ele>825.1428571428571</ele><time>2026-04-04T11:44:24Z</time></trkpt><trkpt lat="45.85651480154707" lon="9.062734745000958"><ele>822.8571428571429</ele><time>2026-04-04T11:44:28Z</time></trkpt><trkpt lat="45.856480606553724" lon="9.0626586216832"><ele>820.5714285714287</ele><time>2026-04-04T11:44:31Z</time></trkpt><trkpt lat="45.85640192512411" lon="9.062664601667867"><ele>818.2857142857143</ele><time>2026-04-04T11:44:33Z</time></trkpt><trkpt lat="45.85633090444109" lon="9.062669554870693"><ele>816.0</ele><time>2026-04-04T11:44:39Z</time></trkpt><trkpt lat="45.85627336794212" lon="9.062749529754777"><ele>816.0</ele><time>2026-04-04T11:44:43Z</time></trkpt><trkpt lat="45.856238122411796" lon="9.06282672746344"><ele>816.0</ele><time>2026-04-04T11:44:48Z</time></trkpt><trkpt lat="45.8561728758417" lon="9.062859108536191"><ele>816.0</ele><time>2026-04-04T11:44:54Z</time></trkpt><trkpt lat="45.85611749413955" lon="9.062812900128181"><ele>816.0</ele><time>2026-04-04T11:45:00Z</time></trkpt><trkpt lat="45.85603177012296" lon="9.062833534938399"><ele>816.0</ele><time>2026-04-04T11:45:03Z</time></trkpt><trkpt lat="45.85596530847961" lon="9.062790948210946"><ele>816.0</ele><time>2026-04-04T11:45:06Z</time></trkpt><trkpt lat="45.85590348713984" lon="9.06275140798586"><ele>816.0</ele><time>2026-04-04T11:45:09Z</time></trkpt><trkpt lat="45.85584984457034" lon="9.062799195040359"><ele>810.7142857142858</ele><time>2026-04-04T11:45:16Z</time></trkpt><trkpt lat="45.855804743105175" lon="9.062877879774266"><ele>805.4285714285714</ele><time>2026-04-04T11:45:22Z</time></trkpt><trkpt lat="45.85573324555077" lon="9.06295077129111"><ele>800.1428571428571</ele><time>2026-04-04T11:45:25Z</time></trkpt><trkpt lat="45.85566875547539" lon="9.062972221333382"><ele>794.8571428571429</ele><time>2026-04-04T11:45:27Z</time></trkpt><trkpt lat="45.85560420523607" lon="9.06297892119655"><ele>789.5714285714286</ele><time>2026-04-04T11:45:31Z</time></trkpt><trkpt lat="45.85556281264096" lon="9.063059371281835"><ele>784.2857142857143</ele><time>2026-04-04T11:45:35Z</time></trkpt><trkpt lat="45.855540240849535" lon="9.063175584613472"><ele>779.0</ele><time>2026-04-04T11:45:39Z</time></trkpt><trkpt lat="45.85549442667923" lon="9.06327112268605"><ele>779.0000000000001</ele><time>2026-04-04T11:45:43Z</time></trkpt><trkpt lat="45.855416300033156" lon="9.063287094232493"><ele>779.0</ele><time>2026-04-04T11:45:45Z</time></trkpt><trkpt lat="45.85534948474824" lon="9.063290901245782"><ele>779.0</ele><time>2026-04-04T11:45:48Z</time></trkpt><trkpt lat="45.85528628301382" lon="9.06329009651676"><ele>779.0</ele><time>2026-04-04T11:45:51Z</time></trkpt><trkpt lat="45.85522477785764" lon="9.063260720205452"><ele>779.0</ele><time>2026-04-04T11:45:53Z</time></trkpt><trkpt lat="45.85516170977384" lon="9.063219122940502"><ele>779.0000000000001</ele><time>2026-04-04T11:45:56Z</time></trkpt><trkpt lat="45.8550990498144" lon="9.063201895517938"><ele>779.0</ele><time>2026-04-04T11:45:58Z</time></trkpt><trkpt lat="45.85503435989508" lon="9.063211301945374"><ele>771.8333333333334</ele><time>2026-04-04T11:46:00Z</time></trkpt><trkpt lat="45.854952621886454" lon="9.063246729245105"><ele>764.6666666666667</ele><time>2026-04-04T11:46:03Z</time></trkpt><trkpt lat="45.854887068915595" lon="9.06322968001753"><ele>757.5</ele><time>2026-04-04T11:46:05Z</time></trkpt><trkpt lat="45.85482211308288" lon="9.063191837924682"><ele>750.3333333333334</ele><time>2026-04-04T11:46:08Z</time></trkpt><trkpt lat="45.854741945439415" lon="9.063233481226703"><ele>743.1666666666667</ele><time>2026-04-04T11:46:10Z</time></trkpt><trkpt lat="45.85465717790885" lon="9.063245964137359"><ele>736.0</ele><time>2026-04-04T11:46:13Z</time></trkpt><trkpt lat="45.854572412130885" lon="9.063280246186881"><ele>738.1666666666667</ele><time>2026-04-04T11:46:16Z</time></trkpt><trkpt lat="45.8544786641455" lon="9.063291744586634"><ele>740.3333333333334</ele><time>2026-04-04T11:46:19Z</time></trkpt><trkpt lat="45.85440146913011" lon="9.063312639035306"><ele>742.5</ele><time>2026-04-04T11:46:21Z</time></trkpt><trkpt lat="45.854320251626305" lon="9.063371815379247"><ele>744.6666666666666</ele><time>2026-04-04T11:46:24Z</time></trkpt><trkpt lat="45.85425708511802" lon="9.063371381545888"><ele>746.8333333333333</ele><time>2026-04-04T11:46:26Z</time></trkpt><trkpt lat="45.854176057790404" lon="9.063391037043955"><ele>749.0</ele><time>2026-04-04T11:46:29Z</time></trkpt><trkpt lat="45.85410282023691" lon="9.063441231492739"><ele>743.1666666666666</ele><time>2026-04-04T11:46:32Z</time></trkpt><trkpt lat="45.85403166162325" lon="9.063512129031384"><ele>737.3333333333333</ele><time>2026-04-04T11:46:35Z</time></trkpt><trkpt lat="45.85395118015352" lon="9.063577901618997"><ele>731.5</ele><time>2026-04-04T11:46:38Z</time></trkpt><trkpt lat="45.853860814218784" lon="9.06362091191405"><ele>725.6666666666666</ele><time>2026-04-04T11:46:40Z</time></trkpt><trkpt lat="45.8537812967617" lon="9.063642744437878"><ele>719.8333333333334</ele><time>2026-04-04T11:46:43Z</time></trkpt><trkpt lat="45.853716540250154" lon="9.063626873321619"><ele>714.0</ele><time>2026-04-04T11:46:45Z</time></trkpt><trkpt lat="45.85362274223682" lon="9.063691547043591"><ele>714.0</ele><time>2026-04-04T11:46:48Z</time></trkpt><trkpt lat="45.853526191916984" lon="9.06376330972973"><ele>714.0</ele><time>2026-04-04T11:46:50Z</time></trkpt><trkpt lat="45.85346252850546" lon="9.063834915020692"><ele>714.0</ele><time>2026-04-04T11:46:52Z</time></trkpt><trkpt lat="45.85340749520239" lon="9.06392173640224"><ele>714.0</ele><time>2026-04-04T11:46:55Z</time></trkpt><trkpt lat="45.85336039335478" lon="9.064002550045227"><ele>714.0</ele><time>2026-04-04T11:46:58Z</time></trkpt><trkpt lat="45.85332800057558" lon="9.064087348838108"><ele>714.0</ele><time>2026-04-04T11:47:01Z</time></trkpt><trkpt lat="45.85329488962999" lon="9.064218869010318"><ele>708.8333333333334</ele><time>2026-04-04T11:47:04Z</time></trkpt><trkpt lat="45.85326499350347" lon="9.064313856147768"><ele>703.6666666666666</ele><time>2026-04-04T11:47:07Z</time></trkpt><trkpt lat="45.85321878246398" lon="9.064375999935963"><ele>698.5</ele><time>2026-04-04T11:47:10Z</time></trkpt><trkpt lat="45.85313863820621" lon="9.064393054707006"><ele>693.3333333333333</ele><time>2026-04-04T11:47:13Z</time></trkpt><trkpt lat="45.85307344844786" lon="9.06440012233235"><ele>688.1666666666666</ele><time>2026-04-04T11:47:15Z</time></trkpt><trkpt lat="45.85298463811708" lon="9.064414341507838"><ele>683.0</ele><time>2026-04-04T11:47:18Z</time></trkpt><trkpt lat="45.85289683828864" lon="9.064421421410842"><ele>683.0</ele><time>2026-04-04T11:47:20Z</time></trkpt><trkpt lat="45.85282429088605" lon="9.064462790689532"><ele>683.0</ele><time>2026-04-04T11:47:23Z</time></trkpt><trkpt lat="45.85276651909688" lon="9.064509387575868"><ele>683.0</ele><time>2026-04-04T11:47:27Z</time></trkpt><trkpt lat="45.852715982437694" lon="9.064580818820803"><ele>683.0</ele><time>2026-04-04T11:47:30Z</time></trkpt><trkpt lat="45.85270608977478" lon="9.064687677552673"><ele>683.0</ele><time>2026-04-04T11:47:34Z</time></trkpt><trkpt lat="45.85272459893119" lon="9.06478926822602"><ele>683.0</ele><time>2026-04-04T11:47:40Z</time></trkpt><trkpt lat="45.85277608270674" lon="9.064887617283713"><ele>683.0</ele><time>2026-04-04T11:47:44Z</time></trkpt><trkpt lat="45.85281565180783" lon="9.064972606482677"><ele>680.8333333333333</ele><time>2026-04-04T11:47:47Z</time></trkpt><trkpt lat="45.85286035975727" lon="9.06505988679239"><ele>678.6666666666666</ele><time>2026-04-04T11:47:50Z</time></trkpt><trkpt lat="45.85287505708668" lon="9.065170505356756"><ele>676.5</ele><time>2026-04-04T11:47:52Z</time></trkpt><trkpt lat="45.852896336137285" lon="9.065343103429477"><ele>674.3333333333334</ele><time>2026-04-04T11:47:54Z</time></trkpt><trkpt lat="45.85290257397759" lon="9.065463811387513"><ele>672.1666666666667</ele><time>2026-04-04T11:47:56Z</time></trkpt><trkpt lat="45.85292247481025" lon="9.065565715907795"><ele>670.0</ele><time>2026-04-04T11:47:58Z</time></trkpt><trkpt lat="45.85294507684096" lon="9.065666277444285"><ele>670.0</ele><time>2026-04-04T11:48:00Z</time></trkpt><trkpt lat="45.852886151843485" lon="9.065738573652933"><ele>670.0</ele><time>2026-04-04T11:48:04Z</time></trkpt><trkpt lat="45.85282438620051" lon="9.06567567754624"><ele>670.0</ele><time>2026-04-04T11:48:08Z</time></trkpt><trkpt lat="45.85273328484092" lon="9.065630485578863"><ele>670.0</ele><time>2026-04-04T11:48:11Z</time></trkpt><trkpt lat="45.8526412705709" lon="9.065611592136888"><ele>670.0</ele><time>2026-04-04T11:48:13Z</time></trkpt><trkpt lat="45.85255304998821" lon="9.06564332139961"><ele>670.0</ele><time>2026-04-04T11:48:15Z</time></trkpt><trkpt lat="45.85244403156195" lon="9.06568222041974"><ele>661.0</ele><time>2026-04-04T11:48:17Z</time></trkpt><trkpt lat="45.85235299466238" lon="9.06565622976808"><ele>652.0</ele><time>2026-04-04T11:48:19Z</time></trkpt><trkpt lat="45.85228217062834" lon="9.065571980681346"><ele>643.0</ele><time>2026-04-04T11:48:21Z</time></trkpt><trkpt lat="45.852184729140205" lon="9.065531556841492"><ele>634.0</ele><time>2026-04-04T11:48:23Z</time></trkpt><trkpt lat="45.852099176292974" lon="9.065446236271022"><ele>625.0</ele><time>2026-04-04T11:48:25Z</time></trkpt><trkpt lat="45.85201214237216" lon="9.065415788424598"><ele>625.0</ele><time>2026-04-04T11:48:27Z</time></trkpt><trkpt lat="45.851949712123506" lon="9.06544014904946"><ele>625.0</ele><time>2026-04-04T11:48:29Z</time></trkpt><trkpt lat="45.85186771984643" lon="9.065457508331273"><ele>625.0</ele><time>2026-04-04T11:48:34Z</time></trkpt><trkpt lat="45.851774445890356" lon="9.0654048222611"><ele>625.0</ele><time>2026-04-04T11:48:36Z</time></trkpt><trkpt lat="45.851730398167575" lon="9.065279796528662"><ele>625.0</ele><time>2026-04-04T11:48:38Z</time></trkpt><trkpt lat="45.8516178461554" lon="9.065245896437686"><ele>614.8333333333334</ele><time>2026-04-04T11:48:39Z</time></trkpt><trkpt lat="45.85156706541089" lon="9.065189650947724"><ele>604.6666666666667</ele><time>2026-04-04T11:48:41Z</time></trkpt><trkpt lat="45.851537947017704" lon="9.065335653661627"><ele>594.5</ele><time>2026-04-04T11:48:44Z</time></trkpt><trkpt lat="45.85151827454158" lon="9.065461851401736"><ele>584.3333333333334</ele><time>2026-04-04T11:48:46Z</time></trkpt><trkpt lat="45.85149840122616" lon="9.06559763979043"><ele>574.1666666666666</ele><time>2026-04-04T11:48:48Z</time></trkpt><trkpt lat="45.85152973280652" lon="9.065709442783339"><ele>564.0</ele><time>2026-04-04T11:48:50Z</time></trkpt><trkpt lat="45.85163331011615" lon="9.06583865687552"><ele>563.8333333333334</ele><time>2026-04-04T11:48:52Z</time></trkpt><trkpt lat="45.85164454641701" lon="9.065931216271846"><ele>563.6666666666666</ele><time>2026-04-04T11:48:54Z</time></trkpt><trkpt lat="45.85167583789516" lon="9.066037088224887"><ele>563.5</ele><time>2026-04-04T11:48:56Z</time></trkpt><trkpt lat="45.85169829309088" lon="9.06613985512116"><ele>563.3333333333333</ele><time>2026-04-04T11:48:59Z</time></trkpt><trkpt lat="45.85160032439144" lon="9.066218822376372"><ele>563.1666666666666</ele><time>2026-04-04T11:49:02Z</time></trkpt><trkpt lat="45.85152728232576" lon="9.066239018817146"><ele>563.0</ele><time>2026-04-04T11:49:04Z</time></trkpt><trkpt lat="45.85144054661205" lon="9.066243092426017"><ele>563.0</ele><time>2026-04-04T11:49:06Z</time></trkpt><trkpt lat="45.85134869951289" lon="9.066221064506296"><ele>563.0</ele><time>2026-04-04T11:49:08Z</time></trkpt><trkpt lat="45.85125109625695" lon="9.06620585512479"><ele>563.0</ele><time>2026-04-04T11:49:10Z</time></trkpt><trkpt lat="45.85118299298791" lon="9.06618815964746"><ele>563.0</ele><time>2026-04-04T11:49:12Z</time></trkpt><trkpt lat="45.851099451336125" lon="9.066174561994439"><ele>563.0</ele><time>2026-04-04T11:49:14Z</time></trkpt><trkpt lat="45.8510170350998" lon="9.066139471608663"><ele>563.0</ele><time>2026-04-04T11:49:17Z</time></trkpt><trkpt lat="45.85100792685757" lon="9.066238766050942"><ele>563.0</ele><time>2026-04-04T11:49:20Z</time></trkpt><trkpt lat="45.8510084798822" lon="9.06636084032577"><ele>563.0</ele><time>2026-04-04T11:49:22Z</time></trkpt><trkpt lat="45.85101355855385" lon="9.066489335068482"><ele>563.0</ele><time>2026-04-04T11:49:25Z</time></trkpt><trkpt lat="45.85098386327873" lon="9.06658645546494"><ele>563.0</ele><time>2026-04-04T11:49:27Z</time></trkpt><trkpt lat="45.8509163000677" lon="9.066684274182823"><ele>563.0</ele><time>2026-04-04T11:49:29Z</time></trkpt><trkpt lat="45.850823185008444" lon="9.066792993857549"><ele>552.0</ele><time>2026-04-04T11:49:31Z</time></trkpt><trkpt lat="45.85076913079785" lon="9.066883444273586"><ele>541.0</ele><time>2026-04-04T11:49:33Z</time></trkpt><trkpt lat="45.85073264908258" lon="9.067004046924138"><ele>530.0</ele><time>2026-04-04T11:49:35Z</time></trkpt><trkpt lat="45.850701671162135" lon="9.067112633436672"><ele>519.0</ele><time>2026-04-04T11:49:37Z</time></trkpt><trkpt lat="45.85061327507843" lon="9.06723335325952"><ele>508.0</ele><time>2026-04-04T11:49:39Z</time></trkpt><trkpt lat="45.850528912522826" lon="9.067291857810746"><ele>508.0</ele><time>2026-04-04T11:49:41Z</time></trkpt><trkpt lat="45.85045655758236" lon="9.06732805470626"><ele>507.99999999999994</ele><time>2026-04-04T11:49:43Z</time></trkpt><trkpt lat="45.85034195260719" lon="9.067366529769272"><ele>507.99999999999994</ele><time>2026-04-04T11:49:45Z</time></trkpt><trkpt lat="45.85027869054176" lon="9.067375688521764"><ele>508.0</ele><time>2026-04-04T11:49:46Z</time></trkpt><trkpt lat="45.85017015485182" lon="9.067390186373713"><ele>508.0</ele><time>2026-04-04T11:49:48Z</time></trkpt><trkpt lat="45.8500506292801" lon="9.067430362889121"><ele>503.00000000000006</ele><time>2026-04-04T11:49:50Z</time></trkpt><trkpt lat="45.84998859188463" lon="9.067479441097479"><ele>498.0</ele><time>2026-04-04T11:49:51Z</time></trkpt><trkpt lat="45.849902976950695" lon="9.067580666896085"><ele>493.0</ele><time>2026-04-04T11:49:53Z</time></trkpt><trkpt lat="45.84984837972432" lon="9.067636614265542"><ele>488.0</ele><time>2026-04-04T11:49:54Z</time></trkpt><trkpt lat="45.849792198794965" lon="9.067685990348842"><ele>483.00000000000006</ele><time>2026-04-04T11:49:55Z</time></trkpt><trkpt lat="45.84970521848224" lon="9.067760128362554"><ele>478.0</ele><time>2026-04-04T11:49:57Z</time></trkpt><trkpt lat="45.84960725365908" lon="9.067846115601574"><ele>478.0</ele><time>2026-04-04T11:49:59Z</time></trkpt><trkpt lat="45.84950849425204" lon="9.067865398136156"><ele>477.99999999999994</ele><time>2026-04-04T11:50:01Z</time></trkpt><trkpt lat="45.84942608992037" lon="9.067936216598412"><ele>477.99999999999994</ele><time>2026-04-04T11:50:03Z</time></trkpt><trkpt lat="45.849345464791156" lon="9.068042608824674"><ele>478.0</ele><time>2026-04-04T11:50:05Z</time></trkpt><trkpt lat="45.84926077012534" lon="9.068157703100006"><ele>478.0</ele><time>2026-04-04T11:50:07Z</time></trkpt><trkpt lat="45.84920480689366" lon="9.068264339841956"><ele>473.83333333333337</ele><time>2026-04-04T11:50:09Z</time></trkpt><trkpt lat="45.84915936291577" lon="9.068328978336375"><ele>469.6666666666667</ele><time>2026-04-04T11:50:11Z</time></trkpt><trkpt lat="45.8490654646065" lon="9.06842065394247"><ele>465.5</ele><time>2026-04-04T11:50:13Z</time></trkpt><trkpt lat="45.84895596474097" lon="9.068461400156142"><ele>461.33333333333337</ele><time>2026-04-04T11:50:15Z</time></trkpt><trkpt lat="45.848882380097564" lon="9.06850315386425"><ele>457.1666666666667</ele><time>2026-04-04T11:50:17Z</time></trkpt><trkpt lat="45.84880961468022" lon="9.068508143337"><ele>453.0</ele><time>2026-04-04T11:50:19Z</time></trkpt><trkpt lat="45.848731116531404" lon="9.068497726645639"><ele>453.0</ele><time>2026-04-04T11:50:21Z</time></trkpt><trkpt lat="45.8486504639022" lon="9.068497445877568"><ele>452.99999999999994</ele><time>2026-04-04T11:50:24Z</time></trkpt><trkpt lat="45.84858188976523" lon="9.06854978986503"><ele>452.99999999999994</ele><time>2026-04-04T11:50:26Z</time></trkpt><trkpt lat="45.84852840902388" lon="9.068604617654385"><ele>453.0</ele><time>2026-04-04T11:50:29Z</time></trkpt><trkpt lat="45.84836491710704" lon="9.068602105294937"><ele>453.0</ele><time>2026-04-04T11:50:34Z</time></trkpt><trkpt lat="45.848326650288705" lon="9.068674759163411"><ele>448.0</ele><time>2026-04-04T11:51:22Z</time></trkpt><trkpt lat="45.84826027550636" lon="9.068738148666325"><ele>443.0</ele><time>2026-04-04T11:51:27Z</time></trkpt><trkpt lat="45.84828788484605" lon="9.068866122754947"><ele>438.0</ele><time>2026-04-04T11:51:31Z</time></trkpt><trkpt lat="45.84833220886642" lon="9.068944494552573"><ele>433.0</ele><time>2026-04-04T11:51:33Z</time></trkpt><trkpt lat="45.84836582816914" lon="9.069037758424509"><ele>428.0</ele><time>2026-04-04T11:51:35Z</time></trkpt><trkpt lat="45.848395104132386" lon="9.069119248671933"><ele>423.0</ele><time>2026-04-04T11:51:37Z</time></trkpt><trkpt lat="45.84841939515189" lon="9.069218124964012"><ele>423.6666666666667</ele><time>2026-04-04T11:51:40Z</time></trkpt><trkpt lat="45.8484904213876" lon="9.069278270573012"><ele>424.33333333333337</ele><time>2026-04-04T11:51:43Z</time></trkpt><trkpt lat="45.84856114842488" lon="9.069370447066966"><ele>425.0</ele><time>2026-04-04T11:51:46Z</time></trkpt><trkpt lat="45.84857261938753" lon="9.06948518419338"><ele>425.6666666666667</ele><time>2026-04-04T11:51:49Z</time></trkpt><trkpt lat="45.84850261136739" lon="9.069548692032232"><ele>426.33333333333337</ele><time>2026-04-04T11:51:52Z</time></trkpt><trkpt lat="45.8485173307987" lon="9.069670355953667"><ele>427.0</ele><time>2026-04-04T11:51:57Z</time></trkpt><trkpt lat="45.84855581370606" lon="9.06974815659472"><ele>427.00000000000006</ele><time>2026-04-04T11:51:59Z</time></trkpt><trkpt lat="45.84859964654527" lon="9.069834492680167"><ele>427.0</ele><time>2026-04-04T11:52:01Z</time></trkpt><trkpt lat="45.84866965733255" lon="9.069901545019425"><ele>427.0</ele><time>2026-04-04T11:52:04Z</time></trkpt><trkpt lat="45.84862759576019" lon="9.070002404879185"><ele>427.0</ele><time>2026-04-04T11:52:12Z</time></trkpt><trkpt lat="45.84855874538421" lon="9.07007068255641"><ele>427.00000000000006</ele><time>2026-04-04T11:52:17Z</time></trkpt><trkpt lat="45.84850118144946" lon="9.070143201457686"><ele>427.0</ele><time>2026-04-04T11:52:20Z</time></trkpt><trkpt lat="45.848417045555934" lon="9.070179809355556"><ele>419.50000000000006</ele><time>2026-04-04T11:52:22Z</time></trkpt><trkpt lat="45.848322464117466" lon="9.0702026732482"><ele>412.0</ele><time>2026-04-04T11:52:24Z</time></trkpt><trkpt lat="45.84824039630525" lon="9.070209779774649"><ele>404.5</ele><time>2026-04-04T11:52:26Z</time></trkpt><trkpt lat="45.84817583997876" lon="9.07023805776849"><ele>397.0</ele><time>2026-04-04T11:52:28Z</time></trkpt><trkpt lat="45.84811736846389" lon="9.070320915530608"><ele>389.5</ele><time>2026-04-04T11:52:31Z</time></trkpt><trkpt lat="45.848058612058686" lon="9.070412103951636"><ele>382.0</ele><time>2026-04-04T11:52:34Z</time></trkpt><trkpt lat="45.84800720395582" lon="9.070472638202967"><ele>382.0</ele><time>2026-04-04T11:52:35Z</time></trkpt><trkpt lat="45.847912126202026" lon="9.070528913619723"><ele>382.0</ele><time>2026-04-04T11:52:37Z</time></trkpt><trkpt lat="45.847820616218335" lon="9.070596142410707"><ele>382.0</ele><time>2026-04-04T11:52:39Z</time></trkpt><trkpt lat="45.847743824149994" lon="9.070641180000349"><ele>382.0</ele><time>2026-04-04T11:52:41Z</time></trkpt><trkpt lat="45.8476760273525" lon="9.070704767287054"><ele>382.0</ele><time>2026-04-04T11:52:43Z</time></trkpt><trkpt lat="45.84760433550681" lon="9.070813991922835"><ele>374.5</ele><time>2026-04-04T11:52:45Z</time></trkpt><trkpt lat="45.847532472796686" lon="9.070901379829166"><ele>367.0</ele><time>2026-04-04T11:52:47Z</time></trkpt><trkpt lat="45.847466417268485" lon="9.070978960766066"><ele>359.5</ele><time>2026-04-04T11:52:50Z</time></trkpt><trkpt lat="45.84742373685256" lon="9.071108772479016"><ele>352.0</ele><time>2026-04-04T11:52:52Z</time></trkpt><trkpt lat="45.84740133936046" lon="9.071248574342562"><ele>344.5</ele><time>2026-04-04T11:52:54Z</time></trkpt><trkpt lat="45.84737577479595" lon="9.071332994110133"><ele>337.0</ele><time>2026-04-04T11:52:55Z</time></trkpt><trkpt lat="45.84736421579782" lon="9.071428496547195"><ele>337.00000000000006</ele><time>2026-04-04T11:52:56Z</time></trkpt><trkpt lat="45.847346070896364" lon="9.071516482284835"><ele>337.0</ele><time>2026-04-04T11:52:58Z</time></trkpt><trkpt lat="45.847323865634216" lon="9.071610951644734"><ele>337.0</ele><time>2026-04-04T11:53:28Z</time></trkpt><trkpt lat="45.84726194214073" lon="9.071592544017474"><ele>337.0</ele><time>2026-04-04T11:53:56Z</time></trkpt><trkpt lat="45.8471751822982" lon="9.071619884391437"><ele>337.0</ele><time>2026-04-04T11:54:16Z</time></trkpt><trkpt lat="45.84711072618733" lon="9.071595859266543"><ele>337.00000000000006</ele><time>2026-04-04T11:54:19Z</time></trkpt><trkpt lat="45.8471822443115" lon="9.071595399656044"><ele>337.0</ele><time>2026-04-04T11:54:32Z</time></trkpt><trkpt lat="45.84724943248963" lon="9.071611432083637"><ele>330.0</ele><time>2026-04-04T11:54:35Z</time></trkpt><trkpt lat="45.84732965777135" lon="9.07161534902014"><ele>330.0</ele><time>2026-04-04T11:54:37Z</time></trkpt><trkpt lat="45.84740224463661" lon="9.071608776550113"><ele>330.0</ele><time>2026-04-04T11:54:39Z</time></trkpt><trkpt lat="45.847474056492146" lon="9.071604733341658"><ele>337.0</ele><time>2026-04-04T11:54:41Z</time></trkpt><trkpt lat="45.847551356529614" lon="9.071610276681884"><ele>330.0</ele><time>2026-04-04T11:54:44Z</time></trkpt></trkseg></trk></gpx>